<?xml version="1.0" encoding="UTF-8" standalone="no" ?>
<gpx xmlns="http://www.topografix.com/GPX/1/1" xmlns:xsi="http://www.w3.org/2001/XMLSchema-instance" xsi:schemaLocation="http://www.topografix.com/GPX/1/1 http://www.topografix.com/GPX/1/1/gpx.xsd" version="1.1" creator="VisuGPX - https://www.visugpx.com">
  <metadata>
    <name>L\'Authion par les crêtes</name>
    <desc><![CDATA[avec le Team Y2S]]></desc>
  </metadata>
  <trk>
    <name><![CDATA[Y2S Day 2]]></name>
    <desc><![CDATA[Michel, Claudine, Latisha, Sophie & Derek]]></desc>
    <trkseg>
      <trkpt lat="43.98884" lon="7.40146">
        <ele>1742.5999755859</ele>
        <time>2014-08-24T07:36:21.000Z</time>
      </trkpt>
      <trkpt lat="43.98884" lon="7.40148">
        <ele>1742.5999755859</ele>
        <time>2014-08-24T07:36:23.000Z</time>
      </trkpt>
      <trkpt lat="43.98885" lon="7.40153">
        <ele>1742.5999755859</ele>
        <time>2014-08-24T07:36:27.000Z</time>
      </trkpt>
      <trkpt lat="43.98889" lon="7.40162">
        <ele>1743.1999511719</ele>
        <time>2014-08-24T07:36:33.000Z</time>
      </trkpt>
      <trkpt lat="43.98889" lon="7.40163">
        <ele>1743.1999511719</ele>
        <time>2014-08-24T07:36:35.000Z</time>
      </trkpt>
      <trkpt lat="43.9889" lon="7.40167">
        <ele>1743.4000244141</ele>
        <time>2014-08-24T07:36:37.000Z</time>
      </trkpt>
      <trkpt lat="43.98891" lon="7.40177">
        <ele>1744.5999755859</ele>
        <time>2014-08-24T07:36:45.000Z</time>
      </trkpt>
      <trkpt lat="43.9889" lon="7.40184">
        <ele>1745.1999511719</ele>
        <time>2014-08-24T07:36:51.000Z</time>
      </trkpt>
      <trkpt lat="43.98891" lon="7.40185">
        <ele>1745.4000244141</ele>
        <time>2014-08-24T07:36:52.000Z</time>
      </trkpt>
      <trkpt lat="43.98892" lon="7.40191">
        <ele>1746</ele>
        <time>2014-08-24T07:36:59.000Z</time>
      </trkpt>
      <trkpt lat="43.98892" lon="7.40197">
        <ele>1746.8000488281</ele>
        <time>2014-08-24T07:37:04.000Z</time>
      </trkpt>
      <trkpt lat="43.98894" lon="7.40202">
        <ele>1747.5999755859</ele>
        <time>2014-08-24T07:37:07.000Z</time>
      </trkpt>
      <trkpt lat="43.98898" lon="7.40209">
        <ele>1749</ele>
        <time>2014-08-24T07:37:09.000Z</time>
      </trkpt>
      <trkpt lat="43.98897" lon="7.40217">
        <ele>1749.8000488281</ele>
        <time>2014-08-24T07:37:13.000Z</time>
      </trkpt>
      <trkpt lat="43.98896" lon="7.40219">
        <ele>1750</ele>
        <time>2014-08-24T07:37:15.000Z</time>
      </trkpt>
      <trkpt lat="43.98897" lon="7.40221">
        <ele>1750.1999511719</ele>
        <time>2014-08-24T07:37:16.000Z</time>
      </trkpt>
      <trkpt lat="43.98897" lon="7.40226">
        <ele>1751</ele>
        <time>2014-08-24T07:37:21.000Z</time>
      </trkpt>
      <trkpt lat="43.989" lon="7.40229">
        <ele>1751.5999755859</ele>
        <time>2014-08-24T07:37:22.000Z</time>
      </trkpt>
      <trkpt lat="43.98902" lon="7.40237">
        <ele>1753</ele>
        <time>2014-08-24T07:37:27.000Z</time>
      </trkpt>
      <trkpt lat="43.98901" lon="7.40247">
        <ele>1754</ele>
        <time>2014-08-24T07:37:34.000Z</time>
      </trkpt>
      <trkpt lat="43.98901" lon="7.4025">
        <ele>1754.4000244141</ele>
        <time>2014-08-24T07:37:38.000Z</time>
      </trkpt>
      <trkpt lat="43.989" lon="7.40251">
        <ele>1754.4000244141</ele>
        <time>2014-08-24T07:37:42.000Z</time>
      </trkpt>
      <trkpt lat="43.989" lon="7.40251">
        <ele>1754.4000244141</ele>
        <time>2014-08-24T07:37:43.000Z</time>
      </trkpt>
      <trkpt lat="43.98907" lon="7.40251">
        <ele>1755.4000244141</ele>
        <time>2014-08-24T07:37:48.000Z</time>
      </trkpt>
      <trkpt lat="43.9891" lon="7.40253">
        <ele>1756</ele>
        <time>2014-08-24T07:37:51.000Z</time>
      </trkpt>
      <trkpt lat="43.98911" lon="7.40253">
        <ele>1756.1999511719</ele>
        <time>2014-08-24T07:37:52.000Z</time>
      </trkpt>
      <trkpt lat="43.98911" lon="7.40258">
        <ele>1757</ele>
        <time>2014-08-24T07:37:56.000Z</time>
      </trkpt>
      <trkpt lat="43.98913" lon="7.40263">
        <ele>1758</ele>
        <time>2014-08-24T07:38:00.000Z</time>
      </trkpt>
      <trkpt lat="43.98912" lon="7.40269">
        <ele>1758.8000488281</ele>
        <time>2014-08-24T07:38:04.000Z</time>
      </trkpt>
      <trkpt lat="43.98912" lon="7.40272">
        <ele>1759</ele>
        <time>2014-08-24T07:38:06.000Z</time>
      </trkpt>
      <trkpt lat="43.9891" lon="7.4028">
        <ele>1760</ele>
        <time>2014-08-24T07:38:12.000Z</time>
      </trkpt>
      <trkpt lat="43.9891" lon="7.40283">
        <ele>1760.4000244141</ele>
        <time>2014-08-24T07:38:14.000Z</time>
      </trkpt>
      <trkpt lat="43.9891" lon="7.40288">
        <ele>1761.1999511719</ele>
        <time>2014-08-24T07:38:18.000Z</time>
      </trkpt>
      <trkpt lat="43.98908" lon="7.40295">
        <ele>1761.8000488281</ele>
        <time>2014-08-24T07:38:25.000Z</time>
      </trkpt>
      <trkpt lat="43.98906" lon="7.40299">
        <ele>1762.4000244141</ele>
        <time>2014-08-24T07:38:32.000Z</time>
      </trkpt>
      <trkpt lat="43.98906" lon="7.40302">
        <ele>1763</ele>
        <time>2014-08-24T07:38:37.000Z</time>
      </trkpt>
      <trkpt lat="43.98905" lon="7.40308">
        <ele>1764.1999511719</ele>
        <time>2014-08-24T07:38:46.000Z</time>
      </trkpt>
      <trkpt lat="43.98906" lon="7.40312">
        <ele>1765.1999511719</ele>
        <time>2014-08-24T07:38:52.000Z</time>
      </trkpt>
      <trkpt lat="43.98907" lon="7.40319">
        <ele>1766.8000488281</ele>
        <time>2014-08-24T07:39:02.000Z</time>
      </trkpt>
      <trkpt lat="43.98908" lon="7.40326">
        <ele>1768.4000244141</ele>
        <time>2014-08-24T07:39:10.000Z</time>
      </trkpt>
      <trkpt lat="43.98908" lon="7.40329">
        <ele>1768.8000488281</ele>
        <time>2014-08-24T07:39:16.000Z</time>
      </trkpt>
      <trkpt lat="43.98907" lon="7.40332">
        <ele>1769.4000244141</ele>
        <time>2014-08-24T07:39:22.000Z</time>
      </trkpt>
      <trkpt lat="43.98906" lon="7.40337">
        <ele>1770.4000244141</ele>
        <time>2014-08-24T07:39:28.000Z</time>
      </trkpt>
      <trkpt lat="43.98907" lon="7.40342">
        <ele>1771.4000244141</ele>
        <time>2014-08-24T07:39:35.000Z</time>
      </trkpt>
      <trkpt lat="43.98908" lon="7.40347">
        <ele>1772.5999755859</ele>
        <time>2014-08-24T07:39:40.000Z</time>
      </trkpt>
      <trkpt lat="43.98909" lon="7.40349">
        <ele>1773</ele>
        <time>2014-08-24T07:39:42.000Z</time>
      </trkpt>
      <trkpt lat="43.98909" lon="7.40356">
        <ele>1774.1999511719</ele>
        <time>2014-08-24T07:39:50.000Z</time>
      </trkpt>
      <trkpt lat="43.98909" lon="7.40362">
        <ele>1775.5999755859</ele>
        <time>2014-08-24T07:39:58.000Z</time>
      </trkpt>
      <trkpt lat="43.98909" lon="7.40369">
        <ele>1776.8000488281</ele>
        <time>2014-08-24T07:40:07.000Z</time>
      </trkpt>
      <trkpt lat="43.98911" lon="7.40373">
        <ele>1777.5999755859</ele>
        <time>2014-08-24T07:40:13.000Z</time>
      </trkpt>
      <trkpt lat="43.98913" lon="7.40378">
        <ele>1778.8000488281</ele>
        <time>2014-08-24T07:40:20.000Z</time>
      </trkpt>
      <trkpt lat="43.98917" lon="7.40383">
        <ele>1780</ele>
        <time>2014-08-24T07:40:29.000Z</time>
      </trkpt>
      <trkpt lat="43.98915" lon="7.40381">
        <ele>1779.5999755859</ele>
        <time>2014-08-24T07:40:30.000Z</time>
      </trkpt>
      <trkpt lat="43.98917" lon="7.40386">
        <ele>1780.5999755859</ele>
        <time>2014-08-24T07:40:37.000Z</time>
      </trkpt>
      <trkpt lat="43.98918" lon="7.40395">
        <ele>1782.5999755859</ele>
        <time>2014-08-24T07:40:46.000Z</time>
      </trkpt>
      <trkpt lat="43.98921" lon="7.40401">
        <ele>1783.8000488281</ele>
        <time>2014-08-24T07:40:54.000Z</time>
      </trkpt>
      <trkpt lat="43.98922" lon="7.4041">
        <ele>1785.5999755859</ele>
        <time>2014-08-24T07:41:03.000Z</time>
      </trkpt>
      <trkpt lat="43.98923" lon="7.40413">
        <ele>1786.1999511719</ele>
        <time>2014-08-24T07:41:12.000Z</time>
      </trkpt>
      <trkpt lat="43.98924" lon="7.40419">
        <ele>1787.8000488281</ele>
        <time>2014-08-24T07:41:24.000Z</time>
      </trkpt>
      <trkpt lat="43.98926" lon="7.40423">
        <ele>1788.5999755859</ele>
        <time>2014-08-24T07:41:32.000Z</time>
      </trkpt>
      <trkpt lat="43.98926" lon="7.40431">
        <ele>1790.5999755859</ele>
        <time>2014-08-24T07:41:40.000Z</time>
      </trkpt>
      <trkpt lat="43.98928" lon="7.40442">
        <ele>1793</ele>
        <time>2014-08-24T07:41:48.000Z</time>
      </trkpt>
      <trkpt lat="43.98929" lon="7.40451">
        <ele>1795.4000244141</ele>
        <time>2014-08-24T07:41:57.000Z</time>
      </trkpt>
      <trkpt lat="43.98933" lon="7.40462">
        <ele>1798</ele>
        <time>2014-08-24T07:42:07.000Z</time>
      </trkpt>
      <trkpt lat="43.98934" lon="7.40468">
        <ele>1799.4000244141</ele>
        <time>2014-08-24T07:42:14.000Z</time>
      </trkpt>
      <trkpt lat="43.98937" lon="7.40475">
        <ele>1801.1999511719</ele>
        <time>2014-08-24T07:42:22.000Z</time>
      </trkpt>
      <trkpt lat="43.98938" lon="7.40481">
        <ele>1802.8000488281</ele>
        <time>2014-08-24T07:42:30.000Z</time>
      </trkpt>
      <trkpt lat="43.9894" lon="7.40484">
        <ele>1803.5999755859</ele>
        <time>2014-08-24T07:42:36.000Z</time>
      </trkpt>
      <trkpt lat="43.9894" lon="7.40491">
        <ele>1805.1999511719</ele>
        <time>2014-08-24T07:42:43.000Z</time>
      </trkpt>
      <trkpt lat="43.98943" lon="7.40495">
        <ele>1806</ele>
        <time>2014-08-24T07:42:49.000Z</time>
      </trkpt>
      <trkpt lat="43.98944" lon="7.40498">
        <ele>1806.4000244141</ele>
        <time>2014-08-24T07:42:55.000Z</time>
      </trkpt>
      <trkpt lat="43.98947" lon="7.40507">
        <ele>1808</ele>
        <time>2014-08-24T07:43:04.000Z</time>
      </trkpt>
      <trkpt lat="43.9895" lon="7.40517">
        <ele>1809.1999511719</ele>
        <time>2014-08-24T07:43:15.000Z</time>
      </trkpt>
      <trkpt lat="43.98953" lon="7.40524">
        <ele>1809.8000488281</ele>
        <time>2014-08-24T07:43:23.000Z</time>
      </trkpt>
      <trkpt lat="43.98956" lon="7.40534">
        <ele>1811</ele>
        <time>2014-08-24T07:43:33.000Z</time>
      </trkpt>
      <trkpt lat="43.98958" lon="7.4054">
        <ele>1811.8000488281</ele>
        <time>2014-08-24T07:43:40.000Z</time>
      </trkpt>
      <trkpt lat="43.98958" lon="7.40549">
        <ele>1812.5999755859</ele>
        <time>2014-08-24T07:43:49.000Z</time>
      </trkpt>
      <trkpt lat="43.9896" lon="7.40555">
        <ele>1813.1999511719</ele>
        <time>2014-08-24T07:43:55.000Z</time>
      </trkpt>
      <trkpt lat="43.9896" lon="7.40559">
        <ele>1813.8000488281</ele>
        <time>2014-08-24T07:44:01.000Z</time>
      </trkpt>
      <trkpt lat="43.98957" lon="7.40562">
        <ele>1814.1999511719</ele>
        <time>2014-08-24T07:44:08.000Z</time>
      </trkpt>
      <trkpt lat="43.98956" lon="7.40567">
        <ele>1814.5999755859</ele>
        <time>2014-08-24T07:44:17.000Z</time>
      </trkpt>
      <trkpt lat="43.98958" lon="7.40572">
        <ele>1815.1999511719</ele>
        <time>2014-08-24T07:44:24.000Z</time>
      </trkpt>
      <trkpt lat="43.98959" lon="7.40579">
        <ele>1816</ele>
        <time>2014-08-24T07:44:34.000Z</time>
      </trkpt>
      <trkpt lat="43.98962" lon="7.40586">
        <ele>1816.8000488281</ele>
        <time>2014-08-24T07:44:45.000Z</time>
      </trkpt>
      <trkpt lat="43.98962" lon="7.40589">
        <ele>1817.1999511719</ele>
        <time>2014-08-24T07:44:51.000Z</time>
      </trkpt>
      <trkpt lat="43.98963" lon="7.40596">
        <ele>1818</ele>
        <time>2014-08-24T07:45:00.000Z</time>
      </trkpt>
      <trkpt lat="43.98969" lon="7.40603">
        <ele>1819</ele>
        <time>2014-08-24T07:45:09.000Z</time>
      </trkpt>
      <trkpt lat="43.98969" lon="7.40605">
        <ele>1819.1999511719</ele>
        <time>2014-08-24T07:45:16.000Z</time>
      </trkpt>
      <trkpt lat="43.98971" lon="7.40605">
        <ele>1819.1999511719</ele>
        <time>2014-08-24T07:45:52.000Z</time>
      </trkpt>
      <trkpt lat="43.98972" lon="7.40605">
        <ele>1819.1999511719</ele>
        <time>2014-08-24T07:47:07.000Z</time>
      </trkpt>
      <trkpt lat="43.9897" lon="7.4061">
        <ele>1819.8000488281</ele>
        <time>2014-08-24T07:47:12.000Z</time>
      </trkpt>
      <trkpt lat="43.98969" lon="7.40612">
        <ele>1819.4000244141</ele>
        <time>2014-08-24T07:47:14.000Z</time>
      </trkpt>
      <trkpt lat="43.98968" lon="7.40618">
        <ele>1818.5999755859</ele>
        <time>2014-08-24T07:47:21.000Z</time>
      </trkpt>
      <trkpt lat="43.98971" lon="7.40624">
        <ele>1818.8000488281</ele>
        <time>2014-08-24T07:47:29.000Z</time>
      </trkpt>
      <trkpt lat="43.98975" lon="7.40632">
        <ele>1818.8000488281</ele>
        <time>2014-08-24T07:47:38.000Z</time>
      </trkpt>
      <trkpt lat="43.98978" lon="7.40637">
        <ele>1819</ele>
        <time>2014-08-24T07:47:43.000Z</time>
      </trkpt>
      <trkpt lat="43.98979" lon="7.40639">
        <ele>1819.1999511719</ele>
        <time>2014-08-24T07:47:47.000Z</time>
      </trkpt>
      <trkpt lat="43.98984" lon="7.40647">
        <ele>1819.4000244141</ele>
        <time>2014-08-24T07:47:54.000Z</time>
      </trkpt>
      <trkpt lat="43.98987" lon="7.40651">
        <ele>1819.8000488281</ele>
        <time>2014-08-24T07:48:01.000Z</time>
      </trkpt>
      <trkpt lat="43.9899" lon="7.40657">
        <ele>1819.8000488281</ele>
        <time>2014-08-24T07:48:08.000Z</time>
      </trkpt>
      <trkpt lat="43.98996" lon="7.40667">
        <ele>1820.4000244141</ele>
        <time>2014-08-24T07:48:16.000Z</time>
      </trkpt>
      <trkpt lat="43.99004" lon="7.40678">
        <ele>1822.1999511719</ele>
        <time>2014-08-24T07:48:26.000Z</time>
      </trkpt>
      <trkpt lat="43.99009" lon="7.40683">
        <ele>1823.1999511719</ele>
        <time>2014-08-24T07:48:34.000Z</time>
      </trkpt>
      <trkpt lat="43.99013" lon="7.4069">
        <ele>1824</ele>
        <time>2014-08-24T07:48:42.000Z</time>
      </trkpt>
      <trkpt lat="43.99016" lon="7.40694">
        <ele>1824.5999755859</ele>
        <time>2014-08-24T07:48:51.000Z</time>
      </trkpt>
      <trkpt lat="43.99023" lon="7.40705">
        <ele>1826</ele>
        <time>2014-08-24T07:49:01.000Z</time>
      </trkpt>
      <trkpt lat="43.99027" lon="7.40713">
        <ele>1827</ele>
        <time>2014-08-24T07:49:09.000Z</time>
      </trkpt>
      <trkpt lat="43.99032" lon="7.40718">
        <ele>1828.1999511719</ele>
        <time>2014-08-24T07:49:17.000Z</time>
      </trkpt>
      <trkpt lat="43.99037" lon="7.40725">
        <ele>1829.4000244141</ele>
        <time>2014-08-24T07:49:27.000Z</time>
      </trkpt>
      <trkpt lat="43.99042" lon="7.40732">
        <ele>1830.8000488281</ele>
        <time>2014-08-24T07:49:36.000Z</time>
      </trkpt>
      <trkpt lat="43.99049" lon="7.4074">
        <ele>1832.4000244141</ele>
        <time>2014-08-24T07:49:45.000Z</time>
      </trkpt>
      <trkpt lat="43.99053" lon="7.40745">
        <ele>1833.5999755859</ele>
        <time>2014-08-24T07:49:54.000Z</time>
      </trkpt>
      <trkpt lat="43.99054" lon="7.40747">
        <ele>1833.5999755859</ele>
        <time>2014-08-24T07:49:58.000Z</time>
      </trkpt>
      <trkpt lat="43.99057" lon="7.4075">
        <ele>1834.4000244141</ele>
        <time>2014-08-24T07:50:01.000Z</time>
      </trkpt>
      <trkpt lat="43.99057" lon="7.40751">
        <ele>1834.4000244141</ele>
        <time>2014-08-24T07:50:02.000Z</time>
      </trkpt>
      <trkpt lat="43.99064" lon="7.40756">
        <ele>1835.8000488281</ele>
        <time>2014-08-24T07:50:10.000Z</time>
      </trkpt>
      <trkpt lat="43.99073" lon="7.40762">
        <ele>1837.5999755859</ele>
        <time>2014-08-24T07:50:21.000Z</time>
      </trkpt>
      <trkpt lat="43.99078" lon="7.40765">
        <ele>1839</ele>
        <time>2014-08-24T07:50:28.000Z</time>
      </trkpt>
      <trkpt lat="43.9908" lon="7.4076">
        <ele>1839.8000488281</ele>
        <time>2014-08-24T07:51:43.000Z</time>
      </trkpt>
      <trkpt lat="43.9908" lon="7.40763">
        <ele>1839.4000244141</ele>
        <time>2014-08-24T07:53:37.000Z</time>
      </trkpt>
      <trkpt lat="43.9908" lon="7.40763">
        <ele>1839.4000244141</ele>
        <time>2014-08-24T07:53:47.000Z</time>
      </trkpt>
      <trkpt lat="43.99082" lon="7.40765">
        <ele>1840</ele>
        <time>2014-08-24T07:54:08.000Z</time>
      </trkpt>
      <trkpt lat="43.99091" lon="7.40768">
        <ele>1842.1999511719</ele>
        <time>2014-08-24T07:54:18.000Z</time>
      </trkpt>
      <trkpt lat="43.99097" lon="7.40771">
        <ele>1843.4000244141</ele>
        <time>2014-08-24T07:54:28.000Z</time>
      </trkpt>
      <trkpt lat="43.99103" lon="7.40773">
        <ele>1844.8000488281</ele>
        <time>2014-08-24T07:54:39.000Z</time>
      </trkpt>
      <trkpt lat="43.99106" lon="7.40776">
        <ele>1845.5999755859</ele>
        <time>2014-08-24T07:54:47.000Z</time>
      </trkpt>
      <trkpt lat="43.99111" lon="7.40781">
        <ele>1846.4000244141</ele>
        <time>2014-08-24T07:54:56.000Z</time>
      </trkpt>
      <trkpt lat="43.99116" lon="7.40784">
        <ele>1847.5999755859</ele>
        <time>2014-08-24T07:55:05.000Z</time>
      </trkpt>
      <trkpt lat="43.99122" lon="7.40786">
        <ele>1848.5999755859</ele>
        <time>2014-08-24T07:55:14.000Z</time>
      </trkpt>
      <trkpt lat="43.99129" lon="7.4079">
        <ele>1850</ele>
        <time>2014-08-24T07:55:24.000Z</time>
      </trkpt>
      <trkpt lat="43.99133" lon="7.40792">
        <ele>1851</ele>
        <time>2014-08-24T07:55:32.000Z</time>
      </trkpt>
      <trkpt lat="43.99134" lon="7.40794">
        <ele>1851.4000244141</ele>
        <time>2014-08-24T07:55:38.000Z</time>
      </trkpt>
      <trkpt lat="43.99142" lon="7.40801">
        <ele>1852.5999755859</ele>
        <time>2014-08-24T07:55:48.000Z</time>
      </trkpt>
      <trkpt lat="43.99147" lon="7.40805">
        <ele>1853.5999755859</ele>
        <time>2014-08-24T07:55:57.000Z</time>
      </trkpt>
      <trkpt lat="43.99151" lon="7.4081">
        <ele>1854.4000244141</ele>
        <time>2014-08-24T07:56:06.000Z</time>
      </trkpt>
      <trkpt lat="43.99156" lon="7.40812">
        <ele>1855.4000244141</ele>
        <time>2014-08-24T07:56:13.000Z</time>
      </trkpt>
      <trkpt lat="43.99158" lon="7.40814">
        <ele>1855.8000488281</ele>
        <time>2014-08-24T07:56:20.000Z</time>
      </trkpt>
      <trkpt lat="43.9916" lon="7.40817">
        <ele>1856</ele>
        <time>2014-08-24T07:56:26.000Z</time>
      </trkpt>
      <trkpt lat="43.99161" lon="7.40818">
        <ele>1856.1999511719</ele>
        <time>2014-08-24T07:56:34.000Z</time>
      </trkpt>
      <trkpt lat="43.99162" lon="7.4082">
        <ele>1856.4000244141</ele>
        <time>2014-08-24T07:56:37.000Z</time>
      </trkpt>
      <trkpt lat="43.99165" lon="7.40822">
        <ele>1857</ele>
        <time>2014-08-24T07:56:40.000Z</time>
      </trkpt>
      <trkpt lat="43.99172" lon="7.40829">
        <ele>1858.1999511719</ele>
        <time>2014-08-24T07:56:49.000Z</time>
      </trkpt>
      <trkpt lat="43.99178" lon="7.40835">
        <ele>1859</ele>
        <time>2014-08-24T07:56:57.000Z</time>
      </trkpt>
      <trkpt lat="43.99186" lon="7.40843">
        <ele>1859.5999755859</ele>
        <time>2014-08-24T07:57:07.000Z</time>
      </trkpt>
      <trkpt lat="43.99188" lon="7.40847">
        <ele>1859.4000244141</ele>
        <time>2014-08-24T07:57:15.000Z</time>
      </trkpt>
      <trkpt lat="43.99188" lon="7.4085">
        <ele>1858.8000488281</ele>
        <time>2014-08-24T07:57:27.000Z</time>
      </trkpt>
      <trkpt lat="43.99188" lon="7.40849">
        <ele>1859</ele>
        <time>2014-08-24T07:57:42.000Z</time>
      </trkpt>
      <trkpt lat="43.9919" lon="7.40851">
        <ele>1859.1999511719</ele>
        <time>2014-08-24T07:57:47.000Z</time>
      </trkpt>
      <trkpt lat="43.99195" lon="7.40855">
        <ele>1859.8000488281</ele>
        <time>2014-08-24T07:57:56.000Z</time>
      </trkpt>
      <trkpt lat="43.992" lon="7.4086">
        <ele>1860.5999755859</ele>
        <time>2014-08-24T07:58:04.000Z</time>
      </trkpt>
      <trkpt lat="43.99206" lon="7.40867">
        <ele>1861.4000244141</ele>
        <time>2014-08-24T07:58:13.000Z</time>
      </trkpt>
      <trkpt lat="43.99213" lon="7.40873">
        <ele>1862.5999755859</ele>
        <time>2014-08-24T07:58:22.000Z</time>
      </trkpt>
      <trkpt lat="43.99217" lon="7.40879">
        <ele>1863</ele>
        <time>2014-08-24T07:58:31.000Z</time>
      </trkpt>
      <trkpt lat="43.99221" lon="7.4088">
        <ele>1864</ele>
        <time>2014-08-24T07:58:37.000Z</time>
      </trkpt>
      <trkpt lat="43.99228" lon="7.40887">
        <ele>1865</ele>
        <time>2014-08-24T07:58:47.000Z</time>
      </trkpt>
      <trkpt lat="43.99232" lon="7.4089">
        <ele>1865.5999755859</ele>
        <time>2014-08-24T07:58:52.000Z</time>
      </trkpt>
      <trkpt lat="43.99234" lon="7.40891">
        <ele>1866</ele>
        <time>2014-08-24T07:58:56.000Z</time>
      </trkpt>
      <trkpt lat="43.99235" lon="7.40895">
        <ele>1865.8000488281</ele>
        <time>2014-08-24T07:59:03.000Z</time>
      </trkpt>
      <trkpt lat="43.99239" lon="7.40897">
        <ele>1866.5999755859</ele>
        <time>2014-08-24T07:59:14.000Z</time>
      </trkpt>
      <trkpt lat="43.99245" lon="7.409">
        <ele>1868.1999511719</ele>
        <time>2014-08-24T07:59:23.000Z</time>
      </trkpt>
      <trkpt lat="43.99252" lon="7.40905">
        <ele>1869.1999511719</ele>
        <time>2014-08-24T07:59:32.000Z</time>
      </trkpt>
      <trkpt lat="43.99256" lon="7.40908">
        <ele>1870.1999511719</ele>
        <time>2014-08-24T07:59:40.000Z</time>
      </trkpt>
      <trkpt lat="43.99261" lon="7.40908">
        <ele>1872</ele>
        <time>2014-08-24T07:59:49.000Z</time>
      </trkpt>
      <trkpt lat="43.99266" lon="7.40909">
        <ele>1873.4000244141</ele>
        <time>2014-08-24T07:59:57.000Z</time>
      </trkpt>
      <trkpt lat="43.99268" lon="7.40908">
        <ele>1874</ele>
        <time>2014-08-24T08:00:04.000Z</time>
      </trkpt>
      <trkpt lat="43.99271" lon="7.4091">
        <ele>1874.4000244141</ele>
        <time>2014-08-24T08:00:17.000Z</time>
      </trkpt>
      <trkpt lat="43.99275" lon="7.40913">
        <ele>1875</ele>
        <time>2014-08-24T08:00:26.000Z</time>
      </trkpt>
      <trkpt lat="43.99281" lon="7.40916">
        <ele>1877.1999511719</ele>
        <time>2014-08-24T08:00:36.000Z</time>
      </trkpt>
      <trkpt lat="43.99287" lon="7.40918">
        <ele>1879.1999511719</ele>
        <time>2014-08-24T08:00:47.000Z</time>
      </trkpt>
      <trkpt lat="43.99291" lon="7.40919">
        <ele>1880.4000244141</ele>
        <time>2014-08-24T08:00:57.000Z</time>
      </trkpt>
      <trkpt lat="43.99295" lon="7.40919">
        <ele>1882.1999511719</ele>
        <time>2014-08-24T08:01:11.000Z</time>
      </trkpt>
      <trkpt lat="43.99297" lon="7.4092">
        <ele>1882.5999755859</ele>
        <time>2014-08-24T08:01:18.000Z</time>
      </trkpt>
      <trkpt lat="43.99301" lon="7.40923">
        <ele>1883.8000488281</ele>
        <time>2014-08-24T08:01:27.000Z</time>
      </trkpt>
      <trkpt lat="43.99303" lon="7.40923">
        <ele>1884.8000488281</ele>
        <time>2014-08-24T08:01:33.000Z</time>
      </trkpt>
      <trkpt lat="43.99305" lon="7.40924">
        <ele>1885.4000244141</ele>
        <time>2014-08-24T08:01:39.000Z</time>
      </trkpt>
      <trkpt lat="43.99308" lon="7.40928">
        <ele>1886.1999511719</ele>
        <time>2014-08-24T08:01:54.000Z</time>
      </trkpt>
      <trkpt lat="43.9931" lon="7.40928">
        <ele>1886.5999755859</ele>
        <time>2014-08-24T08:02:02.000Z</time>
      </trkpt>
      <trkpt lat="43.99312" lon="7.4093">
        <ele>1887.1999511719</ele>
        <time>2014-08-24T08:02:11.000Z</time>
      </trkpt>
      <trkpt lat="43.99314" lon="7.40931">
        <ele>1888</ele>
        <time>2014-08-24T08:02:22.000Z</time>
      </trkpt>
      <trkpt lat="43.99317" lon="7.40929">
        <ele>1889</ele>
        <time>2014-08-24T08:02:30.000Z</time>
      </trkpt>
      <trkpt lat="43.99318" lon="7.40929">
        <ele>1889.4000244141</ele>
        <time>2014-08-24T08:02:44.000Z</time>
      </trkpt>
      <trkpt lat="43.9932" lon="7.40932">
        <ele>1890</ele>
        <time>2014-08-24T08:02:52.000Z</time>
      </trkpt>
      <trkpt lat="43.99324" lon="7.40933">
        <ele>1891.1999511719</ele>
        <time>2014-08-24T08:02:59.000Z</time>
      </trkpt>
      <trkpt lat="43.99327" lon="7.40934">
        <ele>1892.5999755859</ele>
        <time>2014-08-24T08:03:05.000Z</time>
      </trkpt>
      <trkpt lat="43.99331" lon="7.40935">
        <ele>1893.8000488281</ele>
        <time>2014-08-24T08:03:12.000Z</time>
      </trkpt>
      <trkpt lat="43.99332" lon="7.40935">
        <ele>1894.1999511719</ele>
        <time>2014-08-24T08:03:23.000Z</time>
      </trkpt>
      <trkpt lat="43.99334" lon="7.40936">
        <ele>1894.8000488281</ele>
        <time>2014-08-24T08:03:29.000Z</time>
      </trkpt>
      <trkpt lat="43.9934" lon="7.40939">
        <ele>1896.5999755859</ele>
        <time>2014-08-24T08:03:43.000Z</time>
      </trkpt>
      <trkpt lat="43.99341" lon="7.40942">
        <ele>1896.8000488281</ele>
        <time>2014-08-24T08:03:48.000Z</time>
      </trkpt>
      <trkpt lat="43.99346" lon="7.40944">
        <ele>1898.4000244141</ele>
        <time>2014-08-24T08:03:57.000Z</time>
      </trkpt>
      <trkpt lat="43.9935" lon="7.40944">
        <ele>1899.8000488281</ele>
        <time>2014-08-24T08:04:03.000Z</time>
      </trkpt>
      <trkpt lat="43.99354" lon="7.40944">
        <ele>1901.1999511719</ele>
        <time>2014-08-24T08:04:11.000Z</time>
      </trkpt>
      <trkpt lat="43.99356" lon="7.40943">
        <ele>1902</ele>
        <time>2014-08-24T08:04:16.000Z</time>
      </trkpt>
      <trkpt lat="43.99356" lon="7.40943">
        <ele>1902.1999511719</ele>
        <time>2014-08-24T08:04:17.000Z</time>
      </trkpt>
      <trkpt lat="43.99359" lon="7.40942">
        <ele>1903.1999511719</ele>
        <time>2014-08-24T08:04:23.000Z</time>
      </trkpt>
      <trkpt lat="43.99362" lon="7.40943">
        <ele>1903.4000244141</ele>
        <time>2014-08-24T08:04:29.000Z</time>
      </trkpt>
      <trkpt lat="43.99367" lon="7.40944">
        <ele>1903.5999755859</ele>
        <time>2014-08-24T08:04:37.000Z</time>
      </trkpt>
      <trkpt lat="43.99372" lon="7.40945">
        <ele>1904</ele>
        <time>2014-08-24T08:04:45.000Z</time>
      </trkpt>
      <trkpt lat="43.99379" lon="7.40947">
        <ele>1904.1999511719</ele>
        <time>2014-08-24T08:04:55.000Z</time>
      </trkpt>
      <trkpt lat="43.99384" lon="7.40947">
        <ele>1904.5999755859</ele>
        <time>2014-08-24T08:05:04.000Z</time>
      </trkpt>
      <trkpt lat="43.99388" lon="7.40949">
        <ele>1904.8000488281</ele>
        <time>2014-08-24T08:05:12.000Z</time>
      </trkpt>
      <trkpt lat="43.9939" lon="7.40949">
        <ele>1905</ele>
        <time>2014-08-24T08:05:18.000Z</time>
      </trkpt>
      <trkpt lat="43.99391" lon="7.40951">
        <ele>1904.8000488281</ele>
        <time>2014-08-24T08:05:31.000Z</time>
      </trkpt>
      <trkpt lat="43.99393" lon="7.40954">
        <ele>1904.8000488281</ele>
        <time>2014-08-24T08:05:37.000Z</time>
      </trkpt>
      <trkpt lat="43.99397" lon="7.40956">
        <ele>1904.8000488281</ele>
        <time>2014-08-24T08:05:44.000Z</time>
      </trkpt>
      <trkpt lat="43.99401" lon="7.40956">
        <ele>1905</ele>
        <time>2014-08-24T08:05:51.000Z</time>
      </trkpt>
      <trkpt lat="43.99403" lon="7.40956">
        <ele>1905</ele>
        <time>2014-08-24T08:05:57.000Z</time>
      </trkpt>
      <trkpt lat="43.99404" lon="7.40961">
        <ele>1905</ele>
        <time>2014-08-24T08:06:01.000Z</time>
      </trkpt>
      <trkpt lat="43.99407" lon="7.40962">
        <ele>1905</ele>
        <time>2014-08-24T08:06:04.000Z</time>
      </trkpt>
      <trkpt lat="43.99408" lon="7.40967">
        <ele>1904.5999755859</ele>
        <time>2014-08-24T08:06:08.000Z</time>
      </trkpt>
      <trkpt lat="43.99409" lon="7.40967">
        <ele>1904.5999755859</ele>
        <time>2014-08-24T08:06:09.000Z</time>
      </trkpt>
      <trkpt lat="43.99409" lon="7.40971">
        <ele>1904.1999511719</ele>
        <time>2014-08-24T08:06:13.000Z</time>
      </trkpt>
      <trkpt lat="43.99408" lon="7.40972">
        <ele>1904</ele>
        <time>2014-08-24T08:06:14.000Z</time>
      </trkpt>
      <trkpt lat="43.99406" lon="7.40975">
        <ele>1903.5999755859</ele>
        <time>2014-08-24T08:06:18.000Z</time>
      </trkpt>
      <trkpt lat="43.99407" lon="7.40976">
        <ele>1903.5999755859</ele>
        <time>2014-08-24T08:06:19.000Z</time>
      </trkpt>
      <trkpt lat="43.99406" lon="7.40979">
        <ele>1903.1999511719</ele>
        <time>2014-08-24T08:06:26.000Z</time>
      </trkpt>
      <trkpt lat="43.99411" lon="7.40981">
        <ele>1903.4000244141</ele>
        <time>2014-08-24T08:06:32.000Z</time>
      </trkpt>
      <trkpt lat="43.99415" lon="7.40984">
        <ele>1903.4000244141</ele>
        <time>2014-08-24T08:06:37.000Z</time>
      </trkpt>
      <trkpt lat="43.99416" lon="7.40984">
        <ele>1903.4000244141</ele>
        <time>2014-08-24T08:06:38.000Z</time>
      </trkpt>
      <trkpt lat="43.99415" lon="7.40988">
        <ele>1903</ele>
        <time>2014-08-24T08:06:44.000Z</time>
      </trkpt>
      <trkpt lat="43.99416" lon="7.40993">
        <ele>1902.4000244141</ele>
        <time>2014-08-24T08:06:54.000Z</time>
      </trkpt>
      <trkpt lat="43.99416" lon="7.40991">
        <ele>1902.8000488281</ele>
        <time>2014-08-24T08:07:02.000Z</time>
      </trkpt>
      <trkpt lat="43.99413" lon="7.4099">
        <ele>1902.4000244141</ele>
        <time>2014-08-24T08:07:07.000Z</time>
      </trkpt>
      <trkpt lat="43.99411" lon="7.40988">
        <ele>1902.5999755859</ele>
        <time>2014-08-24T08:07:15.000Z</time>
      </trkpt>
      <trkpt lat="43.99418" lon="7.40988">
        <ele>1903.1999511719</ele>
        <time>2014-08-24T08:07:47.000Z</time>
      </trkpt>
      <trkpt lat="43.9942" lon="7.4099">
        <ele>1903</ele>
        <time>2014-08-24T08:07:51.000Z</time>
      </trkpt>
      <trkpt lat="43.99418" lon="7.40992">
        <ele>1902.8000488281</ele>
        <time>2014-08-24T08:07:59.000Z</time>
      </trkpt>
      <trkpt lat="43.99418" lon="7.40994">
        <ele>1902.5999755859</ele>
        <time>2014-08-24T08:08:04.000Z</time>
      </trkpt>
      <trkpt lat="43.99418" lon="7.40995">
        <ele>1902.4000244141</ele>
        <time>2014-08-24T08:08:06.000Z</time>
      </trkpt>
      <trkpt lat="43.99419" lon="7.40998">
        <ele>1902</ele>
        <time>2014-08-24T08:08:13.000Z</time>
      </trkpt>
      <trkpt lat="43.99421" lon="7.41002">
        <ele>1901.1999511719</ele>
        <time>2014-08-24T08:08:21.000Z</time>
      </trkpt>
      <trkpt lat="43.99426" lon="7.4101">
        <ele>1899</ele>
        <time>2014-08-24T08:08:34.000Z</time>
      </trkpt>
      <trkpt lat="43.99428" lon="7.41011">
        <ele>1898.5999755859</ele>
        <time>2014-08-24T08:08:40.000Z</time>
      </trkpt>
      <trkpt lat="43.99431" lon="7.41013">
        <ele>1898.1999511719</ele>
        <time>2014-08-24T08:08:50.000Z</time>
      </trkpt>
      <trkpt lat="43.99436" lon="7.4102">
        <ele>1896.1999511719</ele>
        <time>2014-08-24T08:09:50.000Z</time>
      </trkpt>
      <trkpt lat="43.99439" lon="7.41022">
        <ele>1895.8000488281</ele>
        <time>2014-08-24T08:09:56.000Z</time>
      </trkpt>
      <trkpt lat="43.99442" lon="7.41028">
        <ele>1894</ele>
        <time>2014-08-24T08:10:03.000Z</time>
      </trkpt>
      <trkpt lat="43.99447" lon="7.41034">
        <ele>1892.8000488281</ele>
        <time>2014-08-24T08:10:12.000Z</time>
      </trkpt>
      <trkpt lat="43.99451" lon="7.41037">
        <ele>1892.4000244141</ele>
        <time>2014-08-24T08:10:44.000Z</time>
      </trkpt>
      <trkpt lat="43.99453" lon="7.41041">
        <ele>1891.4000244141</ele>
        <time>2014-08-24T08:10:49.000Z</time>
      </trkpt>
      <trkpt lat="43.99454" lon="7.41043">
        <ele>1890.8000488281</ele>
        <time>2014-08-24T08:10:55.000Z</time>
      </trkpt>
      <trkpt lat="43.99458" lon="7.41047">
        <ele>1889.8000488281</ele>
        <time>2014-08-24T08:11:00.000Z</time>
      </trkpt>
      <trkpt lat="43.9946" lon="7.41052">
        <ele>1888.8000488281</ele>
        <time>2014-08-24T08:11:04.000Z</time>
      </trkpt>
      <trkpt lat="43.99465" lon="7.41057">
        <ele>1887.8000488281</ele>
        <time>2014-08-24T08:11:12.000Z</time>
      </trkpt>
      <trkpt lat="43.99468" lon="7.41061">
        <ele>1886.8000488281</ele>
        <time>2014-08-24T08:11:16.000Z</time>
      </trkpt>
      <trkpt lat="43.99471" lon="7.41065">
        <ele>1885.8000488281</ele>
        <time>2014-08-24T08:11:20.000Z</time>
      </trkpt>
      <trkpt lat="43.99477" lon="7.41075">
        <ele>1883.5999755859</ele>
        <time>2014-08-24T08:11:31.000Z</time>
      </trkpt>
      <trkpt lat="43.99483" lon="7.41086">
        <ele>1881.8000488281</ele>
        <time>2014-08-24T08:11:42.000Z</time>
      </trkpt>
      <trkpt lat="43.99486" lon="7.41092">
        <ele>1881.5999755859</ele>
        <time>2014-08-24T08:11:47.000Z</time>
      </trkpt>
      <trkpt lat="43.99488" lon="7.41096">
        <ele>1881.5999755859</ele>
        <time>2014-08-24T08:11:50.000Z</time>
      </trkpt>
      <trkpt lat="43.99491" lon="7.41105">
        <ele>1881.4000244141</ele>
        <time>2014-08-24T08:11:57.000Z</time>
      </trkpt>
      <trkpt lat="43.99494" lon="7.41112">
        <ele>1881.4000244141</ele>
        <time>2014-08-24T08:12:04.000Z</time>
      </trkpt>
      <trkpt lat="43.99495" lon="7.41114">
        <ele>1881.4000244141</ele>
        <time>2014-08-24T08:12:05.000Z</time>
      </trkpt>
      <trkpt lat="43.99499" lon="7.41126">
        <ele>1881</ele>
        <time>2014-08-24T08:12:13.000Z</time>
      </trkpt>
      <trkpt lat="43.99502" lon="7.41138">
        <ele>1880.5999755859</ele>
        <time>2014-08-24T08:12:21.000Z</time>
      </trkpt>
      <trkpt lat="43.99506" lon="7.41152">
        <ele>1878.5999755859</ele>
        <time>2014-08-24T08:12:30.000Z</time>
      </trkpt>
      <trkpt lat="43.99506" lon="7.41153">
        <ele>1878.4000244141</ele>
        <time>2014-08-24T08:12:31.000Z</time>
      </trkpt>
      <trkpt lat="43.9951" lon="7.41164">
        <ele>1876.4000244141</ele>
        <time>2014-08-24T08:12:39.000Z</time>
      </trkpt>
      <trkpt lat="43.99511" lon="7.41168">
        <ele>1875.8000488281</ele>
        <time>2014-08-24T08:12:45.000Z</time>
      </trkpt>
      <trkpt lat="43.99514" lon="7.41172">
        <ele>1876.1999511719</ele>
        <time>2014-08-24T08:12:54.000Z</time>
      </trkpt>
      <trkpt lat="43.99514" lon="7.41178">
        <ele>1875.1999511719</ele>
        <time>2014-08-24T08:13:04.000Z</time>
      </trkpt>
      <trkpt lat="43.99515" lon="7.41186">
        <ele>1874.4000244141</ele>
        <time>2014-08-24T08:13:12.000Z</time>
      </trkpt>
      <trkpt lat="43.99515" lon="7.41193">
        <ele>1873</ele>
        <time>2014-08-24T08:13:19.000Z</time>
      </trkpt>
      <trkpt lat="43.99514" lon="7.41196">
        <ele>1872.4000244141</ele>
        <time>2014-08-24T08:13:25.000Z</time>
      </trkpt>
      <trkpt lat="43.99514" lon="7.41202">
        <ele>1871</ele>
        <time>2014-08-24T08:13:31.000Z</time>
      </trkpt>
      <trkpt lat="43.99517" lon="7.41212">
        <ele>1870.5999755859</ele>
        <time>2014-08-24T08:13:39.000Z</time>
      </trkpt>
      <trkpt lat="43.99518" lon="7.4122">
        <ele>1870</ele>
        <time>2014-08-24T08:13:46.000Z</time>
      </trkpt>
      <trkpt lat="43.99519" lon="7.41223">
        <ele>1869.8000488281</ele>
        <time>2014-08-24T08:13:48.000Z</time>
      </trkpt>
      <trkpt lat="43.99519" lon="7.41229">
        <ele>1868.5999755859</ele>
        <time>2014-08-24T08:13:54.000Z</time>
      </trkpt>
      <trkpt lat="43.99519" lon="7.4123">
        <ele>1868.5999755859</ele>
        <time>2014-08-24T08:13:55.000Z</time>
      </trkpt>
      <trkpt lat="43.99521" lon="7.41239">
        <ele>1868</ele>
        <time>2014-08-24T08:14:03.000Z</time>
      </trkpt>
      <trkpt lat="43.99524" lon="7.4125">
        <ele>1867.1999511719</ele>
        <time>2014-08-24T08:14:12.000Z</time>
      </trkpt>
      <trkpt lat="43.99526" lon="7.4126">
        <ele>1866.8000488281</ele>
        <time>2014-08-24T08:14:21.000Z</time>
      </trkpt>
      <trkpt lat="43.99529" lon="7.4127">
        <ele>1866.5999755859</ele>
        <time>2014-08-24T08:14:29.000Z</time>
      </trkpt>
      <trkpt lat="43.99532" lon="7.4128">
        <ele>1866.4000244141</ele>
        <time>2014-08-24T08:14:37.000Z</time>
      </trkpt>
      <trkpt lat="43.99536" lon="7.41288">
        <ele>1866.4000244141</ele>
        <time>2014-08-24T08:14:44.000Z</time>
      </trkpt>
      <trkpt lat="43.99541" lon="7.41299">
        <ele>1866.5999755859</ele>
        <time>2014-08-24T08:14:53.000Z</time>
      </trkpt>
      <trkpt lat="43.99545" lon="7.41306">
        <ele>1867.1999511719</ele>
        <time>2014-08-24T08:15:01.000Z</time>
      </trkpt>
      <trkpt lat="43.99551" lon="7.41305">
        <ele>1869.1999511719</ele>
        <time>2014-08-24T08:15:08.000Z</time>
      </trkpt>
      <trkpt lat="43.99553" lon="7.41305">
        <ele>1869.8000488281</ele>
        <time>2014-08-24T08:15:16.000Z</time>
      </trkpt>
      <trkpt lat="43.99555" lon="7.41305">
        <ele>1870.8000488281</ele>
        <time>2014-08-24T08:15:24.000Z</time>
      </trkpt>
      <trkpt lat="43.99555" lon="7.41306">
        <ele>1870.5999755859</ele>
        <time>2014-08-24T08:15:30.000Z</time>
      </trkpt>
      <trkpt lat="43.99556" lon="7.41308">
        <ele>1870.5999755859</ele>
        <time>2014-08-24T08:15:45.000Z</time>
      </trkpt>
      <trkpt lat="43.99555" lon="7.41306">
        <ele>1870.5999755859</ele>
        <time>2014-08-24T08:17:41.000Z</time>
      </trkpt>
      <trkpt lat="43.99557" lon="7.41311">
        <ele>1870.5999755859</ele>
        <time>2014-08-24T08:18:18.000Z</time>
      </trkpt>
      <trkpt lat="43.99557" lon="7.41314">
        <ele>1870.1999511719</ele>
        <time>2014-08-24T08:18:28.000Z</time>
      </trkpt>
      <trkpt lat="43.99558" lon="7.41317">
        <ele>1870.1999511719</ele>
        <time>2014-08-24T08:18:36.000Z</time>
      </trkpt>
      <trkpt lat="43.99563" lon="7.4132">
        <ele>1871.1999511719</ele>
        <time>2014-08-24T08:18:45.000Z</time>
      </trkpt>
      <trkpt lat="43.99565" lon="7.41325">
        <ele>1871.4000244141</ele>
        <time>2014-08-24T08:18:53.000Z</time>
      </trkpt>
      <trkpt lat="43.99567" lon="7.4133">
        <ele>1871.4000244141</ele>
        <time>2014-08-24T08:19:02.000Z</time>
      </trkpt>
      <trkpt lat="43.99567" lon="7.41334">
        <ele>1871.5999755859</ele>
        <time>2014-08-24T08:19:08.000Z</time>
      </trkpt>
      <trkpt lat="43.99569" lon="7.4134">
        <ele>1872.4000244141</ele>
        <time>2014-08-24T08:19:16.000Z</time>
      </trkpt>
      <trkpt lat="43.9957" lon="7.41348">
        <ele>1874</ele>
        <time>2014-08-24T08:19:24.000Z</time>
      </trkpt>
      <trkpt lat="43.99571" lon="7.41349">
        <ele>1874.1999511719</ele>
        <time>2014-08-24T08:19:25.000Z</time>
      </trkpt>
      <trkpt lat="43.9957" lon="7.41353">
        <ele>1874.4000244141</ele>
        <time>2014-08-24T08:19:29.000Z</time>
      </trkpt>
      <trkpt lat="43.99573" lon="7.4136">
        <ele>1876.4000244141</ele>
        <time>2014-08-24T08:19:37.000Z</time>
      </trkpt>
      <trkpt lat="43.99576" lon="7.4137">
        <ele>1878.4000244141</ele>
        <time>2014-08-24T08:19:46.000Z</time>
      </trkpt>
      <trkpt lat="43.99578" lon="7.41374">
        <ele>1879.1999511719</ele>
        <time>2014-08-24T08:19:50.000Z</time>
      </trkpt>
      <trkpt lat="43.99578" lon="7.41375">
        <ele>1879.5999755859</ele>
        <time>2014-08-24T08:19:52.000Z</time>
      </trkpt>
      <trkpt lat="43.9958" lon="7.41382">
        <ele>1881</ele>
        <time>2014-08-24T08:20:00.000Z</time>
      </trkpt>
      <trkpt lat="43.99582" lon="7.41388">
        <ele>1882.4000244141</ele>
        <time>2014-08-24T08:20:08.000Z</time>
      </trkpt>
      <trkpt lat="43.99585" lon="7.41394">
        <ele>1883.1999511719</ele>
        <time>2014-08-24T08:20:16.000Z</time>
      </trkpt>
      <trkpt lat="43.99588" lon="7.41399">
        <ele>1884.1999511719</ele>
        <time>2014-08-24T08:20:24.000Z</time>
      </trkpt>
      <trkpt lat="43.99591" lon="7.41405">
        <ele>1885.1999511719</ele>
        <time>2014-08-24T08:20:32.000Z</time>
      </trkpt>
      <trkpt lat="43.99594" lon="7.41413">
        <ele>1885.4000244141</ele>
        <time>2014-08-24T08:20:41.000Z</time>
      </trkpt>
      <trkpt lat="43.99597" lon="7.41421">
        <ele>1887.4000244141</ele>
        <time>2014-08-24T08:20:50.000Z</time>
      </trkpt>
      <trkpt lat="43.99599" lon="7.41429">
        <ele>1889.1999511719</ele>
        <time>2014-08-24T08:20:59.000Z</time>
      </trkpt>
      <trkpt lat="43.99601" lon="7.41437">
        <ele>1891</ele>
        <time>2014-08-24T08:21:08.000Z</time>
      </trkpt>
      <trkpt lat="43.99604" lon="7.41443">
        <ele>1893.1999511719</ele>
        <time>2014-08-24T08:21:16.000Z</time>
      </trkpt>
      <trkpt lat="43.99606" lon="7.41452">
        <ele>1894.8000488281</ele>
        <time>2014-08-24T08:21:25.000Z</time>
      </trkpt>
      <trkpt lat="43.99606" lon="7.41459">
        <ele>1895.1999511719</ele>
        <time>2014-08-24T08:21:32.000Z</time>
      </trkpt>
      <trkpt lat="43.99607" lon="7.41468">
        <ele>1896.5999755859</ele>
        <time>2014-08-24T08:21:39.000Z</time>
      </trkpt>
      <trkpt lat="43.99608" lon="7.41471">
        <ele>1897</ele>
        <time>2014-08-24T08:21:41.000Z</time>
      </trkpt>
      <trkpt lat="43.99608" lon="7.41476">
        <ele>1897.4000244141</ele>
        <time>2014-08-24T08:21:47.000Z</time>
      </trkpt>
      <trkpt lat="43.99608" lon="7.41484">
        <ele>1898</ele>
        <time>2014-08-24T08:21:55.000Z</time>
      </trkpt>
      <trkpt lat="43.99609" lon="7.41493">
        <ele>1898.8000488281</ele>
        <time>2014-08-24T08:22:03.000Z</time>
      </trkpt>
      <trkpt lat="43.9961" lon="7.415">
        <ele>1899.5999755859</ele>
        <time>2014-08-24T08:22:10.000Z</time>
      </trkpt>
      <trkpt lat="43.9961" lon="7.41506">
        <ele>1899.5999755859</ele>
        <time>2014-08-24T08:22:17.000Z</time>
      </trkpt>
      <trkpt lat="43.99609" lon="7.41517">
        <ele>1899.5999755859</ele>
        <time>2014-08-24T08:22:28.000Z</time>
      </trkpt>
      <trkpt lat="43.9961" lon="7.41526">
        <ele>1899.8000488281</ele>
        <time>2014-08-24T08:22:35.000Z</time>
      </trkpt>
      <trkpt lat="43.9961" lon="7.41528">
        <ele>1899.8000488281</ele>
        <time>2014-08-24T08:22:37.000Z</time>
      </trkpt>
      <trkpt lat="43.9961" lon="7.41529">
        <ele>1899.8000488281</ele>
        <time>2014-08-24T08:22:38.000Z</time>
      </trkpt>
      <trkpt lat="43.9961" lon="7.41536">
        <ele>1900</ele>
        <time>2014-08-24T08:22:45.000Z</time>
      </trkpt>
      <trkpt lat="43.9961" lon="7.41546">
        <ele>1899.8000488281</ele>
        <time>2014-08-24T08:22:54.000Z</time>
      </trkpt>
      <trkpt lat="43.99611" lon="7.41548">
        <ele>1900</ele>
        <time>2014-08-24T08:23:02.000Z</time>
      </trkpt>
      <trkpt lat="43.99614" lon="7.41547">
        <ele>1901.8000488281</ele>
        <time>2014-08-24T08:23:08.000Z</time>
      </trkpt>
      <trkpt lat="43.99617" lon="7.41551">
        <ele>1903.4000244141</ele>
        <time>2014-08-24T08:23:33.000Z</time>
      </trkpt>
      <trkpt lat="43.99618" lon="7.41553">
        <ele>1903.5999755859</ele>
        <time>2014-08-24T08:23:36.000Z</time>
      </trkpt>
      <trkpt lat="43.99619" lon="7.41558">
        <ele>1903.8000488281</ele>
        <time>2014-08-24T08:23:42.000Z</time>
      </trkpt>
      <trkpt lat="43.9962" lon="7.41563">
        <ele>1904.4000244141</ele>
        <time>2014-08-24T08:23:48.000Z</time>
      </trkpt>
      <trkpt lat="43.9962" lon="7.41571">
        <ele>1904.4000244141</ele>
        <time>2014-08-24T08:23:55.000Z</time>
      </trkpt>
      <trkpt lat="43.99621" lon="7.4158">
        <ele>1904.8000488281</ele>
        <time>2014-08-24T08:24:04.000Z</time>
      </trkpt>
      <trkpt lat="43.99622" lon="7.41587">
        <ele>1905.8000488281</ele>
        <time>2014-08-24T08:24:13.000Z</time>
      </trkpt>
      <trkpt lat="43.99624" lon="7.41594">
        <ele>1907.1999511719</ele>
        <time>2014-08-24T08:24:21.000Z</time>
      </trkpt>
      <trkpt lat="43.99627" lon="7.41599">
        <ele>1908.8000488281</ele>
        <time>2014-08-24T08:24:29.000Z</time>
      </trkpt>
      <trkpt lat="43.9963" lon="7.41606">
        <ele>1910</ele>
        <time>2014-08-24T08:24:39.000Z</time>
      </trkpt>
      <trkpt lat="43.99632" lon="7.41613">
        <ele>1910.8000488281</ele>
        <time>2014-08-24T08:24:47.000Z</time>
      </trkpt>
      <trkpt lat="43.99634" lon="7.41622">
        <ele>1911.5999755859</ele>
        <time>2014-08-24T08:24:56.000Z</time>
      </trkpt>
      <trkpt lat="43.99637" lon="7.41629">
        <ele>1912.5999755859</ele>
        <time>2014-08-24T08:25:04.000Z</time>
      </trkpt>
      <trkpt lat="43.99639" lon="7.41638">
        <ele>1912.5999755859</ele>
        <time>2014-08-24T08:25:13.000Z</time>
      </trkpt>
      <trkpt lat="43.99641" lon="7.41643">
        <ele>1913.4000244141</ele>
        <time>2014-08-24T08:25:22.000Z</time>
      </trkpt>
      <trkpt lat="43.99646" lon="7.41636">
        <ele>1917.5999755859</ele>
        <time>2014-08-24T08:25:37.000Z</time>
      </trkpt>
      <trkpt lat="43.99645" lon="7.41642">
        <ele>1916</ele>
        <time>2014-08-24T08:26:03.000Z</time>
      </trkpt>
      <trkpt lat="43.99646" lon="7.4164">
        <ele>1916.5999755859</ele>
        <time>2014-08-24T08:26:08.000Z</time>
      </trkpt>
      <trkpt lat="43.99644" lon="7.41642">
        <ele>1915.5999755859</ele>
        <time>2014-08-24T08:26:29.000Z</time>
      </trkpt>
      <trkpt lat="43.99645" lon="7.41651">
        <ele>1915.4000244141</ele>
        <time>2014-08-24T08:26:37.000Z</time>
      </trkpt>
      <trkpt lat="43.99645" lon="7.41657">
        <ele>1914.4000244141</ele>
        <time>2014-08-24T08:26:41.000Z</time>
      </trkpt>
      <trkpt lat="43.99646" lon="7.4166">
        <ele>1915</ele>
        <time>2014-08-24T08:26:44.000Z</time>
      </trkpt>
      <trkpt lat="43.99647" lon="7.41663">
        <ele>1915.4000244141</ele>
        <time>2014-08-24T08:26:46.000Z</time>
      </trkpt>
      <trkpt lat="43.99649" lon="7.41665">
        <ele>1916.4000244141</ele>
        <time>2014-08-24T08:26:50.000Z</time>
      </trkpt>
      <trkpt lat="43.9965" lon="7.41668">
        <ele>1917.4000244141</ele>
        <time>2014-08-24T08:26:53.000Z</time>
      </trkpt>
      <trkpt lat="43.99652" lon="7.41673">
        <ele>1918.5999755859</ele>
        <time>2014-08-24T08:26:58.000Z</time>
      </trkpt>
      <trkpt lat="43.99655" lon="7.41678">
        <ele>1920.8000488281</ele>
        <time>2014-08-24T08:27:07.000Z</time>
      </trkpt>
      <trkpt lat="43.99659" lon="7.41682">
        <ele>1923.5999755859</ele>
        <time>2014-08-24T08:27:15.000Z</time>
      </trkpt>
      <trkpt lat="43.99663" lon="7.41689">
        <ele>1926.4000244141</ele>
        <time>2014-08-24T08:27:24.000Z</time>
      </trkpt>
      <trkpt lat="43.99663" lon="7.41697">
        <ele>1926.5999755859</ele>
        <time>2014-08-24T08:27:31.000Z</time>
      </trkpt>
      <trkpt lat="43.99664" lon="7.41703">
        <ele>1927.4000244141</ele>
        <time>2014-08-24T08:27:39.000Z</time>
      </trkpt>
      <trkpt lat="43.99666" lon="7.41704">
        <ele>1929</ele>
        <time>2014-08-24T08:27:46.000Z</time>
      </trkpt>
      <trkpt lat="43.99669" lon="7.41699">
        <ele>1930.8000488281</ele>
        <time>2014-08-24T08:27:53.000Z</time>
      </trkpt>
      <trkpt lat="43.99674" lon="7.41699">
        <ele>1933.8000488281</ele>
        <time>2014-08-24T08:28:02.000Z</time>
      </trkpt>
      <trkpt lat="43.99679" lon="7.41699">
        <ele>1936.5999755859</ele>
        <time>2014-08-24T08:28:09.000Z</time>
      </trkpt>
      <trkpt lat="43.99681" lon="7.417">
        <ele>1938.1999511719</ele>
        <time>2014-08-24T08:28:16.000Z</time>
      </trkpt>
      <trkpt lat="43.99682" lon="7.41709">
        <ele>1938.8000488281</ele>
        <time>2014-08-24T08:28:24.000Z</time>
      </trkpt>
      <trkpt lat="43.99682" lon="7.41712">
        <ele>1939.1999511719</ele>
        <time>2014-08-24T08:28:27.000Z</time>
      </trkpt>
      <trkpt lat="43.99682" lon="7.41714">
        <ele>1939.1999511719</ele>
        <time>2014-08-24T08:28:29.000Z</time>
      </trkpt>
      <trkpt lat="43.99682" lon="7.41717">
        <ele>1939.4000244141</ele>
        <time>2014-08-24T08:28:32.000Z</time>
      </trkpt>
      <trkpt lat="43.99683" lon="7.41722">
        <ele>1940.1999511719</ele>
        <time>2014-08-24T08:28:38.000Z</time>
      </trkpt>
      <trkpt lat="43.99682" lon="7.41726">
        <ele>1939.8000488281</ele>
        <time>2014-08-24T08:28:45.000Z</time>
      </trkpt>
      <trkpt lat="43.99683" lon="7.41733">
        <ele>1940.8000488281</ele>
        <time>2014-08-24T08:28:53.000Z</time>
      </trkpt>
      <trkpt lat="43.99684" lon="7.41741">
        <ele>1942</ele>
        <time>2014-08-24T08:29:03.000Z</time>
      </trkpt>
      <trkpt lat="43.99682" lon="7.41748">
        <ele>1941</ele>
        <time>2014-08-24T08:29:11.000Z</time>
      </trkpt>
      <trkpt lat="43.99682" lon="7.41752">
        <ele>1941</ele>
        <time>2014-08-24T08:29:18.000Z</time>
      </trkpt>
      <trkpt lat="43.9968" lon="7.41755">
        <ele>1940.5999755859</ele>
        <time>2014-08-24T08:29:23.000Z</time>
      </trkpt>
      <trkpt lat="43.9968" lon="7.41761">
        <ele>1941.5999755859</ele>
        <time>2014-08-24T08:29:31.000Z</time>
      </trkpt>
      <trkpt lat="43.99683" lon="7.41769">
        <ele>1944.5999755859</ele>
        <time>2014-08-24T08:29:39.000Z</time>
      </trkpt>
      <trkpt lat="43.99685" lon="7.41778">
        <ele>1946.8000488281</ele>
        <time>2014-08-24T08:29:48.000Z</time>
      </trkpt>
      <trkpt lat="43.99684" lon="7.41788">
        <ele>1948</ele>
        <time>2014-08-24T08:29:57.000Z</time>
      </trkpt>
      <trkpt lat="43.99685" lon="7.41798">
        <ele>1950.1999511719</ele>
        <time>2014-08-24T08:30:07.000Z</time>
      </trkpt>
      <trkpt lat="43.99687" lon="7.41806">
        <ele>1953</ele>
        <time>2014-08-24T08:30:15.000Z</time>
      </trkpt>
      <trkpt lat="43.99683" lon="7.41814">
        <ele>1951.5999755859</ele>
        <time>2014-08-24T08:30:23.000Z</time>
      </trkpt>
      <trkpt lat="43.99682" lon="7.41816">
        <ele>1951.4000244141</ele>
        <time>2014-08-24T08:30:25.000Z</time>
      </trkpt>
      <trkpt lat="43.99681" lon="7.41824">
        <ele>1952</ele>
        <time>2014-08-24T08:30:31.000Z</time>
      </trkpt>
      <trkpt lat="43.99684" lon="7.41831">
        <ele>1955</ele>
        <time>2014-08-24T08:30:39.000Z</time>
      </trkpt>
      <trkpt lat="43.99681" lon="7.41841">
        <ele>1954.4000244141</ele>
        <time>2014-08-24T08:30:47.000Z</time>
      </trkpt>
      <trkpt lat="43.99681" lon="7.4185">
        <ele>1955.8000488281</ele>
        <time>2014-08-24T08:30:55.000Z</time>
      </trkpt>
      <trkpt lat="43.9968" lon="7.4186">
        <ele>1957</ele>
        <time>2014-08-24T08:31:04.000Z</time>
      </trkpt>
      <trkpt lat="43.9968" lon="7.41869">
        <ele>1958.5999755859</ele>
        <time>2014-08-24T08:31:12.000Z</time>
      </trkpt>
      <trkpt lat="43.99677" lon="7.41879">
        <ele>1958</ele>
        <time>2014-08-24T08:31:22.000Z</time>
      </trkpt>
      <trkpt lat="43.99676" lon="7.4189">
        <ele>1959.4000244141</ele>
        <time>2014-08-24T08:31:31.000Z</time>
      </trkpt>
      <trkpt lat="43.99675" lon="7.41901">
        <ele>1960.4000244141</ele>
        <time>2014-08-24T08:31:40.000Z</time>
      </trkpt>
      <trkpt lat="43.99674" lon="7.41905">
        <ele>1960.8000488281</ele>
        <time>2014-08-24T08:31:43.000Z</time>
      </trkpt>
      <trkpt lat="43.99674" lon="7.41912">
        <ele>1962.8000488281</ele>
        <time>2014-08-24T08:31:49.000Z</time>
      </trkpt>
      <trkpt lat="43.99673" lon="7.41923">
        <ele>1964</ele>
        <time>2014-08-24T08:31:57.000Z</time>
      </trkpt>
      <trkpt lat="43.99672" lon="7.41929">
        <ele>1965.1999511719</ele>
        <time>2014-08-24T08:32:02.000Z</time>
      </trkpt>
      <trkpt lat="43.99671" lon="7.41934">
        <ele>1965.1999511719</ele>
        <time>2014-08-24T08:32:06.000Z</time>
      </trkpt>
      <trkpt lat="43.9967" lon="7.41936">
        <ele>1965.1999511719</ele>
        <time>2014-08-24T08:32:08.000Z</time>
      </trkpt>
      <trkpt lat="43.9967" lon="7.41947">
        <ele>1966.8000488281</ele>
        <time>2014-08-24T08:32:17.000Z</time>
      </trkpt>
      <trkpt lat="43.9967" lon="7.41955">
        <ele>1968.4000244141</ele>
        <time>2014-08-24T08:32:25.000Z</time>
      </trkpt>
      <trkpt lat="43.99668" lon="7.41961">
        <ele>1968.4000244141</ele>
        <time>2014-08-24T08:32:30.000Z</time>
      </trkpt>
      <trkpt lat="43.99667" lon="7.41963">
        <ele>1968.1999511719</ele>
        <time>2014-08-24T08:32:33.000Z</time>
      </trkpt>
      <trkpt lat="43.99665" lon="7.41972">
        <ele>1968.5999755859</ele>
        <time>2014-08-24T08:32:43.000Z</time>
      </trkpt>
      <trkpt lat="43.99661" lon="7.4198">
        <ele>1969.1999511719</ele>
        <time>2014-08-24T08:32:51.000Z</time>
      </trkpt>
      <trkpt lat="43.99658" lon="7.41989">
        <ele>1970.4000244141</ele>
        <time>2014-08-24T08:33:01.000Z</time>
      </trkpt>
      <trkpt lat="43.99656" lon="7.41997">
        <ele>1971.8000488281</ele>
        <time>2014-08-24T08:33:11.000Z</time>
      </trkpt>
      <trkpt lat="43.99657" lon="7.41999">
        <ele>1973</ele>
        <time>2014-08-24T08:33:18.000Z</time>
      </trkpt>
      <trkpt lat="43.9966" lon="7.42001">
        <ele>1974.4000244141</ele>
        <time>2014-08-24T08:33:44.000Z</time>
      </trkpt>
      <trkpt lat="43.99658" lon="7.42002">
        <ele>1973.8000488281</ele>
        <time>2014-08-24T08:33:48.000Z</time>
      </trkpt>
      <trkpt lat="43.99656" lon="7.42007">
        <ele>1973.8000488281</ele>
        <time>2014-08-24T08:33:54.000Z</time>
      </trkpt>
      <trkpt lat="43.99656" lon="7.42014">
        <ele>1974.4000244141</ele>
        <time>2014-08-24T08:34:03.000Z</time>
      </trkpt>
      <trkpt lat="43.99656" lon="7.42022">
        <ele>1976</ele>
        <time>2014-08-24T08:34:12.000Z</time>
      </trkpt>
      <trkpt lat="43.99656" lon="7.42028">
        <ele>1976.5999755859</ele>
        <time>2014-08-24T08:34:20.000Z</time>
      </trkpt>
      <trkpt lat="43.99652" lon="7.42033">
        <ele>1975.4000244141</ele>
        <time>2014-08-24T08:34:29.000Z</time>
      </trkpt>
      <trkpt lat="43.9965" lon="7.42037">
        <ele>1975</ele>
        <time>2014-08-24T08:34:36.000Z</time>
      </trkpt>
      <trkpt lat="43.99645" lon="7.42045">
        <ele>1975</ele>
        <time>2014-08-24T08:34:46.000Z</time>
      </trkpt>
      <trkpt lat="43.99643" lon="7.42049">
        <ele>1975.5999755859</ele>
        <time>2014-08-24T08:34:50.000Z</time>
      </trkpt>
      <trkpt lat="43.99641" lon="7.42052">
        <ele>1975.8000488281</ele>
        <time>2014-08-24T08:34:54.000Z</time>
      </trkpt>
      <trkpt lat="43.9964" lon="7.42057">
        <ele>1976.8000488281</ele>
        <time>2014-08-24T08:34:59.000Z</time>
      </trkpt>
      <trkpt lat="43.99637" lon="7.42061">
        <ele>1977.1999511719</ele>
        <time>2014-08-24T08:35:03.000Z</time>
      </trkpt>
      <trkpt lat="43.99637" lon="7.42062">
        <ele>1977.4000244141</ele>
        <time>2014-08-24T08:35:04.000Z</time>
      </trkpt>
      <trkpt lat="43.99636" lon="7.42067">
        <ele>1978.5999755859</ele>
        <time>2014-08-24T08:35:09.000Z</time>
      </trkpt>
      <trkpt lat="43.99635" lon="7.42074">
        <ele>1980.4000244141</ele>
        <time>2014-08-24T08:35:15.000Z</time>
      </trkpt>
      <trkpt lat="43.99635" lon="7.42077">
        <ele>1981.4000244141</ele>
        <time>2014-08-24T08:35:19.000Z</time>
      </trkpt>
      <trkpt lat="43.99635" lon="7.42086">
        <ele>1983.1999511719</ele>
        <time>2014-08-24T08:35:28.000Z</time>
      </trkpt>
      <trkpt lat="43.99634" lon="7.42095">
        <ele>1984</ele>
        <time>2014-08-24T08:35:35.000Z</time>
      </trkpt>
      <trkpt lat="43.99634" lon="7.42097">
        <ele>1984.1999511719</ele>
        <time>2014-08-24T08:35:37.000Z</time>
      </trkpt>
      <trkpt lat="43.99631" lon="7.42104">
        <ele>1984.1999511719</ele>
        <time>2014-08-24T08:35:44.000Z</time>
      </trkpt>
      <trkpt lat="43.9963" lon="7.42107">
        <ele>1984.5999755859</ele>
        <time>2014-08-24T08:35:47.000Z</time>
      </trkpt>
      <trkpt lat="43.99627" lon="7.42114">
        <ele>1985.8000488281</ele>
        <time>2014-08-24T08:35:56.000Z</time>
      </trkpt>
      <trkpt lat="43.99624" lon="7.42123">
        <ele>1987.1999511719</ele>
        <time>2014-08-24T08:36:06.000Z</time>
      </trkpt>
      <trkpt lat="43.99621" lon="7.42133">
        <ele>1989</ele>
        <time>2014-08-24T08:36:16.000Z</time>
      </trkpt>
      <trkpt lat="43.9962" lon="7.42143">
        <ele>1991.1999511719</ele>
        <time>2014-08-24T08:36:27.000Z</time>
      </trkpt>
      <trkpt lat="43.99619" lon="7.42151">
        <ele>1992.8000488281</ele>
        <time>2014-08-24T08:36:34.000Z</time>
      </trkpt>
      <trkpt lat="43.99619" lon="7.42152">
        <ele>1993</ele>
        <time>2014-08-24T08:36:35.000Z</time>
      </trkpt>
      <trkpt lat="43.99618" lon="7.42157">
        <ele>1993.8000488281</ele>
        <time>2014-08-24T08:36:40.000Z</time>
      </trkpt>
      <trkpt lat="43.99615" lon="7.42165">
        <ele>1995.4000244141</ele>
        <time>2014-08-24T08:36:49.000Z</time>
      </trkpt>
      <trkpt lat="43.99613" lon="7.42173">
        <ele>1996</ele>
        <time>2014-08-24T08:36:57.000Z</time>
      </trkpt>
      <trkpt lat="43.99612" lon="7.42181">
        <ele>1996.4000244141</ele>
        <time>2014-08-24T08:37:05.000Z</time>
      </trkpt>
      <trkpt lat="43.99612" lon="7.42189">
        <ele>1997.1999511719</ele>
        <time>2014-08-24T08:37:13.000Z</time>
      </trkpt>
      <trkpt lat="43.99612" lon="7.42201">
        <ele>1998.1999511719</ele>
        <time>2014-08-24T08:37:26.000Z</time>
      </trkpt>
      <trkpt lat="43.99613" lon="7.4221">
        <ele>1999.4000244141</ele>
        <time>2014-08-24T08:37:34.000Z</time>
      </trkpt>
      <trkpt lat="43.99615" lon="7.4222">
        <ele>2000.8000488281</ele>
        <time>2014-08-24T08:37:44.000Z</time>
      </trkpt>
      <trkpt lat="43.99615" lon="7.42227">
        <ele>2001.4000244141</ele>
        <time>2014-08-24T08:37:52.000Z</time>
      </trkpt>
      <trkpt lat="43.99614" lon="7.42234">
        <ele>2001.8000488281</ele>
        <time>2014-08-24T08:37:59.000Z</time>
      </trkpt>
      <trkpt lat="43.99614" lon="7.42244">
        <ele>2003</ele>
        <time>2014-08-24T08:38:09.000Z</time>
      </trkpt>
      <trkpt lat="43.99614" lon="7.42254">
        <ele>2004.1999511719</ele>
        <time>2014-08-24T08:38:18.000Z</time>
      </trkpt>
      <trkpt lat="43.99616" lon="7.42263">
        <ele>2004.4000244141</ele>
        <time>2014-08-24T08:38:27.000Z</time>
      </trkpt>
      <trkpt lat="43.99618" lon="7.4227">
        <ele>2004.8000488281</ele>
        <time>2014-08-24T08:38:35.000Z</time>
      </trkpt>
      <trkpt lat="43.99621" lon="7.42271">
        <ele>2006</ele>
        <time>2014-08-24T08:38:41.000Z</time>
      </trkpt>
      <trkpt lat="43.99623" lon="7.42273">
        <ele>2006.5999755859</ele>
        <time>2014-08-24T08:38:47.000Z</time>
      </trkpt>
      <trkpt lat="43.99626" lon="7.42279">
        <ele>2007.4000244141</ele>
        <time>2014-08-24T08:38:55.000Z</time>
      </trkpt>
      <trkpt lat="43.99631" lon="7.42287">
        <ele>2008.8000488281</ele>
        <time>2014-08-24T08:39:01.000Z</time>
      </trkpt>
      <trkpt lat="43.99635" lon="7.42298">
        <ele>2009.8000488281</ele>
        <time>2014-08-24T08:39:08.000Z</time>
      </trkpt>
      <trkpt lat="43.99636" lon="7.42302">
        <ele>2010.1999511719</ele>
        <time>2014-08-24T08:39:12.000Z</time>
      </trkpt>
      <trkpt lat="43.99637" lon="7.42306">
        <ele>2010</ele>
        <time>2014-08-24T08:39:16.000Z</time>
      </trkpt>
      <trkpt lat="43.99641" lon="7.42317">
        <ele>2010.5999755859</ele>
        <time>2014-08-24T08:39:24.000Z</time>
      </trkpt>
      <trkpt lat="43.99647" lon="7.4233">
        <ele>2012.4000244141</ele>
        <time>2014-08-24T08:39:35.000Z</time>
      </trkpt>
      <trkpt lat="43.99652" lon="7.42339">
        <ele>2014.5999755859</ele>
        <time>2014-08-24T08:39:44.000Z</time>
      </trkpt>
      <trkpt lat="43.99654" lon="7.42348">
        <ele>2016</ele>
        <time>2014-08-24T08:39:53.000Z</time>
      </trkpt>
      <trkpt lat="43.99658" lon="7.42352">
        <ele>2018.4000244141</ele>
        <time>2014-08-24T08:40:02.000Z</time>
      </trkpt>
      <trkpt lat="43.99664" lon="7.4236">
        <ele>2021.4000244141</ele>
        <time>2014-08-24T08:40:11.000Z</time>
      </trkpt>
      <trkpt lat="43.99665" lon="7.42364">
        <ele>2022.1999511719</ele>
        <time>2014-08-24T08:40:14.000Z</time>
      </trkpt>
      <trkpt lat="43.99667" lon="7.4237">
        <ele>2023.4000244141</ele>
        <time>2014-08-24T08:40:19.000Z</time>
      </trkpt>
      <trkpt lat="43.99669" lon="7.42373">
        <ele>2024.4000244141</ele>
        <time>2014-08-24T08:40:23.000Z</time>
      </trkpt>
      <trkpt lat="43.99671" lon="7.42378">
        <ele>2025.4000244141</ele>
        <time>2014-08-24T08:40:28.000Z</time>
      </trkpt>
      <trkpt lat="43.99675" lon="7.42384">
        <ele>2027.5999755859</ele>
        <time>2014-08-24T08:40:37.000Z</time>
      </trkpt>
      <trkpt lat="43.99678" lon="7.4239">
        <ele>2029.1999511719</ele>
        <time>2014-08-24T08:40:46.000Z</time>
      </trkpt>
      <trkpt lat="43.99679" lon="7.42393">
        <ele>2030</ele>
        <time>2014-08-24T08:40:52.000Z</time>
      </trkpt>
      <trkpt lat="43.99682" lon="7.424">
        <ele>2031.8000488281</ele>
        <time>2014-08-24T08:41:02.000Z</time>
      </trkpt>
      <trkpt lat="43.99684" lon="7.42405">
        <ele>2033</ele>
        <time>2014-08-24T08:41:07.000Z</time>
      </trkpt>
      <trkpt lat="43.99686" lon="7.42411">
        <ele>2033.5999755859</ele>
        <time>2014-08-24T08:41:15.000Z</time>
      </trkpt>
      <trkpt lat="43.9969" lon="7.42416">
        <ele>2035.5999755859</ele>
        <time>2014-08-24T08:41:24.000Z</time>
      </trkpt>
      <trkpt lat="43.99692" lon="7.42422">
        <ele>2037</ele>
        <time>2014-08-24T08:41:33.000Z</time>
      </trkpt>
      <trkpt lat="43.99694" lon="7.42426">
        <ele>2037.1999511719</ele>
        <time>2014-08-24T08:41:39.000Z</time>
      </trkpt>
      <trkpt lat="43.99697" lon="7.42431">
        <ele>2037.8000488281</ele>
        <time>2014-08-24T08:41:48.000Z</time>
      </trkpt>
      <trkpt lat="43.99699" lon="7.42433">
        <ele>2038.1999511719</ele>
        <time>2014-08-24T08:41:54.000Z</time>
      </trkpt>
      <trkpt lat="43.99708" lon="7.4244">
        <ele>2040.1999511719</ele>
        <time>2014-08-24T08:43:26.000Z</time>
      </trkpt>
      <trkpt lat="43.99713" lon="7.42443">
        <ele>2041.4000244141</ele>
        <time>2014-08-24T08:43:33.000Z</time>
      </trkpt>
      <trkpt lat="43.99717" lon="7.42448">
        <ele>2042.1999511719</ele>
        <time>2014-08-24T08:43:43.000Z</time>
      </trkpt>
      <trkpt lat="43.99719" lon="7.42453">
        <ele>2042.4000244141</ele>
        <time>2014-08-24T08:44:01.000Z</time>
      </trkpt>
      <trkpt lat="43.99721" lon="7.42453">
        <ele>2043</ele>
        <time>2014-08-24T08:44:10.000Z</time>
      </trkpt>
      <trkpt lat="43.99722" lon="7.42454">
        <ele>2043.4000244141</ele>
        <time>2014-08-24T08:44:28.000Z</time>
      </trkpt>
      <trkpt lat="43.99722" lon="7.42455">
        <ele>2043.1999511719</ele>
        <time>2014-08-24T08:44:39.000Z</time>
      </trkpt>
      <trkpt lat="43.99722" lon="7.42457">
        <ele>2043</ele>
        <time>2014-08-24T08:44:42.000Z</time>
      </trkpt>
      <trkpt lat="43.99721" lon="7.42456">
        <ele>2042.8000488281</ele>
        <time>2014-08-24T08:45:03.000Z</time>
      </trkpt>
      <trkpt lat="43.99724" lon="7.42459">
        <ele>2043.5999755859</ele>
        <time>2014-08-24T08:45:29.000Z</time>
      </trkpt>
      <trkpt lat="43.99723" lon="7.42464">
        <ele>2043.1999511719</ele>
        <time>2014-08-24T08:45:37.000Z</time>
      </trkpt>
      <trkpt lat="43.99724" lon="7.4247">
        <ele>2043.1999511719</ele>
        <time>2014-08-24T08:45:44.000Z</time>
      </trkpt>
      <trkpt lat="43.99726" lon="7.42479">
        <ele>2043.4000244141</ele>
        <time>2014-08-24T08:45:54.000Z</time>
      </trkpt>
      <trkpt lat="43.9973" lon="7.42485">
        <ele>2044.1999511719</ele>
        <time>2014-08-24T08:46:03.000Z</time>
      </trkpt>
      <trkpt lat="43.99731" lon="7.42489">
        <ele>2044.1999511719</ele>
        <time>2014-08-24T08:46:09.000Z</time>
      </trkpt>
      <trkpt lat="43.99736" lon="7.42494">
        <ele>2045.1999511719</ele>
        <time>2014-08-24T08:46:17.000Z</time>
      </trkpt>
      <trkpt lat="43.9974" lon="7.42497">
        <ele>2046.1999511719</ele>
        <time>2014-08-24T08:46:25.000Z</time>
      </trkpt>
      <trkpt lat="43.99746" lon="7.42503">
        <ele>2047.5999755859</ele>
        <time>2014-08-24T08:47:17.000Z</time>
      </trkpt>
      <trkpt lat="43.99748" lon="7.42505">
        <ele>2048.1999511719</ele>
        <time>2014-08-24T08:47:23.000Z</time>
      </trkpt>
      <trkpt lat="43.99751" lon="7.42515">
        <ele>2048.8000488281</ele>
        <time>2014-08-24T08:47:33.000Z</time>
      </trkpt>
      <trkpt lat="43.99752" lon="7.42518">
        <ele>2049.1999511719</ele>
        <time>2014-08-24T08:47:36.000Z</time>
      </trkpt>
      <trkpt lat="43.99755" lon="7.42522">
        <ele>2050</ele>
        <time>2014-08-24T08:47:41.000Z</time>
      </trkpt>
      <trkpt lat="43.99756" lon="7.42522">
        <ele>2050</ele>
        <time>2014-08-24T08:47:42.000Z</time>
      </trkpt>
      <trkpt lat="43.9976" lon="7.42527">
        <ele>2051.3999023438</ele>
        <time>2014-08-24T08:47:48.000Z</time>
      </trkpt>
      <trkpt lat="43.99768" lon="7.42535">
        <ele>2053.1999511719</ele>
        <time>2014-08-24T08:47:57.000Z</time>
      </trkpt>
      <trkpt lat="43.99774" lon="7.42533">
        <ele>2054.8000488281</ele>
        <time>2014-08-24T08:48:04.000Z</time>
      </trkpt>
      <trkpt lat="43.9978" lon="7.42536">
        <ele>2055</ele>
        <time>2014-08-24T08:48:12.000Z</time>
      </trkpt>
      <trkpt lat="43.99781" lon="7.4254">
        <ele>2055</ele>
        <time>2014-08-24T08:48:26.000Z</time>
      </trkpt>
      <trkpt lat="43.99783" lon="7.42543">
        <ele>2055</ele>
        <time>2014-08-24T08:48:33.000Z</time>
      </trkpt>
      <trkpt lat="43.99786" lon="7.42549">
        <ele>2054.8000488281</ele>
        <time>2014-08-24T08:48:47.000Z</time>
      </trkpt>
      <trkpt lat="43.99791" lon="7.42554">
        <ele>2054.8000488281</ele>
        <time>2014-08-24T08:48:54.000Z</time>
      </trkpt>
      <trkpt lat="43.99801" lon="7.42558">
        <ele>2054.6000976562</ele>
        <time>2014-08-24T08:49:03.000Z</time>
      </trkpt>
      <trkpt lat="43.99807" lon="7.42563">
        <ele>2054.6000976562</ele>
        <time>2014-08-24T08:49:11.000Z</time>
      </trkpt>
      <trkpt lat="43.99814" lon="7.4257">
        <ele>2054.6000976562</ele>
        <time>2014-08-24T08:49:20.000Z</time>
      </trkpt>
      <trkpt lat="43.99816" lon="7.42575">
        <ele>2054.6000976562</ele>
        <time>2014-08-24T08:49:26.000Z</time>
      </trkpt>
      <trkpt lat="43.99821" lon="7.42584">
        <ele>2054.1999511719</ele>
        <time>2014-08-24T08:49:33.000Z</time>
      </trkpt>
      <trkpt lat="43.99822" lon="7.42586">
        <ele>2054</ele>
        <time>2014-08-24T08:49:35.000Z</time>
      </trkpt>
      <trkpt lat="43.99824" lon="7.42592">
        <ele>2053.6000976562</ele>
        <time>2014-08-24T08:49:39.000Z</time>
      </trkpt>
      <trkpt lat="43.99828" lon="7.42601">
        <ele>2052.8000488281</ele>
        <time>2014-08-24T08:49:47.000Z</time>
      </trkpt>
      <trkpt lat="43.99829" lon="7.42603">
        <ele>2052.6000976562</ele>
        <time>2014-08-24T08:49:49.000Z</time>
      </trkpt>
      <trkpt lat="43.99833" lon="7.42612">
        <ele>2051.8000488281</ele>
        <time>2014-08-24T08:49:56.000Z</time>
      </trkpt>
      <trkpt lat="43.99836" lon="7.42621">
        <ele>2051</ele>
        <time>2014-08-24T08:50:03.000Z</time>
      </trkpt>
      <trkpt lat="43.9984" lon="7.42636">
        <ele>2049.8000488281</ele>
        <time>2014-08-24T08:50:13.000Z</time>
      </trkpt>
      <trkpt lat="43.99845" lon="7.42649">
        <ele>2048.6000976562</ele>
        <time>2014-08-24T08:50:22.000Z</time>
      </trkpt>
      <trkpt lat="43.99854" lon="7.42657">
        <ele>2047.8000488281</ele>
        <time>2014-08-24T08:50:30.000Z</time>
      </trkpt>
      <trkpt lat="43.99863" lon="7.42665">
        <ele>2047.5999755859</ele>
        <time>2014-08-24T08:50:39.000Z</time>
      </trkpt>
      <trkpt lat="43.99869" lon="7.42672">
        <ele>2047.8000488281</ele>
        <time>2014-08-24T08:50:47.000Z</time>
      </trkpt>
      <trkpt lat="43.99876" lon="7.42677">
        <ele>2048.1999511719</ele>
        <time>2014-08-24T08:50:54.000Z</time>
      </trkpt>
      <trkpt lat="43.99879" lon="7.42678">
        <ele>2048.3999023438</ele>
        <time>2014-08-24T08:50:57.000Z</time>
      </trkpt>
      <trkpt lat="43.99881" lon="7.4268">
        <ele>2048.6000976562</ele>
        <time>2014-08-24T08:51:00.000Z</time>
      </trkpt>
      <trkpt lat="43.99883" lon="7.42682">
        <ele>2048.6000976562</ele>
        <time>2014-08-24T08:51:02.000Z</time>
      </trkpt>
      <trkpt lat="43.99889" lon="7.42688">
        <ele>2048.8000488281</ele>
        <time>2014-08-24T08:51:10.000Z</time>
      </trkpt>
      <trkpt lat="43.99895" lon="7.42694">
        <ele>2049</ele>
        <time>2014-08-24T08:51:16.000Z</time>
      </trkpt>
      <trkpt lat="43.99901" lon="7.42699">
        <ele>2049.3999023438</ele>
        <time>2014-08-24T08:51:24.000Z</time>
      </trkpt>
      <trkpt lat="43.99906" lon="7.42704">
        <ele>2049.6000976562</ele>
        <time>2014-08-24T08:51:40.000Z</time>
      </trkpt>
      <trkpt lat="43.99913" lon="7.42712">
        <ele>2049.8000488281</ele>
        <time>2014-08-24T08:51:48.000Z</time>
      </trkpt>
      <trkpt lat="43.99922" lon="7.42718">
        <ele>2050.3999023438</ele>
        <time>2014-08-24T08:51:56.000Z</time>
      </trkpt>
      <trkpt lat="43.9993" lon="7.42728">
        <ele>2050.3999023438</ele>
        <time>2014-08-24T08:52:05.000Z</time>
      </trkpt>
      <trkpt lat="43.99932" lon="7.42739">
        <ele>2049.6000976562</ele>
        <time>2014-08-24T08:52:12.000Z</time>
      </trkpt>
      <trkpt lat="43.99931" lon="7.4275">
        <ele>2048</ele>
        <time>2014-08-24T08:52:20.000Z</time>
      </trkpt>
      <trkpt lat="43.9993" lon="7.42755">
        <ele>2047.5999755859</ele>
        <time>2014-08-24T08:52:24.000Z</time>
      </trkpt>
      <trkpt lat="43.99929" lon="7.42761">
        <ele>2047.4000244141</ele>
        <time>2014-08-24T08:52:28.000Z</time>
      </trkpt>
      <trkpt lat="43.99925" lon="7.42772">
        <ele>2046.1999511719</ele>
        <time>2014-08-24T08:52:36.000Z</time>
      </trkpt>
      <trkpt lat="43.99924" lon="7.42778">
        <ele>2045.8000488281</ele>
        <time>2014-08-24T08:52:40.000Z</time>
      </trkpt>
      <trkpt lat="43.99922" lon="7.42781">
        <ele>2045.5999755859</ele>
        <time>2014-08-24T08:52:43.000Z</time>
      </trkpt>
      <trkpt lat="43.99923" lon="7.42784">
        <ele>2045.5999755859</ele>
        <time>2014-08-24T08:52:49.000Z</time>
      </trkpt>
      <trkpt lat="43.9992" lon="7.42795">
        <ele>2044.8000488281</ele>
        <time>2014-08-24T08:52:57.000Z</time>
      </trkpt>
      <trkpt lat="43.99916" lon="7.42802">
        <ele>2043.8000488281</ele>
        <time>2014-08-24T08:53:02.000Z</time>
      </trkpt>
      <trkpt lat="43.99914" lon="7.42803">
        <ele>2043.4000244141</ele>
        <time>2014-08-24T08:53:05.000Z</time>
      </trkpt>
      <trkpt lat="43.99914" lon="7.42803">
        <ele>2043.4000244141</ele>
        <time>2014-08-24T08:53:08.000Z</time>
      </trkpt>
      <trkpt lat="43.99912" lon="7.42806">
        <ele>2042.8000488281</ele>
        <time>2014-08-24T08:53:25.000Z</time>
      </trkpt>
      <trkpt lat="43.9991" lon="7.42817">
        <ele>2041.1999511719</ele>
        <time>2014-08-24T08:53:35.000Z</time>
      </trkpt>
      <trkpt lat="43.99907" lon="7.42828">
        <ele>2039.5999755859</ele>
        <time>2014-08-24T08:53:43.000Z</time>
      </trkpt>
      <trkpt lat="43.99905" lon="7.42837">
        <ele>2039</ele>
        <time>2014-08-24T08:53:51.000Z</time>
      </trkpt>
      <trkpt lat="43.99903" lon="7.42848">
        <ele>2038.4000244141</ele>
        <time>2014-08-24T08:54:00.000Z</time>
      </trkpt>
      <trkpt lat="43.99901" lon="7.42859">
        <ele>2038.1999511719</ele>
        <time>2014-08-24T08:54:09.000Z</time>
      </trkpt>
      <trkpt lat="43.999" lon="7.42872">
        <ele>2038</ele>
        <time>2014-08-24T08:54:19.000Z</time>
      </trkpt>
      <trkpt lat="43.999" lon="7.42883">
        <ele>2037</ele>
        <time>2014-08-24T08:54:27.000Z</time>
      </trkpt>
      <trkpt lat="43.999" lon="7.42888">
        <ele>2036.5999755859</ele>
        <time>2014-08-24T08:54:32.000Z</time>
      </trkpt>
      <trkpt lat="43.99901" lon="7.4289">
        <ele>2036.5999755859</ele>
        <time>2014-08-24T08:54:34.000Z</time>
      </trkpt>
      <trkpt lat="43.999" lon="7.42893">
        <ele>2036</ele>
        <time>2014-08-24T08:54:36.000Z</time>
      </trkpt>
      <trkpt lat="43.999" lon="7.42899">
        <ele>2035.1999511719</ele>
        <time>2014-08-24T08:54:41.000Z</time>
      </trkpt>
      <trkpt lat="43.999" lon="7.42899">
        <ele>2035.1999511719</ele>
        <time>2014-08-24T08:54:42.000Z</time>
      </trkpt>
      <trkpt lat="43.99904" lon="7.429">
        <ele>2036.5999755859</ele>
        <time>2014-08-24T08:54:48.000Z</time>
      </trkpt>
      <trkpt lat="43.9991" lon="7.42896">
        <ele>2039.1999511719</ele>
        <time>2014-08-24T08:54:55.000Z</time>
      </trkpt>
      <trkpt lat="43.99912" lon="7.42896">
        <ele>2040</ele>
        <time>2014-08-24T08:55:04.000Z</time>
      </trkpt>
      <trkpt lat="43.99909" lon="7.42893">
        <ele>2039.5999755859</ele>
        <time>2014-08-24T08:55:19.000Z</time>
      </trkpt>
      <trkpt lat="43.99912" lon="7.42894">
        <ele>2040.4000244141</ele>
        <time>2014-08-24T08:55:29.000Z</time>
      </trkpt>
      <trkpt lat="43.99912" lon="7.42895">
        <ele>2040.1999511719</ele>
        <time>2014-08-24T08:55:42.000Z</time>
      </trkpt>
      <trkpt lat="43.99908" lon="7.42898">
        <ele>2038.4000244141</ele>
        <time>2014-08-24T08:55:50.000Z</time>
      </trkpt>
      <trkpt lat="43.99907" lon="7.42899">
        <ele>2037.8000488281</ele>
        <time>2014-08-24T08:55:51.000Z</time>
      </trkpt>
      <trkpt lat="43.99905" lon="7.42905">
        <ele>2036.5999755859</ele>
        <time>2014-08-24T08:55:55.000Z</time>
      </trkpt>
      <trkpt lat="43.99905" lon="7.4291">
        <ele>2035.8000488281</ele>
        <time>2014-08-24T08:55:59.000Z</time>
      </trkpt>
      <trkpt lat="43.99905" lon="7.42915">
        <ele>2035.5999755859</ele>
        <time>2014-08-24T08:56:03.000Z</time>
      </trkpt>
      <trkpt lat="43.99908" lon="7.4292">
        <ele>2035.4000244141</ele>
        <time>2014-08-24T08:56:09.000Z</time>
      </trkpt>
      <trkpt lat="43.9991" lon="7.42923">
        <ele>2035.8000488281</ele>
        <time>2014-08-24T08:56:16.000Z</time>
      </trkpt>
      <trkpt lat="43.99911" lon="7.4292">
        <ele>2036.8000488281</ele>
        <time>2014-08-24T08:56:26.000Z</time>
      </trkpt>
      <trkpt lat="43.99912" lon="7.42926">
        <ele>2036.1999511719</ele>
        <time>2014-08-24T08:56:32.000Z</time>
      </trkpt>
      <trkpt lat="43.99915" lon="7.42935">
        <ele>2035.5999755859</ele>
        <time>2014-08-24T08:56:41.000Z</time>
      </trkpt>
      <trkpt lat="43.99919" lon="7.42946">
        <ele>2035</ele>
        <time>2014-08-24T08:56:50.000Z</time>
      </trkpt>
      <trkpt lat="43.99924" lon="7.42958">
        <ele>2034.8000488281</ele>
        <time>2014-08-24T08:56:59.000Z</time>
      </trkpt>
      <trkpt lat="43.99929" lon="7.42965">
        <ele>2035.1999511719</ele>
        <time>2014-08-24T08:57:08.000Z</time>
      </trkpt>
      <trkpt lat="43.99936" lon="7.42973">
        <ele>2036.8000488281</ele>
        <time>2014-08-24T08:57:17.000Z</time>
      </trkpt>
      <trkpt lat="43.99942" lon="7.4298">
        <ele>2037.1999511719</ele>
        <time>2014-08-24T08:57:25.000Z</time>
      </trkpt>
      <trkpt lat="43.99948" lon="7.42988">
        <ele>2037.5999755859</ele>
        <time>2014-08-24T08:57:34.000Z</time>
      </trkpt>
      <trkpt lat="43.99954" lon="7.42997">
        <ele>2037.5999755859</ele>
        <time>2014-08-24T08:57:43.000Z</time>
      </trkpt>
      <trkpt lat="43.9996" lon="7.43007">
        <ele>2038</ele>
        <time>2014-08-24T08:57:53.000Z</time>
      </trkpt>
      <trkpt lat="43.99966" lon="7.43019">
        <ele>2039</ele>
        <time>2014-08-24T08:58:03.000Z</time>
      </trkpt>
      <trkpt lat="43.9997" lon="7.43025">
        <ele>2039.5999755859</ele>
        <time>2014-08-24T08:58:09.000Z</time>
      </trkpt>
      <trkpt lat="43.99972" lon="7.43028">
        <ele>2039.8000488281</ele>
        <time>2014-08-24T08:58:11.000Z</time>
      </trkpt>
      <trkpt lat="43.99973" lon="7.4303">
        <ele>2040</ele>
        <time>2014-08-24T08:58:13.000Z</time>
      </trkpt>
      <trkpt lat="43.99975" lon="7.43032">
        <ele>2040.4000244141</ele>
        <time>2014-08-24T08:58:16.000Z</time>
      </trkpt>
      <trkpt lat="43.99976" lon="7.43033">
        <ele>2040.4000244141</ele>
        <time>2014-08-24T08:58:17.000Z</time>
      </trkpt>
      <trkpt lat="43.9998" lon="7.4304">
        <ele>2040.8000488281</ele>
        <time>2014-08-24T08:58:24.000Z</time>
      </trkpt>
      <trkpt lat="43.99985" lon="7.43051">
        <ele>2040</ele>
        <time>2014-08-24T08:58:33.000Z</time>
      </trkpt>
      <trkpt lat="43.9999" lon="7.43062">
        <ele>2039.5999755859</ele>
        <time>2014-08-24T08:58:43.000Z</time>
      </trkpt>
      <trkpt lat="43.99995" lon="7.43071">
        <ele>2039.4000244141</ele>
        <time>2014-08-24T08:58:52.000Z</time>
      </trkpt>
      <trkpt lat="44.00002" lon="7.43086">
        <ele>2039.4000244141</ele>
        <time>2014-08-24T08:59:04.000Z</time>
      </trkpt>
      <trkpt lat="44.00006" lon="7.43095">
        <ele>2040.5999755859</ele>
        <time>2014-08-24T08:59:12.000Z</time>
      </trkpt>
      <trkpt lat="44.00011" lon="7.43106">
        <ele>2041.8000488281</ele>
        <time>2014-08-24T08:59:21.000Z</time>
      </trkpt>
      <trkpt lat="44.00016" lon="7.43118">
        <ele>2043.4000244141</ele>
        <time>2014-08-24T08:59:31.000Z</time>
      </trkpt>
      <trkpt lat="44.00019" lon="7.43126">
        <ele>2044.4000244141</ele>
        <time>2014-08-24T08:59:39.000Z</time>
      </trkpt>
      <trkpt lat="44.00024" lon="7.43141">
        <ele>2045.1999511719</ele>
        <time>2014-08-24T08:59:51.000Z</time>
      </trkpt>
      <trkpt lat="44.00027" lon="7.4315">
        <ele>2044.8000488281</ele>
        <time>2014-08-24T09:00:00.000Z</time>
      </trkpt>
      <trkpt lat="44.00031" lon="7.43157">
        <ele>2044</ele>
        <time>2014-08-24T09:00:08.000Z</time>
      </trkpt>
      <trkpt lat="44.00032" lon="7.43157">
        <ele>2043.8000488281</ele>
        <time>2014-08-24T09:00:10.000Z</time>
      </trkpt>
      <trkpt lat="44.00035" lon="7.43157">
        <ele>2043.4000244141</ele>
        <time>2014-08-24T09:00:16.000Z</time>
      </trkpt>
      <trkpt lat="44.00035" lon="7.43159">
        <ele>2043.4000244141</ele>
        <time>2014-08-24T09:01:03.000Z</time>
      </trkpt>
      <trkpt lat="44.00033" lon="7.4316">
        <ele>2043.4000244141</ele>
        <time>2014-08-24T09:01:12.000Z</time>
      </trkpt>
      <trkpt lat="44.00032" lon="7.43161">
        <ele>2043.5999755859</ele>
        <time>2014-08-24T09:02:14.000Z</time>
      </trkpt>
      <trkpt lat="44.00036" lon="7.43171">
        <ele>2043.5999755859</ele>
        <time>2014-08-24T09:03:00.000Z</time>
      </trkpt>
      <trkpt lat="44.00034" lon="7.43178">
        <ele>2044.4000244141</ele>
        <time>2014-08-24T09:03:07.000Z</time>
      </trkpt>
      <trkpt lat="44.00033" lon="7.4318">
        <ele>2044.1999511719</ele>
        <time>2014-08-24T09:03:09.000Z</time>
      </trkpt>
      <trkpt lat="44.00035" lon="7.43191">
        <ele>2044.4000244141</ele>
        <time>2014-08-24T09:03:17.000Z</time>
      </trkpt>
      <trkpt lat="44.00035" lon="7.43192">
        <ele>2044.4000244141</ele>
        <time>2014-08-24T09:03:18.000Z</time>
      </trkpt>
      <trkpt lat="44.00035" lon="7.43203">
        <ele>2044.4000244141</ele>
        <time>2014-08-24T09:03:26.000Z</time>
      </trkpt>
      <trkpt lat="44.00034" lon="7.43216">
        <ele>2044.4000244141</ele>
        <time>2014-08-24T09:03:36.000Z</time>
      </trkpt>
      <trkpt lat="44.00037" lon="7.43231">
        <ele>2044.4000244141</ele>
        <time>2014-08-24T09:03:47.000Z</time>
      </trkpt>
      <trkpt lat="44.00037" lon="7.43242">
        <ele>2044.4000244141</ele>
        <time>2014-08-24T09:03:55.000Z</time>
      </trkpt>
      <trkpt lat="44.00038" lon="7.43252">
        <ele>2044.8000488281</ele>
        <time>2014-08-24T09:04:03.000Z</time>
      </trkpt>
      <trkpt lat="44.0004" lon="7.4326">
        <ele>2046.1999511719</ele>
        <time>2014-08-24T09:04:11.000Z</time>
      </trkpt>
      <trkpt lat="44.00043" lon="7.43268">
        <ele>2047.1999511719</ele>
        <time>2014-08-24T09:04:19.000Z</time>
      </trkpt>
      <trkpt lat="44.00046" lon="7.43277">
        <ele>2047.5999755859</ele>
        <time>2014-08-24T09:04:27.000Z</time>
      </trkpt>
      <trkpt lat="44.00049" lon="7.43282">
        <ele>2048</ele>
        <time>2014-08-24T09:04:34.000Z</time>
      </trkpt>
      <trkpt lat="44.00051" lon="7.43286">
        <ele>2048</ele>
        <time>2014-08-24T09:04:43.000Z</time>
      </trkpt>
      <trkpt lat="44.00054" lon="7.43293">
        <ele>2048.3999023438</ele>
        <time>2014-08-24T09:04:51.000Z</time>
      </trkpt>
      <trkpt lat="44.00056" lon="7.43302">
        <ele>2048.3999023438</ele>
        <time>2014-08-24T09:04:58.000Z</time>
      </trkpt>
      <trkpt lat="44.0006" lon="7.4331">
        <ele>2049</ele>
        <time>2014-08-24T09:05:06.000Z</time>
      </trkpt>
      <trkpt lat="44.00066" lon="7.43317">
        <ele>2050</ele>
        <time>2014-08-24T09:05:16.000Z</time>
      </trkpt>
      <trkpt lat="44.0007" lon="7.43324">
        <ele>2050.6000976562</ele>
        <time>2014-08-24T09:05:24.000Z</time>
      </trkpt>
      <trkpt lat="44.00071" lon="7.43326">
        <ele>2051</ele>
        <time>2014-08-24T09:05:26.000Z</time>
      </trkpt>
      <trkpt lat="44.00076" lon="7.43329">
        <ele>2051.8000488281</ele>
        <time>2014-08-24T09:05:31.000Z</time>
      </trkpt>
      <trkpt lat="44.00079" lon="7.43332">
        <ele>2052.3999023438</ele>
        <time>2014-08-24T09:05:36.000Z</time>
      </trkpt>
      <trkpt lat="44.00081" lon="7.43335">
        <ele>2052.1999511719</ele>
        <time>2014-08-24T09:05:38.000Z</time>
      </trkpt>
      <trkpt lat="44.00082" lon="7.43337">
        <ele>2052</ele>
        <time>2014-08-24T09:05:40.000Z</time>
      </trkpt>
      <trkpt lat="44.00084" lon="7.43343">
        <ele>2051</ele>
        <time>2014-08-24T09:05:46.000Z</time>
      </trkpt>
      <trkpt lat="44.00087" lon="7.43354">
        <ele>2049.3999023438</ele>
        <time>2014-08-24T09:05:56.000Z</time>
      </trkpt>
      <trkpt lat="44.0009" lon="7.43364">
        <ele>2048.1999511719</ele>
        <time>2014-08-24T09:06:06.000Z</time>
      </trkpt>
      <trkpt lat="44.00094" lon="7.43362">
        <ele>2049.1999511719</ele>
        <time>2014-08-24T09:06:13.000Z</time>
      </trkpt>
      <trkpt lat="44.00094" lon="7.43361">
        <ele>2049.3999023438</ele>
        <time>2014-08-24T09:06:21.000Z</time>
      </trkpt>
      <trkpt lat="44.00094" lon="7.43355">
        <ele>2050.8000488281</ele>
        <time>2014-08-24T09:06:33.000Z</time>
      </trkpt>
      <trkpt lat="44.00093" lon="7.43347">
        <ele>2052.3999023438</ele>
        <time>2014-08-24T09:06:42.000Z</time>
      </trkpt>
      <trkpt lat="44.00092" lon="7.43336">
        <ele>2054.3999023438</ele>
        <time>2014-08-24T09:06:52.000Z</time>
      </trkpt>
      <trkpt lat="44.0009" lon="7.43325">
        <ele>2055.1999511719</ele>
        <time>2014-08-24T09:07:02.000Z</time>
      </trkpt>
      <trkpt lat="44.00086" lon="7.43315">
        <ele>2054.6000976562</ele>
        <time>2014-08-24T09:07:11.000Z</time>
      </trkpt>
      <trkpt lat="44.00084" lon="7.4331">
        <ele>2054.6000976562</ele>
        <time>2014-08-24T09:07:16.000Z</time>
      </trkpt>
      <trkpt lat="44.00084" lon="7.43308">
        <ele>2054.6000976562</ele>
        <time>2014-08-24T09:07:19.000Z</time>
      </trkpt>
      <trkpt lat="44.00085" lon="7.43302">
        <ele>2053.8000488281</ele>
        <time>2014-08-24T09:07:26.000Z</time>
      </trkpt>
      <trkpt lat="44.00087" lon="7.43296">
        <ele>2053</ele>
        <time>2014-08-24T09:07:33.000Z</time>
      </trkpt>
      <trkpt lat="44.00089" lon="7.43294">
        <ele>2052.8000488281</ele>
        <time>2014-08-24T09:07:40.000Z</time>
      </trkpt>
      <trkpt lat="44.00087" lon="7.43295">
        <ele>2052.8000488281</ele>
        <time>2014-08-24T09:07:44.000Z</time>
      </trkpt>
      <trkpt lat="44.00086" lon="7.43295">
        <ele>2052.8000488281</ele>
        <time>2014-08-24T09:07:49.000Z</time>
      </trkpt>
      <trkpt lat="44.00088" lon="7.43294">
        <ele>2052.8000488281</ele>
        <time>2014-08-24T09:07:55.000Z</time>
      </trkpt>
      <trkpt lat="44.00095" lon="7.43297">
        <ele>2053.3999023438</ele>
        <time>2014-08-24T09:08:02.000Z</time>
      </trkpt>
      <trkpt lat="44.00095" lon="7.43297">
        <ele>2053.6000976562</ele>
        <time>2014-08-24T09:08:03.000Z</time>
      </trkpt>
      <trkpt lat="44.00098" lon="7.433">
        <ele>2054</ele>
        <time>2014-08-24T09:08:08.000Z</time>
      </trkpt>
      <trkpt lat="44.00099" lon="7.43303">
        <ele>2054.3999023438</ele>
        <time>2014-08-24T09:08:16.000Z</time>
      </trkpt>
      <trkpt lat="44.00102" lon="7.43303">
        <ele>2054.6000976562</ele>
        <time>2014-08-24T09:08:34.000Z</time>
      </trkpt>
      <trkpt lat="44.00101" lon="7.43305">
        <ele>2054.8000488281</ele>
        <time>2014-08-24T09:12:10.000Z</time>
      </trkpt>
      <trkpt lat="44.001" lon="7.43305">
        <ele>2054.8000488281</ele>
        <time>2014-08-24T09:12:16.000Z</time>
      </trkpt>
      <trkpt lat="44.00103" lon="7.43308">
        <ele>2055.3999023438</ele>
        <time>2014-08-24T09:13:15.000Z</time>
      </trkpt>
      <trkpt lat="44.00102" lon="7.43307">
        <ele>2055.1999511719</ele>
        <time>2014-08-24T09:13:20.000Z</time>
      </trkpt>
      <trkpt lat="44.001" lon="7.43306">
        <ele>2055</ele>
        <time>2014-08-24T09:13:27.000Z</time>
      </trkpt>
      <trkpt lat="44.00098" lon="7.43306">
        <ele>2054.8000488281</ele>
        <time>2014-08-24T09:13:33.000Z</time>
      </trkpt>
      <trkpt lat="44.00097" lon="7.43305">
        <ele>2054.6000976562</ele>
        <time>2014-08-24T09:13:42.000Z</time>
      </trkpt>
      <trkpt lat="44.00098" lon="7.43305">
        <ele>2054.8000488281</ele>
        <time>2014-08-24T09:13:59.000Z</time>
      </trkpt>
      <trkpt lat="44.00095" lon="7.43304">
        <ele>2054.6000976562</ele>
        <time>2014-08-24T09:14:22.000Z</time>
      </trkpt>
      <trkpt lat="44.001" lon="7.43304">
        <ele>2054.6000976562</ele>
        <time>2014-08-24T09:14:51.000Z</time>
      </trkpt>
      <trkpt lat="44.00101" lon="7.43299">
        <ele>2054</ele>
        <time>2014-08-24T09:15:37.000Z</time>
      </trkpt>
      <trkpt lat="44.00098" lon="7.43298">
        <ele>2053.8000488281</ele>
        <time>2014-08-24T09:16:58.000Z</time>
      </trkpt>
      <trkpt lat="44.00096" lon="7.43299">
        <ele>2053.8000488281</ele>
        <time>2014-08-24T09:18:07.000Z</time>
      </trkpt>
      <trkpt lat="44.00093" lon="7.43295">
        <ele>2053.1999511719</ele>
        <time>2014-08-24T09:19:40.000Z</time>
      </trkpt>
      <trkpt lat="44.00091" lon="7.43292">
        <ele>2052.6000976562</ele>
        <time>2014-08-24T09:19:44.000Z</time>
      </trkpt>
      <trkpt lat="44.00089" lon="7.4329">
        <ele>2052.1999511719</ele>
        <time>2014-08-24T09:19:51.000Z</time>
      </trkpt>
      <trkpt lat="44.00087" lon="7.43287">
        <ele>2051.6000976562</ele>
        <time>2014-08-24T09:19:56.000Z</time>
      </trkpt>
      <trkpt lat="44.00085" lon="7.43284">
        <ele>2051.1999511719</ele>
        <time>2014-08-24T09:20:02.000Z</time>
      </trkpt>
      <trkpt lat="44.00083" lon="7.43281">
        <ele>2050.6000976562</ele>
        <time>2014-08-24T09:20:08.000Z</time>
      </trkpt>
      <trkpt lat="44.0008" lon="7.43278">
        <ele>2050.1999511719</ele>
        <time>2014-08-24T09:20:15.000Z</time>
      </trkpt>
      <trkpt lat="44.00074" lon="7.43278">
        <ele>2050</ele>
        <time>2014-08-24T09:20:23.000Z</time>
      </trkpt>
      <trkpt lat="44.00071" lon="7.43275">
        <ele>2049.3999023438</ele>
        <time>2014-08-24T09:20:30.000Z</time>
      </trkpt>
      <trkpt lat="44.00067" lon="7.43272">
        <ele>2048.8000488281</ele>
        <time>2014-08-24T09:20:35.000Z</time>
      </trkpt>
      <trkpt lat="44.00065" lon="7.43268">
        <ele>2048.1999511719</ele>
        <time>2014-08-24T09:20:40.000Z</time>
      </trkpt>
      <trkpt lat="44.0006" lon="7.4327">
        <ele>2048.3999023438</ele>
        <time>2014-08-24T09:20:46.000Z</time>
      </trkpt>
      <trkpt lat="44.00056" lon="7.43268">
        <ele>2047.8000488281</ele>
        <time>2014-08-24T09:20:52.000Z</time>
      </trkpt>
      <trkpt lat="44.00056" lon="7.43265">
        <ele>2047.4000244141</ele>
        <time>2014-08-24T09:20:54.000Z</time>
      </trkpt>
      <trkpt lat="44.00052" lon="7.43262">
        <ele>2046.8000488281</ele>
        <time>2014-08-24T09:20:59.000Z</time>
      </trkpt>
      <trkpt lat="44.00049" lon="7.43262">
        <ele>2046.8000488281</ele>
        <time>2014-08-24T09:21:02.000Z</time>
      </trkpt>
      <trkpt lat="44.00047" lon="7.43261">
        <ele>2046.5999755859</ele>
        <time>2014-08-24T09:21:05.000Z</time>
      </trkpt>
      <trkpt lat="44.00045" lon="7.43261">
        <ele>2046.5999755859</ele>
        <time>2014-08-24T09:21:06.000Z</time>
      </trkpt>
      <trkpt lat="44.0004" lon="7.43263">
        <ele>2046.5999755859</ele>
        <time>2014-08-24T09:21:11.000Z</time>
      </trkpt>
      <trkpt lat="44.00038" lon="7.43265">
        <ele>2046</ele>
        <time>2014-08-24T09:21:14.000Z</time>
      </trkpt>
      <trkpt lat="44.00037" lon="7.43269">
        <ele>2045.8000488281</ele>
        <time>2014-08-24T09:21:18.000Z</time>
      </trkpt>
      <trkpt lat="44.00034" lon="7.43274">
        <ele>2044.8000488281</ele>
        <time>2014-08-24T09:21:25.000Z</time>
      </trkpt>
      <trkpt lat="44.00036" lon="7.43278">
        <ele>2045.1999511719</ele>
        <time>2014-08-24T09:21:30.000Z</time>
      </trkpt>
      <trkpt lat="44.00041" lon="7.43284">
        <ele>2046</ele>
        <time>2014-08-24T09:21:37.000Z</time>
      </trkpt>
      <trkpt lat="44.00041" lon="7.43289">
        <ele>2045.5999755859</ele>
        <time>2014-08-24T09:21:42.000Z</time>
      </trkpt>
      <trkpt lat="44.00042" lon="7.43294">
        <ele>2045.5999755859</ele>
        <time>2014-08-24T09:21:47.000Z</time>
      </trkpt>
      <trkpt lat="44.00042" lon="7.43301">
        <ele>2045.4000244141</ele>
        <time>2014-08-24T09:21:54.000Z</time>
      </trkpt>
      <trkpt lat="44.0004" lon="7.43309">
        <ele>2044.5999755859</ele>
        <time>2014-08-24T09:22:01.000Z</time>
      </trkpt>
      <trkpt lat="44.00039" lon="7.43313">
        <ele>2044.1999511719</ele>
        <time>2014-08-24T09:22:05.000Z</time>
      </trkpt>
      <trkpt lat="44.00039" lon="7.43316">
        <ele>2044</ele>
        <time>2014-08-24T09:22:08.000Z</time>
      </trkpt>
      <trkpt lat="44.00039" lon="7.43322">
        <ele>2043.5999755859</ele>
        <time>2014-08-24T09:22:15.000Z</time>
      </trkpt>
      <trkpt lat="44.00039" lon="7.43328">
        <ele>2043.4000244141</ele>
        <time>2014-08-24T09:22:25.000Z</time>
      </trkpt>
      <trkpt lat="44.00038" lon="7.43336">
        <ele>2042.1999511719</ele>
        <time>2014-08-24T09:22:32.000Z</time>
      </trkpt>
      <trkpt lat="44.00036" lon="7.43338">
        <ele>2041.4000244141</ele>
        <time>2014-08-24T09:22:34.000Z</time>
      </trkpt>
      <trkpt lat="44.00036" lon="7.43343">
        <ele>2040.4000244141</ele>
        <time>2014-08-24T09:22:38.000Z</time>
      </trkpt>
      <trkpt lat="44.00035" lon="7.43343">
        <ele>2039.8000488281</ele>
        <time>2014-08-24T09:22:39.000Z</time>
      </trkpt>
      <trkpt lat="44.00035" lon="7.43351">
        <ele>2037.5999755859</ele>
        <time>2014-08-24T09:22:46.000Z</time>
      </trkpt>
      <trkpt lat="44.00036" lon="7.43358">
        <ele>2035.1999511719</ele>
        <time>2014-08-24T09:22:54.000Z</time>
      </trkpt>
      <trkpt lat="44.00035" lon="7.43365">
        <ele>2032.4000244141</ele>
        <time>2014-08-24T09:23:00.000Z</time>
      </trkpt>
      <trkpt lat="44.00033" lon="7.43374">
        <ele>2029.1999511719</ele>
        <time>2014-08-24T09:23:09.000Z</time>
      </trkpt>
      <trkpt lat="44.00032" lon="7.43384">
        <ele>2025.5999755859</ele>
        <time>2014-08-24T09:23:18.000Z</time>
      </trkpt>
      <trkpt lat="44.00032" lon="7.43394">
        <ele>2022.4000244141</ele>
        <time>2014-08-24T09:23:26.000Z</time>
      </trkpt>
      <trkpt lat="44.00031" lon="7.43402">
        <ele>2019.5999755859</ele>
        <time>2014-08-24T09:23:33.000Z</time>
      </trkpt>
      <trkpt lat="44.0003" lon="7.43405">
        <ele>2017.8000488281</ele>
        <time>2014-08-24T09:23:37.000Z</time>
      </trkpt>
      <trkpt lat="44.00029" lon="7.43408">
        <ele>2016.8000488281</ele>
        <time>2014-08-24T09:23:40.000Z</time>
      </trkpt>
      <trkpt lat="44.0003" lon="7.43412">
        <ele>2015.5999755859</ele>
        <time>2014-08-24T09:23:45.000Z</time>
      </trkpt>
      <trkpt lat="44.0003" lon="7.4342">
        <ele>2013.5999755859</ele>
        <time>2014-08-24T09:23:53.000Z</time>
      </trkpt>
      <trkpt lat="44.0003" lon="7.43427">
        <ele>2012.1999511719</ele>
        <time>2014-08-24T09:24:00.000Z</time>
      </trkpt>
      <trkpt lat="44.00031" lon="7.43435">
        <ele>2010.8000488281</ele>
        <time>2014-08-24T09:24:08.000Z</time>
      </trkpt>
      <trkpt lat="44.00032" lon="7.43442">
        <ele>2009.4000244141</ele>
        <time>2014-08-24T09:24:16.000Z</time>
      </trkpt>
      <trkpt lat="44.00031" lon="7.4345">
        <ele>2007.8000488281</ele>
        <time>2014-08-24T09:24:24.000Z</time>
      </trkpt>
      <trkpt lat="44.0003" lon="7.43457">
        <ele>2005.5999755859</ele>
        <time>2014-08-24T09:24:31.000Z</time>
      </trkpt>
      <trkpt lat="44.00029" lon="7.43466">
        <ele>2003.5999755859</ele>
        <time>2014-08-24T09:24:38.000Z</time>
      </trkpt>
      <trkpt lat="44.00029" lon="7.43472">
        <ele>2002.1999511719</ele>
        <time>2014-08-24T09:24:45.000Z</time>
      </trkpt>
      <trkpt lat="44.00028" lon="7.43478">
        <ele>2000.5999755859</ele>
        <time>2014-08-24T09:24:52.000Z</time>
      </trkpt>
      <trkpt lat="44.00028" lon="7.43483">
        <ele>1999.1999511719</ele>
        <time>2014-08-24T09:24:58.000Z</time>
      </trkpt>
      <trkpt lat="44.00028" lon="7.43484">
        <ele>1999</ele>
        <time>2014-08-24T09:25:03.000Z</time>
      </trkpt>
      <trkpt lat="44.00032" lon="7.4349">
        <ele>1999.4000244141</ele>
        <time>2014-08-24T09:25:29.000Z</time>
      </trkpt>
      <trkpt lat="44.00031" lon="7.43491">
        <ele>1998.8000488281</ele>
        <time>2014-08-24T09:25:31.000Z</time>
      </trkpt>
      <trkpt lat="44.0003" lon="7.43494">
        <ele>1998</ele>
        <time>2014-08-24T09:25:35.000Z</time>
      </trkpt>
      <trkpt lat="44.00029" lon="7.43498">
        <ele>1996.5999755859</ele>
        <time>2014-08-24T09:25:42.000Z</time>
      </trkpt>
      <trkpt lat="44.0003" lon="7.43505">
        <ele>1995.1999511719</ele>
        <time>2014-08-24T09:25:50.000Z</time>
      </trkpt>
      <trkpt lat="44.00029" lon="7.43513">
        <ele>1994</ele>
        <time>2014-08-24T09:25:57.000Z</time>
      </trkpt>
      <trkpt lat="44.00028" lon="7.43515">
        <ele>1993.5999755859</ele>
        <time>2014-08-24T09:26:02.000Z</time>
      </trkpt>
      <trkpt lat="44.00025" lon="7.43523">
        <ele>1992</ele>
        <time>2014-08-24T09:26:21.000Z</time>
      </trkpt>
      <trkpt lat="44.00027" lon="7.4353">
        <ele>1991.4000244141</ele>
        <time>2014-08-24T09:26:28.000Z</time>
      </trkpt>
      <trkpt lat="44.00027" lon="7.43537">
        <ele>1990.4000244141</ele>
        <time>2014-08-24T09:26:34.000Z</time>
      </trkpt>
      <trkpt lat="44.00026" lon="7.43545">
        <ele>1989.1999511719</ele>
        <time>2014-08-24T09:26:41.000Z</time>
      </trkpt>
      <trkpt lat="44.00027" lon="7.43552">
        <ele>1988.4000244141</ele>
        <time>2014-08-24T09:26:49.000Z</time>
      </trkpt>
      <trkpt lat="44.00026" lon="7.43559">
        <ele>1987.4000244141</ele>
        <time>2014-08-24T09:26:55.000Z</time>
      </trkpt>
      <trkpt lat="44.00025" lon="7.43567">
        <ele>1986</ele>
        <time>2014-08-24T09:27:03.000Z</time>
      </trkpt>
      <trkpt lat="44.00026" lon="7.43572">
        <ele>1985.5999755859</ele>
        <time>2014-08-24T09:27:07.000Z</time>
      </trkpt>
      <trkpt lat="44.00026" lon="7.43576">
        <ele>1985</ele>
        <time>2014-08-24T09:27:11.000Z</time>
      </trkpt>
      <trkpt lat="44.00027" lon="7.43582">
        <ele>1984.4000244141</ele>
        <time>2014-08-24T09:27:16.000Z</time>
      </trkpt>
      <trkpt lat="44.00027" lon="7.43583">
        <ele>1984</ele>
        <time>2014-08-24T09:27:17.000Z</time>
      </trkpt>
      <trkpt lat="44.00028" lon="7.43588">
        <ele>1983.1999511719</ele>
        <time>2014-08-24T09:27:20.000Z</time>
      </trkpt>
      <trkpt lat="44.00028" lon="7.43591">
        <ele>1982.8000488281</ele>
        <time>2014-08-24T09:27:23.000Z</time>
      </trkpt>
      <trkpt lat="44.00027" lon="7.43596">
        <ele>1982.4000244141</ele>
        <time>2014-08-24T09:27:30.000Z</time>
      </trkpt>
      <trkpt lat="44.00026" lon="7.43602">
        <ele>1981.8000488281</ele>
        <time>2014-08-24T09:27:36.000Z</time>
      </trkpt>
      <trkpt lat="44.00027" lon="7.43606">
        <ele>1981.1999511719</ele>
        <time>2014-08-24T09:27:41.000Z</time>
      </trkpt>
      <trkpt lat="44.00025" lon="7.43611">
        <ele>1981</ele>
        <time>2014-08-24T09:27:45.000Z</time>
      </trkpt>
      <trkpt lat="44.00024" lon="7.43614">
        <ele>1980.1999511719</ele>
        <time>2014-08-24T09:27:48.000Z</time>
      </trkpt>
      <trkpt lat="44.00022" lon="7.4362">
        <ele>1978.4000244141</ele>
        <time>2014-08-24T09:27:53.000Z</time>
      </trkpt>
      <trkpt lat="44.00021" lon="7.43622">
        <ele>1978</ele>
        <time>2014-08-24T09:27:55.000Z</time>
      </trkpt>
      <trkpt lat="44.0002" lon="7.43631">
        <ele>1976.5999755859</ele>
        <time>2014-08-24T09:28:01.000Z</time>
      </trkpt>
      <trkpt lat="44.0002" lon="7.43632">
        <ele>1976.4000244141</ele>
        <time>2014-08-24T09:28:02.000Z</time>
      </trkpt>
      <trkpt lat="44.00018" lon="7.43638">
        <ele>1975</ele>
        <time>2014-08-24T09:28:08.000Z</time>
      </trkpt>
      <trkpt lat="44.00017" lon="7.4364">
        <ele>1974.1999511719</ele>
        <time>2014-08-24T09:28:10.000Z</time>
      </trkpt>
      <trkpt lat="44.00013" lon="7.43649">
        <ele>1971.5999755859</ele>
        <time>2014-08-24T09:28:18.000Z</time>
      </trkpt>
      <trkpt lat="44.00011" lon="7.43655">
        <ele>1969.8000488281</ele>
        <time>2014-08-24T09:28:24.000Z</time>
      </trkpt>
      <trkpt lat="44.00007" lon="7.4366">
        <ele>1967.8000488281</ele>
        <time>2014-08-24T09:28:31.000Z</time>
      </trkpt>
      <trkpt lat="44.00007" lon="7.43661">
        <ele>1967.4000244141</ele>
        <time>2014-08-24T09:28:32.000Z</time>
      </trkpt>
      <trkpt lat="44.00001" lon="7.43665">
        <ele>1964.8000488281</ele>
        <time>2014-08-24T09:28:38.000Z</time>
      </trkpt>
      <trkpt lat="43.99997" lon="7.4367">
        <ele>1962</ele>
        <time>2014-08-24T09:28:44.000Z</time>
      </trkpt>
      <trkpt lat="43.99996" lon="7.43671">
        <ele>1961.1999511719</ele>
        <time>2014-08-24T09:28:46.000Z</time>
      </trkpt>
      <trkpt lat="43.99991" lon="7.43679">
        <ele>1957.8000488281</ele>
        <time>2014-08-24T09:28:54.000Z</time>
      </trkpt>
      <trkpt lat="43.99988" lon="7.43684">
        <ele>1955.8000488281</ele>
        <time>2014-08-24T09:29:00.000Z</time>
      </trkpt>
      <trkpt lat="43.99985" lon="7.43692">
        <ele>1952.8000488281</ele>
        <time>2014-08-24T09:29:08.000Z</time>
      </trkpt>
      <trkpt lat="43.9998" lon="7.43701">
        <ele>1949.4000244141</ele>
        <time>2014-08-24T09:29:16.000Z</time>
      </trkpt>
      <trkpt lat="43.9998" lon="7.43702">
        <ele>1949</ele>
        <time>2014-08-24T09:29:17.000Z</time>
      </trkpt>
      <trkpt lat="43.99978" lon="7.43707">
        <ele>1948</ele>
        <time>2014-08-24T09:29:22.000Z</time>
      </trkpt>
      <trkpt lat="43.99976" lon="7.43713">
        <ele>1947.5999755859</ele>
        <time>2014-08-24T09:29:29.000Z</time>
      </trkpt>
      <trkpt lat="43.99973" lon="7.43721">
        <ele>1946.5999755859</ele>
        <time>2014-08-24T09:29:36.000Z</time>
      </trkpt>
      <trkpt lat="43.9997" lon="7.43727">
        <ele>1945.8000488281</ele>
        <time>2014-08-24T09:29:42.000Z</time>
      </trkpt>
      <trkpt lat="43.99967" lon="7.43737">
        <ele>1944.8000488281</ele>
        <time>2014-08-24T09:29:50.000Z</time>
      </trkpt>
      <trkpt lat="43.99962" lon="7.4374">
        <ele>1943.4000244141</ele>
        <time>2014-08-24T09:29:55.000Z</time>
      </trkpt>
      <trkpt lat="43.9996" lon="7.43741">
        <ele>1943</ele>
        <time>2014-08-24T09:29:57.000Z</time>
      </trkpt>
      <trkpt lat="43.9996" lon="7.43744">
        <ele>1943</ele>
        <time>2014-08-24T09:30:00.000Z</time>
      </trkpt>
      <trkpt lat="43.99961" lon="7.43747">
        <ele>1943.1999511719</ele>
        <time>2014-08-24T09:30:04.000Z</time>
      </trkpt>
      <trkpt lat="43.9996" lon="7.43748">
        <ele>1942.8000488281</ele>
        <time>2014-08-24T09:30:13.000Z</time>
      </trkpt>
      <trkpt lat="43.99958" lon="7.43749">
        <ele>1942.4000244141</ele>
        <time>2014-08-24T09:30:46.000Z</time>
      </trkpt>
      <trkpt lat="43.99953" lon="7.43755">
        <ele>1939.5999755859</ele>
        <time>2014-08-24T09:30:54.000Z</time>
      </trkpt>
      <trkpt lat="43.99949" lon="7.43761">
        <ele>1938</ele>
        <time>2014-08-24T09:31:01.000Z</time>
      </trkpt>
      <trkpt lat="43.99949" lon="7.43762">
        <ele>1937.8000488281</ele>
        <time>2014-08-24T09:31:02.000Z</time>
      </trkpt>
      <trkpt lat="43.99946" lon="7.43767">
        <ele>1937.4000244141</ele>
        <time>2014-08-24T09:31:08.000Z</time>
      </trkpt>
      <trkpt lat="43.99943" lon="7.43775">
        <ele>1936.8000488281</ele>
        <time>2014-08-24T09:31:16.000Z</time>
      </trkpt>
      <trkpt lat="43.99939" lon="7.43783">
        <ele>1935.4000244141</ele>
        <time>2014-08-24T09:31:24.000Z</time>
      </trkpt>
      <trkpt lat="43.99938" lon="7.43791">
        <ele>1934.4000244141</ele>
        <time>2014-08-24T09:31:34.000Z</time>
      </trkpt>
      <trkpt lat="43.99937" lon="7.43796">
        <ele>1933.8000488281</ele>
        <time>2014-08-24T09:31:39.000Z</time>
      </trkpt>
      <trkpt lat="43.99934" lon="7.43804">
        <ele>1932.5999755859</ele>
        <time>2014-08-24T09:31:48.000Z</time>
      </trkpt>
      <trkpt lat="43.99931" lon="7.4381">
        <ele>1931.1999511719</ele>
        <time>2014-08-24T09:31:56.000Z</time>
      </trkpt>
      <trkpt lat="43.99929" lon="7.43814">
        <ele>1930.1999511719</ele>
        <time>2014-08-24T09:32:04.000Z</time>
      </trkpt>
      <trkpt lat="43.99929" lon="7.43823">
        <ele>1929.8000488281</ele>
        <time>2014-08-24T09:32:13.000Z</time>
      </trkpt>
      <trkpt lat="43.99927" lon="7.43832">
        <ele>1929.8000488281</ele>
        <time>2014-08-24T09:32:22.000Z</time>
      </trkpt>
      <trkpt lat="43.99925" lon="7.43838">
        <ele>1928.4000244141</ele>
        <time>2014-08-24T09:32:29.000Z</time>
      </trkpt>
      <trkpt lat="43.99924" lon="7.43841">
        <ele>1927.5999755859</ele>
        <time>2014-08-24T09:32:32.000Z</time>
      </trkpt>
      <trkpt lat="43.9992" lon="7.43843">
        <ele>1926.1999511719</ele>
        <time>2014-08-24T09:32:35.000Z</time>
      </trkpt>
      <trkpt lat="43.99918" lon="7.43849">
        <ele>1924.8000488281</ele>
        <time>2014-08-24T09:32:42.000Z</time>
      </trkpt>
      <trkpt lat="43.99918" lon="7.43851">
        <ele>1924.5999755859</ele>
        <time>2014-08-24T09:32:44.000Z</time>
      </trkpt>
      <trkpt lat="43.99917" lon="7.43854">
        <ele>1923.8000488281</ele>
        <time>2014-08-24T09:32:49.000Z</time>
      </trkpt>
      <trkpt lat="43.99914" lon="7.43859">
        <ele>1922</ele>
        <time>2014-08-24T09:32:56.000Z</time>
      </trkpt>
      <trkpt lat="43.99912" lon="7.43866">
        <ele>1920.5999755859</ele>
        <time>2014-08-24T09:33:03.000Z</time>
      </trkpt>
      <trkpt lat="43.99911" lon="7.43867">
        <ele>1920.1999511719</ele>
        <time>2014-08-24T09:33:10.000Z</time>
      </trkpt>
      <trkpt lat="43.99909" lon="7.43873">
        <ele>1918.8000488281</ele>
        <time>2014-08-24T09:33:15.000Z</time>
      </trkpt>
      <trkpt lat="43.99904" lon="7.43884">
        <ele>1917.1999511719</ele>
        <time>2014-08-24T09:33:24.000Z</time>
      </trkpt>
      <trkpt lat="43.99902" lon="7.43891">
        <ele>1918.1999511719</ele>
        <time>2014-08-24T09:33:32.000Z</time>
      </trkpt>
      <trkpt lat="43.999" lon="7.43896">
        <ele>1918.5999755859</ele>
        <time>2014-08-24T09:33:38.000Z</time>
      </trkpt>
      <trkpt lat="43.999" lon="7.43904">
        <ele>1919.5999755859</ele>
        <time>2014-08-24T09:33:45.000Z</time>
      </trkpt>
      <trkpt lat="43.999" lon="7.43908">
        <ele>1920</ele>
        <time>2014-08-24T09:33:48.000Z</time>
      </trkpt>
      <trkpt lat="43.99898" lon="7.43912">
        <ele>1920.5999755859</ele>
        <time>2014-08-24T09:33:52.000Z</time>
      </trkpt>
      <trkpt lat="43.99894" lon="7.4392">
        <ele>1920.1999511719</ele>
        <time>2014-08-24T09:34:00.000Z</time>
      </trkpt>
      <trkpt lat="43.99892" lon="7.43929">
        <ele>1919</ele>
        <time>2014-08-24T09:34:09.000Z</time>
      </trkpt>
      <trkpt lat="43.99889" lon="7.43937">
        <ele>1917.8000488281</ele>
        <time>2014-08-24T09:34:17.000Z</time>
      </trkpt>
      <trkpt lat="43.99885" lon="7.43944">
        <ele>1917</ele>
        <time>2014-08-24T09:34:25.000Z</time>
      </trkpt>
      <trkpt lat="43.99884" lon="7.43946">
        <ele>1917.4000244141</ele>
        <time>2014-08-24T09:34:27.000Z</time>
      </trkpt>
      <trkpt lat="43.99883" lon="7.43949">
        <ele>1918</ele>
        <time>2014-08-24T09:34:31.000Z</time>
      </trkpt>
      <trkpt lat="43.9988" lon="7.43954">
        <ele>1919.4000244141</ele>
        <time>2014-08-24T09:34:39.000Z</time>
      </trkpt>
      <trkpt lat="43.99879" lon="7.43959">
        <ele>1920.1999511719</ele>
        <time>2014-08-24T09:34:45.000Z</time>
      </trkpt>
      <trkpt lat="43.99876" lon="7.43969">
        <ele>1922</ele>
        <time>2014-08-24T09:34:55.000Z</time>
      </trkpt>
      <trkpt lat="43.99874" lon="7.43972">
        <ele>1923</ele>
        <time>2014-08-24T09:35:03.000Z</time>
      </trkpt>
      <trkpt lat="43.99874" lon="7.43975">
        <ele>1923.4000244141</ele>
        <time>2014-08-24T09:35:10.000Z</time>
      </trkpt>
      <trkpt lat="43.99873" lon="7.43979">
        <ele>1924</ele>
        <time>2014-08-24T09:35:16.000Z</time>
      </trkpt>
      <trkpt lat="43.99874" lon="7.43982">
        <ele>1924.1999511719</ele>
        <time>2014-08-24T09:35:21.000Z</time>
      </trkpt>
      <trkpt lat="43.99874" lon="7.43985">
        <ele>1924.5999755859</ele>
        <time>2014-08-24T09:35:25.000Z</time>
      </trkpt>
      <trkpt lat="43.99873" lon="7.43986">
        <ele>1924.8000488281</ele>
        <time>2014-08-24T09:35:27.000Z</time>
      </trkpt>
      <trkpt lat="43.99872" lon="7.4399">
        <ele>1925.8000488281</ele>
        <time>2014-08-24T09:35:34.000Z</time>
      </trkpt>
      <trkpt lat="43.99871" lon="7.43997">
        <ele>1926.5999755859</ele>
        <time>2014-08-24T09:35:41.000Z</time>
      </trkpt>
      <trkpt lat="43.99866" lon="7.44001">
        <ele>1927.8000488281</ele>
        <time>2014-08-24T09:35:49.000Z</time>
      </trkpt>
      <trkpt lat="43.99865" lon="7.44006">
        <ele>1927.1999511719</ele>
        <time>2014-08-24T09:35:56.000Z</time>
      </trkpt>
      <trkpt lat="43.99861" lon="7.4401">
        <ele>1928.5999755859</ele>
        <time>2014-08-24T09:36:03.000Z</time>
      </trkpt>
      <trkpt lat="43.99859" lon="7.44008">
        <ele>1929.4000244141</ele>
        <time>2014-08-24T09:36:09.000Z</time>
      </trkpt>
      <trkpt lat="43.99861" lon="7.44008">
        <ele>1928.5999755859</ele>
        <time>2014-08-24T09:37:27.000Z</time>
      </trkpt>
      <trkpt lat="43.99862" lon="7.44005">
        <ele>1928.4000244141</ele>
        <time>2014-08-24T09:37:37.000Z</time>
      </trkpt>
      <trkpt lat="43.99863" lon="7.44012">
        <ele>1928</ele>
        <time>2014-08-24T09:38:04.000Z</time>
      </trkpt>
      <trkpt lat="43.99862" lon="7.44014">
        <ele>1928.4000244141</ele>
        <time>2014-08-24T09:38:11.000Z</time>
      </trkpt>
      <trkpt lat="43.9986" lon="7.44013">
        <ele>1929.1999511719</ele>
        <time>2014-08-24T09:38:19.000Z</time>
      </trkpt>
      <trkpt lat="43.99856" lon="7.44016">
        <ele>1929.1999511719</ele>
        <time>2014-08-24T09:38:27.000Z</time>
      </trkpt>
      <trkpt lat="43.99849" lon="7.44025">
        <ele>1927.5999755859</ele>
        <time>2014-08-24T09:38:38.000Z</time>
      </trkpt>
      <trkpt lat="43.99846" lon="7.44034">
        <ele>1927</ele>
        <time>2014-08-24T09:38:46.000Z</time>
      </trkpt>
      <trkpt lat="43.99842" lon="7.44041">
        <ele>1926</ele>
        <time>2014-08-24T09:38:53.000Z</time>
      </trkpt>
      <trkpt lat="43.99841" lon="7.44045">
        <ele>1925.5999755859</ele>
        <time>2014-08-24T09:38:57.000Z</time>
      </trkpt>
      <trkpt lat="43.99841" lon="7.44047">
        <ele>1925.5999755859</ele>
        <time>2014-08-24T09:38:59.000Z</time>
      </trkpt>
      <trkpt lat="43.99842" lon="7.44051">
        <ele>1926</ele>
        <time>2014-08-24T09:39:03.000Z</time>
      </trkpt>
      <trkpt lat="43.99843" lon="7.44052">
        <ele>1926</ele>
        <time>2014-08-24T09:39:04.000Z</time>
      </trkpt>
      <trkpt lat="43.99842" lon="7.44057">
        <ele>1925.8000488281</ele>
        <time>2014-08-24T09:39:08.000Z</time>
      </trkpt>
      <trkpt lat="43.99841" lon="7.44059">
        <ele>1925.5999755859</ele>
        <time>2014-08-24T09:39:14.000Z</time>
      </trkpt>
      <trkpt lat="43.99839" lon="7.44062">
        <ele>1925</ele>
        <time>2014-08-24T09:39:20.000Z</time>
      </trkpt>
      <trkpt lat="43.99836" lon="7.44062">
        <ele>1924.8000488281</ele>
        <time>2014-08-24T09:39:28.000Z</time>
      </trkpt>
      <trkpt lat="43.99836" lon="7.44068">
        <ele>1925.4000244141</ele>
        <time>2014-08-24T09:39:37.000Z</time>
      </trkpt>
      <trkpt lat="43.99831" lon="7.44069">
        <ele>1925</ele>
        <time>2014-08-24T09:39:43.000Z</time>
      </trkpt>
      <trkpt lat="43.99829" lon="7.44065">
        <ele>1924.4000244141</ele>
        <time>2014-08-24T09:39:49.000Z</time>
      </trkpt>
      <trkpt lat="43.99824" lon="7.44066">
        <ele>1924.1999511719</ele>
        <time>2014-08-24T09:39:57.000Z</time>
      </trkpt>
      <trkpt lat="43.9982" lon="7.44068">
        <ele>1924</ele>
        <time>2014-08-24T09:40:03.000Z</time>
      </trkpt>
      <trkpt lat="43.99817" lon="7.4407">
        <ele>1924.1999511719</ele>
        <time>2014-08-24T09:40:09.000Z</time>
      </trkpt>
      <trkpt lat="43.99812" lon="7.44072">
        <ele>1923.8000488281</ele>
        <time>2014-08-24T09:40:14.000Z</time>
      </trkpt>
      <trkpt lat="43.9981" lon="7.44074">
        <ele>1924</ele>
        <time>2014-08-24T09:40:17.000Z</time>
      </trkpt>
      <trkpt lat="43.99806" lon="7.44076">
        <ele>1923.8000488281</ele>
        <time>2014-08-24T09:40:21.000Z</time>
      </trkpt>
      <trkpt lat="43.99803" lon="7.44078">
        <ele>1923.8000488281</ele>
        <time>2014-08-24T09:40:25.000Z</time>
      </trkpt>
      <trkpt lat="43.99797" lon="7.44079">
        <ele>1923.4000244141</ele>
        <time>2014-08-24T09:40:34.000Z</time>
      </trkpt>
      <trkpt lat="43.99792" lon="7.44082">
        <ele>1923.4000244141</ele>
        <time>2014-08-24T09:40:41.000Z</time>
      </trkpt>
      <trkpt lat="43.99788" lon="7.44083">
        <ele>1923</ele>
        <time>2014-08-24T09:40:47.000Z</time>
      </trkpt>
      <trkpt lat="43.99785" lon="7.44084">
        <ele>1922.5999755859</ele>
        <time>2014-08-24T09:40:54.000Z</time>
      </trkpt>
      <trkpt lat="43.99782" lon="7.44085">
        <ele>1922.1999511719</ele>
        <time>2014-08-24T09:41:03.000Z</time>
      </trkpt>
      <trkpt lat="43.99776" lon="7.44085">
        <ele>1921.8000488281</ele>
        <time>2014-08-24T09:41:10.000Z</time>
      </trkpt>
      <trkpt lat="43.99774" lon="7.44085">
        <ele>1921.5999755859</ele>
        <time>2014-08-24T09:41:19.000Z</time>
      </trkpt>
      <trkpt lat="43.99771" lon="7.44086">
        <ele>1920.4000244141</ele>
        <time>2014-08-24T09:41:25.000Z</time>
      </trkpt>
      <trkpt lat="43.99767" lon="7.44087">
        <ele>1918.5999755859</ele>
        <time>2014-08-24T09:41:33.000Z</time>
      </trkpt>
      <trkpt lat="43.99764" lon="7.44091">
        <ele>1917.1999511719</ele>
        <time>2014-08-24T09:41:41.000Z</time>
      </trkpt>
      <trkpt lat="43.99762" lon="7.44093">
        <ele>1916.1999511719</ele>
        <time>2014-08-24T09:41:47.000Z</time>
      </trkpt>
      <trkpt lat="43.99761" lon="7.44097">
        <ele>1915.5999755859</ele>
        <time>2014-08-24T09:41:53.000Z</time>
      </trkpt>
      <trkpt lat="43.99762" lon="7.44101">
        <ele>1916</ele>
        <time>2014-08-24T09:42:00.000Z</time>
      </trkpt>
      <trkpt lat="43.99764" lon="7.44102">
        <ele>1916.5999755859</ele>
        <time>2014-08-24T09:42:09.000Z</time>
      </trkpt>
      <trkpt lat="43.99764" lon="7.44109">
        <ele>1916.4000244141</ele>
        <time>2014-08-24T09:42:15.000Z</time>
      </trkpt>
      <trkpt lat="43.99763" lon="7.44112">
        <ele>1915.8000488281</ele>
        <time>2014-08-24T09:42:22.000Z</time>
      </trkpt>
      <trkpt lat="43.99763" lon="7.44116">
        <ele>1915.5999755859</ele>
        <time>2014-08-24T09:42:29.000Z</time>
      </trkpt>
      <trkpt lat="43.99759" lon="7.44117">
        <ele>1913.8000488281</ele>
        <time>2014-08-24T09:42:36.000Z</time>
      </trkpt>
      <trkpt lat="43.99758" lon="7.44115">
        <ele>1913.5999755859</ele>
        <time>2014-08-24T09:42:43.000Z</time>
      </trkpt>
      <trkpt lat="43.99757" lon="7.44119">
        <ele>1913</ele>
        <time>2014-08-24T09:42:46.000Z</time>
      </trkpt>
      <trkpt lat="43.99755" lon="7.4412">
        <ele>1912.1999511719</ele>
        <time>2014-08-24T09:42:48.000Z</time>
      </trkpt>
      <trkpt lat="43.99752" lon="7.44122">
        <ele>1910.8000488281</ele>
        <time>2014-08-24T09:42:52.000Z</time>
      </trkpt>
      <trkpt lat="43.99749" lon="7.44124">
        <ele>1909.5999755859</ele>
        <time>2014-08-24T09:42:55.000Z</time>
      </trkpt>
      <trkpt lat="43.99746" lon="7.44126">
        <ele>1908.1999511719</ele>
        <time>2014-08-24T09:42:59.000Z</time>
      </trkpt>
      <trkpt lat="43.99743" lon="7.44128">
        <ele>1906.8000488281</ele>
        <time>2014-08-24T09:43:03.000Z</time>
      </trkpt>
      <trkpt lat="43.99743" lon="7.44129">
        <ele>1906.5999755859</ele>
        <time>2014-08-24T09:43:04.000Z</time>
      </trkpt>
      <trkpt lat="43.99739" lon="7.44135">
        <ele>1905.4000244141</ele>
        <time>2014-08-24T09:43:11.000Z</time>
      </trkpt>
      <trkpt lat="43.99737" lon="7.4414">
        <ele>1905</ele>
        <time>2014-08-24T09:43:18.000Z</time>
      </trkpt>
      <trkpt lat="43.99738" lon="7.44144">
        <ele>1905.5999755859</ele>
        <time>2014-08-24T09:43:23.000Z</time>
      </trkpt>
      <trkpt lat="43.99736" lon="7.4415">
        <ele>1905.4000244141</ele>
        <time>2014-08-24T09:43:29.000Z</time>
      </trkpt>
      <trkpt lat="43.99741" lon="7.44151">
        <ele>1907</ele>
        <time>2014-08-24T09:43:35.000Z</time>
      </trkpt>
      <trkpt lat="43.99745" lon="7.44156">
        <ele>1908.4000244141</ele>
        <time>2014-08-24T09:43:41.000Z</time>
      </trkpt>
      <trkpt lat="43.99746" lon="7.44156">
        <ele>1908.8000488281</ele>
        <time>2014-08-24T09:43:42.000Z</time>
      </trkpt>
      <trkpt lat="43.99751" lon="7.44158">
        <ele>1910.4000244141</ele>
        <time>2014-08-24T09:43:50.000Z</time>
      </trkpt>
      <trkpt lat="43.99757" lon="7.44163">
        <ele>1912.4000244141</ele>
        <time>2014-08-24T09:43:57.000Z</time>
      </trkpt>
      <trkpt lat="43.99762" lon="7.44165">
        <ele>1914</ele>
        <time>2014-08-24T09:44:03.000Z</time>
      </trkpt>
      <trkpt lat="43.99764" lon="7.44166">
        <ele>1914.8000488281</ele>
        <time>2014-08-24T09:44:06.000Z</time>
      </trkpt>
      <trkpt lat="43.99767" lon="7.44168">
        <ele>1915.5999755859</ele>
        <time>2014-08-24T09:44:10.000Z</time>
      </trkpt>
      <trkpt lat="43.99771" lon="7.44173">
        <ele>1916.4000244141</ele>
        <time>2014-08-24T09:44:18.000Z</time>
      </trkpt>
      <trkpt lat="43.99775" lon="7.4418">
        <ele>1917.4000244141</ele>
        <time>2014-08-24T09:44:25.000Z</time>
      </trkpt>
      <trkpt lat="43.99781" lon="7.44183">
        <ele>1917</ele>
        <time>2014-08-24T09:45:51.000Z</time>
      </trkpt>
      <trkpt lat="43.99781" lon="7.44183">
        <ele>1917</ele>
        <time>2014-08-24T09:47:05.000Z</time>
      </trkpt>
      <trkpt lat="43.99761" lon="7.44155">
        <ele>1913.1999511719</ele>
        <time>2014-08-24T10:31:54.000Z</time>
      </trkpt>
      <trkpt lat="43.99759" lon="7.44154">
        <ele>1912.5999755859</ele>
        <time>2014-08-24T10:31:58.000Z</time>
      </trkpt>
      <trkpt lat="43.99756" lon="7.44152">
        <ele>1911.4000244141</ele>
        <time>2014-08-24T10:32:05.000Z</time>
      </trkpt>
      <trkpt lat="43.99752" lon="7.44152">
        <ele>1910.1999511719</ele>
        <time>2014-08-24T10:32:12.000Z</time>
      </trkpt>
      <trkpt lat="43.99747" lon="7.44151">
        <ele>1908.5999755859</ele>
        <time>2014-08-24T10:32:21.000Z</time>
      </trkpt>
      <trkpt lat="43.99744" lon="7.44152">
        <ele>1907.8000488281</ele>
        <time>2014-08-24T10:32:27.000Z</time>
      </trkpt>
      <trkpt lat="43.9974" lon="7.4415">
        <ele>1906.4000244141</ele>
        <time>2014-08-24T10:32:46.000Z</time>
      </trkpt>
      <trkpt lat="43.99734" lon="7.4415">
        <ele>1904.8000488281</ele>
        <time>2014-08-24T10:32:54.000Z</time>
      </trkpt>
      <trkpt lat="43.99732" lon="7.44145">
        <ele>1903.8000488281</ele>
        <time>2014-08-24T10:33:02.000Z</time>
      </trkpt>
      <trkpt lat="43.99735" lon="7.4414">
        <ele>1904.4000244141</ele>
        <time>2014-08-24T10:33:11.000Z</time>
      </trkpt>
      <trkpt lat="43.99737" lon="7.44136">
        <ele>1904.8000488281</ele>
        <time>2014-08-24T10:33:18.000Z</time>
      </trkpt>
      <trkpt lat="43.99739" lon="7.44132">
        <ele>1905.1999511719</ele>
        <time>2014-08-24T10:33:27.000Z</time>
      </trkpt>
      <trkpt lat="43.99741" lon="7.44127">
        <ele>1906</ele>
        <time>2014-08-24T10:33:35.000Z</time>
      </trkpt>
      <trkpt lat="43.99744" lon="7.44125">
        <ele>1907.4000244141</ele>
        <time>2014-08-24T10:33:40.000Z</time>
      </trkpt>
      <trkpt lat="43.99748" lon="7.44124">
        <ele>1908.8000488281</ele>
        <time>2014-08-24T10:33:45.000Z</time>
      </trkpt>
      <trkpt lat="43.9975" lon="7.44123">
        <ele>1910</ele>
        <time>2014-08-24T10:33:49.000Z</time>
      </trkpt>
      <trkpt lat="43.99753" lon="7.4412">
        <ele>1911.4000244141</ele>
        <time>2014-08-24T10:33:53.000Z</time>
      </trkpt>
      <trkpt lat="43.99756" lon="7.44116">
        <ele>1912.8000488281</ele>
        <time>2014-08-24T10:34:01.000Z</time>
      </trkpt>
      <trkpt lat="43.99759" lon="7.44114">
        <ele>1913.8000488281</ele>
        <time>2014-08-24T10:34:08.000Z</time>
      </trkpt>
      <trkpt lat="43.99761" lon="7.44111">
        <ele>1915</ele>
        <time>2014-08-24T10:34:14.000Z</time>
      </trkpt>
      <trkpt lat="43.99761" lon="7.44105">
        <ele>1915.4000244141</ele>
        <time>2014-08-24T10:34:21.000Z</time>
      </trkpt>
      <trkpt lat="43.99761" lon="7.441">
        <ele>1915.4000244141</ele>
        <time>2014-08-24T10:34:29.000Z</time>
      </trkpt>
      <trkpt lat="43.99759" lon="7.44095">
        <ele>1914.8000488281</ele>
        <time>2014-08-24T10:34:37.000Z</time>
      </trkpt>
      <trkpt lat="43.9976" lon="7.44092">
        <ele>1915.1999511719</ele>
        <time>2014-08-24T10:34:43.000Z</time>
      </trkpt>
      <trkpt lat="43.99762" lon="7.44087">
        <ele>1916.5999755859</ele>
        <time>2014-08-24T10:34:52.000Z</time>
      </trkpt>
      <trkpt lat="43.99765" lon="7.44082">
        <ele>1918</ele>
        <time>2014-08-24T10:35:00.000Z</time>
      </trkpt>
      <trkpt lat="43.99771" lon="7.44079">
        <ele>1920.1999511719</ele>
        <time>2014-08-24T10:35:09.000Z</time>
      </trkpt>
      <trkpt lat="43.99777" lon="7.44079">
        <ele>1921.8000488281</ele>
        <time>2014-08-24T10:35:18.000Z</time>
      </trkpt>
      <trkpt lat="43.99783" lon="7.44075">
        <ele>1921.8000488281</ele>
        <time>2014-08-24T10:35:26.000Z</time>
      </trkpt>
      <trkpt lat="43.99789" lon="7.4407">
        <ele>1921.5999755859</ele>
        <time>2014-08-24T10:35:34.000Z</time>
      </trkpt>
      <trkpt lat="43.99794" lon="7.44063">
        <ele>1921.1999511719</ele>
        <time>2014-08-24T10:35:42.000Z</time>
      </trkpt>
      <trkpt lat="43.99799" lon="7.44056">
        <ele>1920.8000488281</ele>
        <time>2014-08-24T10:35:51.000Z</time>
      </trkpt>
      <trkpt lat="43.99804" lon="7.44053">
        <ele>1921</ele>
        <time>2014-08-24T10:35:59.000Z</time>
      </trkpt>
      <trkpt lat="43.99803" lon="7.44051">
        <ele>1920.5999755859</ele>
        <time>2014-08-24T10:36:05.000Z</time>
      </trkpt>
      <trkpt lat="43.99802" lon="7.44043">
        <ele>1919.5999755859</ele>
        <time>2014-08-24T10:36:13.000Z</time>
      </trkpt>
      <trkpt lat="43.99801" lon="7.44036">
        <ele>1918.5999755859</ele>
        <time>2014-08-24T10:36:19.000Z</time>
      </trkpt>
      <trkpt lat="43.99801" lon="7.44035">
        <ele>1918.4000244141</ele>
        <time>2014-08-24T10:36:20.000Z</time>
      </trkpt>
      <trkpt lat="43.99803" lon="7.44023">
        <ele>1917.8000488281</ele>
        <time>2014-08-24T10:36:30.000Z</time>
      </trkpt>
      <trkpt lat="43.99804" lon="7.44015">
        <ele>1918.1999511719</ele>
        <time>2014-08-24T10:36:38.000Z</time>
      </trkpt>
      <trkpt lat="43.99805" lon="7.4401">
        <ele>1918.1999511719</ele>
        <time>2014-08-24T10:36:43.000Z</time>
      </trkpt>
      <trkpt lat="43.99807" lon="7.44002">
        <ele>1918.8000488281</ele>
        <time>2014-08-24T10:36:50.000Z</time>
      </trkpt>
      <trkpt lat="43.99812" lon="7.43995">
        <ele>1919.1999511719</ele>
        <time>2014-08-24T10:36:57.000Z</time>
      </trkpt>
      <trkpt lat="43.99817" lon="7.43989">
        <ele>1919.1999511719</ele>
        <time>2014-08-24T10:37:05.000Z</time>
      </trkpt>
      <trkpt lat="43.9982" lon="7.43985">
        <ele>1919.1999511719</ele>
        <time>2014-08-24T10:37:09.000Z</time>
      </trkpt>
      <trkpt lat="43.99822" lon="7.43982">
        <ele>1919.1999511719</ele>
        <time>2014-08-24T10:37:13.000Z</time>
      </trkpt>
      <trkpt lat="43.99831" lon="7.43977">
        <ele>1920</ele>
        <time>2014-08-24T10:37:24.000Z</time>
      </trkpt>
      <trkpt lat="43.99836" lon="7.43971">
        <ele>1920.4000244141</ele>
        <time>2014-08-24T10:37:31.000Z</time>
      </trkpt>
      <trkpt lat="43.99839" lon="7.43968">
        <ele>1920.8000488281</ele>
        <time>2014-08-24T10:37:36.000Z</time>
      </trkpt>
      <trkpt lat="43.99841" lon="7.43965">
        <ele>1921.1999511719</ele>
        <time>2014-08-24T10:37:39.000Z</time>
      </trkpt>
      <trkpt lat="43.99846" lon="7.43961">
        <ele>1922</ele>
        <time>2014-08-24T10:37:46.000Z</time>
      </trkpt>
      <trkpt lat="43.99851" lon="7.43954">
        <ele>1922.5999755859</ele>
        <time>2014-08-24T10:37:55.000Z</time>
      </trkpt>
      <trkpt lat="43.99856" lon="7.43946">
        <ele>1922.8000488281</ele>
        <time>2014-08-24T10:38:04.000Z</time>
      </trkpt>
      <trkpt lat="43.99859" lon="7.43939">
        <ele>1922.5999755859</ele>
        <time>2014-08-24T10:38:13.000Z</time>
      </trkpt>
      <trkpt lat="43.99862" lon="7.43933">
        <ele>1921.1999511719</ele>
        <time>2014-08-24T10:38:20.000Z</time>
      </trkpt>
      <trkpt lat="43.99862" lon="7.43928">
        <ele>1920.5999755859</ele>
        <time>2014-08-24T10:38:24.000Z</time>
      </trkpt>
      <trkpt lat="43.99862" lon="7.43925">
        <ele>1920.1999511719</ele>
        <time>2014-08-24T10:38:27.000Z</time>
      </trkpt>
      <trkpt lat="43.99863" lon="7.43921">
        <ele>1919.4000244141</ele>
        <time>2014-08-24T10:38:30.000Z</time>
      </trkpt>
      <trkpt lat="43.99865" lon="7.43918">
        <ele>1919.8000488281</ele>
        <time>2014-08-24T10:38:33.000Z</time>
      </trkpt>
      <trkpt lat="43.99867" lon="7.43916">
        <ele>1920.1999511719</ele>
        <time>2014-08-24T10:38:35.000Z</time>
      </trkpt>
      <trkpt lat="43.9987" lon="7.43911">
        <ele>1919.8000488281</ele>
        <time>2014-08-24T10:38:42.000Z</time>
      </trkpt>
      <trkpt lat="43.99875" lon="7.43908">
        <ele>1919.4000244141</ele>
        <time>2014-08-24T10:38:51.000Z</time>
      </trkpt>
      <trkpt lat="43.99875" lon="7.43907">
        <ele>1919.4000244141</ele>
        <time>2014-08-24T10:39:01.000Z</time>
      </trkpt>
      <trkpt lat="43.99878" lon="7.43903">
        <ele>1919</ele>
        <time>2014-08-24T10:39:21.000Z</time>
      </trkpt>
      <trkpt lat="43.99882" lon="7.43898">
        <ele>1918.5999755859</ele>
        <time>2014-08-24T10:39:29.000Z</time>
      </trkpt>
      <trkpt lat="43.99882" lon="7.43897">
        <ele>1918.4000244141</ele>
        <time>2014-08-24T10:39:36.000Z</time>
      </trkpt>
      <trkpt lat="43.99878" lon="7.43888">
        <ele>1917.1999511719</ele>
        <time>2014-08-24T10:40:35.000Z</time>
      </trkpt>
      <trkpt lat="43.99875" lon="7.43882">
        <ele>1916.4000244141</ele>
        <time>2014-08-24T10:40:43.000Z</time>
      </trkpt>
      <trkpt lat="43.99875" lon="7.43881">
        <ele>1916.1999511719</ele>
        <time>2014-08-24T10:40:44.000Z</time>
      </trkpt>
      <trkpt lat="43.99874" lon="7.43875">
        <ele>1915.4000244141</ele>
        <time>2014-08-24T10:40:50.000Z</time>
      </trkpt>
      <trkpt lat="43.99868" lon="7.43866">
        <ele>1914.1999511719</ele>
        <time>2014-08-24T10:40:57.000Z</time>
      </trkpt>
      <trkpt lat="43.99859" lon="7.43863">
        <ele>1913.5999755859</ele>
        <time>2014-08-24T10:41:02.000Z</time>
      </trkpt>
      <trkpt lat="43.9985" lon="7.43857">
        <ele>1911.4000244141</ele>
        <time>2014-08-24T10:41:07.000Z</time>
      </trkpt>
      <trkpt lat="43.99838" lon="7.43857">
        <ele>1909.1999511719</ele>
        <time>2014-08-24T10:41:12.000Z</time>
      </trkpt>
      <trkpt lat="43.99831" lon="7.43856">
        <ele>1907.8000488281</ele>
        <time>2014-08-24T10:41:16.000Z</time>
      </trkpt>
      <trkpt lat="43.99829" lon="7.43858">
        <ele>1907.8000488281</ele>
        <time>2014-08-24T10:41:17.000Z</time>
      </trkpt>
      <trkpt lat="43.99819" lon="7.43864">
        <ele>1906.8000488281</ele>
        <time>2014-08-24T10:41:22.000Z</time>
      </trkpt>
      <trkpt lat="43.99813" lon="7.43853">
        <ele>1904.4000244141</ele>
        <time>2014-08-24T10:41:26.000Z</time>
      </trkpt>
      <trkpt lat="43.99806" lon="7.43847">
        <ele>1902.4000244141</ele>
        <time>2014-08-24T10:41:29.000Z</time>
      </trkpt>
      <trkpt lat="43.99804" lon="7.43847">
        <ele>1902</ele>
        <time>2014-08-24T10:41:30.000Z</time>
      </trkpt>
      <trkpt lat="43.99793" lon="7.43833">
        <ele>1898.1999511719</ele>
        <time>2014-08-24T10:41:36.000Z</time>
      </trkpt>
      <trkpt lat="43.99783" lon="7.43821">
        <ele>1896.4000244141</ele>
        <time>2014-08-24T10:41:41.000Z</time>
      </trkpt>
      <trkpt lat="43.99775" lon="7.43807">
        <ele>1894.5999755859</ele>
        <time>2014-08-24T10:41:46.000Z</time>
      </trkpt>
      <trkpt lat="43.99774" lon="7.43804">
        <ele>1894.5999755859</ele>
        <time>2014-08-24T10:41:47.000Z</time>
      </trkpt>
      <trkpt lat="43.99772" lon="7.43795">
        <ele>1894.4000244141</ele>
        <time>2014-08-24T10:41:50.000Z</time>
      </trkpt>
      <trkpt lat="43.9977" lon="7.43793">
        <ele>1894.1999511719</ele>
        <time>2014-08-24T10:41:51.000Z</time>
      </trkpt>
      <trkpt lat="43.99762" lon="7.43788">
        <ele>1893.4000244141</ele>
        <time>2014-08-24T10:41:54.000Z</time>
      </trkpt>
      <trkpt lat="43.99755" lon="7.4378">
        <ele>1892.5999755859</ele>
        <time>2014-08-24T10:41:59.000Z</time>
      </trkpt>
      <trkpt lat="43.99749" lon="7.43764">
        <ele>1892</ele>
        <time>2014-08-24T10:42:05.000Z</time>
      </trkpt>
      <trkpt lat="43.99744" lon="7.43751">
        <ele>1891.4000244141</ele>
        <time>2014-08-24T10:42:11.000Z</time>
      </trkpt>
      <trkpt lat="43.99743" lon="7.43741">
        <ele>1891.8000488281</ele>
        <time>2014-08-24T10:42:16.000Z</time>
      </trkpt>
      <trkpt lat="43.9974" lon="7.43732">
        <ele>1892.1999511719</ele>
        <time>2014-08-24T10:42:20.000Z</time>
      </trkpt>
      <trkpt lat="43.9974" lon="7.43729">
        <ele>1892.5999755859</ele>
        <time>2014-08-24T10:42:21.000Z</time>
      </trkpt>
      <trkpt lat="43.9974" lon="7.43723">
        <ele>1893</ele>
        <time>2014-08-24T10:42:23.000Z</time>
      </trkpt>
      <trkpt lat="43.99734" lon="7.43718">
        <ele>1892.8000488281</ele>
        <time>2014-08-24T10:42:27.000Z</time>
      </trkpt>
      <trkpt lat="43.99736" lon="7.43708">
        <ele>1893.5999755859</ele>
        <time>2014-08-24T10:42:31.000Z</time>
      </trkpt>
      <trkpt lat="43.99731" lon="7.4371">
        <ele>1893.1999511719</ele>
        <time>2014-08-24T10:42:35.000Z</time>
      </trkpt>
      <trkpt lat="43.9973" lon="7.43712">
        <ele>1892.8000488281</ele>
        <time>2014-08-24T10:42:36.000Z</time>
      </trkpt>
      <trkpt lat="43.99725" lon="7.43712">
        <ele>1892.4000244141</ele>
        <time>2014-08-24T10:42:38.000Z</time>
      </trkpt>
      <trkpt lat="43.99725" lon="7.43705">
        <ele>1893</ele>
        <time>2014-08-24T10:42:40.000Z</time>
      </trkpt>
      <trkpt lat="43.99727" lon="7.43698">
        <ele>1893.4000244141</ele>
        <time>2014-08-24T10:42:42.000Z</time>
      </trkpt>
      <trkpt lat="43.99727" lon="7.4369">
        <ele>1893.1999511719</ele>
        <time>2014-08-24T10:42:45.000Z</time>
      </trkpt>
      <trkpt lat="43.99721" lon="7.43694">
        <ele>1893.4000244141</ele>
        <time>2014-08-24T10:42:48.000Z</time>
      </trkpt>
      <trkpt lat="43.99716" lon="7.43697">
        <ele>1892.8000488281</ele>
        <time>2014-08-24T10:42:50.000Z</time>
      </trkpt>
      <trkpt lat="43.99715" lon="7.43697">
        <ele>1892.5999755859</ele>
        <time>2014-08-24T10:42:51.000Z</time>
      </trkpt>
      <trkpt lat="43.99713" lon="7.43696">
        <ele>1892.5999755859</ele>
        <time>2014-08-24T10:42:52.000Z</time>
      </trkpt>
      <trkpt lat="43.99714" lon="7.43689">
        <ele>1893.1999511719</ele>
        <time>2014-08-24T10:42:55.000Z</time>
      </trkpt>
      <trkpt lat="43.99723" lon="7.43678">
        <ele>1893.1999511719</ele>
        <time>2014-08-24T10:43:00.000Z</time>
      </trkpt>
      <trkpt lat="43.9973" lon="7.43678">
        <ele>1893.1999511719</ele>
        <time>2014-08-24T10:43:05.000Z</time>
      </trkpt>
      <trkpt lat="43.99731" lon="7.43677">
        <ele>1893.1999511719</ele>
        <time>2014-08-24T10:43:06.000Z</time>
      </trkpt>
      <trkpt lat="43.99736" lon="7.43675">
        <ele>1893.1999511719</ele>
        <time>2014-08-24T10:43:09.000Z</time>
      </trkpt>
      <trkpt lat="43.9974" lon="7.43671">
        <ele>1893</ele>
        <time>2014-08-24T10:43:12.000Z</time>
      </trkpt>
      <trkpt lat="43.99743" lon="7.43671">
        <ele>1893</ele>
        <time>2014-08-24T10:43:15.000Z</time>
      </trkpt>
      <trkpt lat="43.99747" lon="7.43674">
        <ele>1893</ele>
        <time>2014-08-24T10:43:19.000Z</time>
      </trkpt>
      <trkpt lat="43.99746" lon="7.43673">
        <ele>1893</ele>
        <time>2014-08-24T10:43:20.000Z</time>
      </trkpt>
      <trkpt lat="43.99745" lon="7.43672">
        <ele>1893</ele>
        <time>2014-08-24T10:43:21.000Z</time>
      </trkpt>
      <trkpt lat="43.99744" lon="7.43668">
        <ele>1893</ele>
        <time>2014-08-24T10:43:24.000Z</time>
      </trkpt>
      <trkpt lat="43.99741" lon="7.4366">
        <ele>1893.1999511719</ele>
        <time>2014-08-24T10:43:29.000Z</time>
      </trkpt>
      <trkpt lat="43.99741" lon="7.43658">
        <ele>1893.1999511719</ele>
        <time>2014-08-24T10:43:30.000Z</time>
      </trkpt>
      <trkpt lat="43.99737" lon="7.4366">
        <ele>1893.1999511719</ele>
        <time>2014-08-24T10:43:33.000Z</time>
      </trkpt>
      <trkpt lat="43.99733" lon="7.43663">
        <ele>1893</ele>
        <time>2014-08-24T10:43:37.000Z</time>
      </trkpt>
      <trkpt lat="43.99729" lon="7.43663">
        <ele>1893</ele>
        <time>2014-08-24T10:43:39.000Z</time>
      </trkpt>
      <trkpt lat="43.99728" lon="7.43664">
        <ele>1893</ele>
        <time>2014-08-24T10:43:40.000Z</time>
      </trkpt>
      <trkpt lat="43.99723" lon="7.43665">
        <ele>1893</ele>
        <time>2014-08-24T10:43:43.000Z</time>
      </trkpt>
      <trkpt lat="43.99716" lon="7.4367">
        <ele>1893</ele>
        <time>2014-08-24T10:43:47.000Z</time>
      </trkpt>
      <trkpt lat="43.99714" lon="7.43671">
        <ele>1893</ele>
        <time>2014-08-24T10:43:48.000Z</time>
      </trkpt>
      <trkpt lat="43.99709" lon="7.43671">
        <ele>1893</ele>
        <time>2014-08-24T10:43:52.000Z</time>
      </trkpt>
      <trkpt lat="43.99706" lon="7.43674">
        <ele>1893</ele>
        <time>2014-08-24T10:43:55.000Z</time>
      </trkpt>
      <trkpt lat="43.99704" lon="7.43674">
        <ele>1893</ele>
        <time>2014-08-24T10:43:56.000Z</time>
      </trkpt>
      <trkpt lat="43.99705" lon="7.43675">
        <ele>1893.1999511719</ele>
        <time>2014-08-24T10:43:57.000Z</time>
      </trkpt>
      <trkpt lat="43.99712" lon="7.43667">
        <ele>1893</ele>
        <time>2014-08-24T10:44:33.000Z</time>
      </trkpt>
      <trkpt lat="43.99717" lon="7.43664">
        <ele>1893</ele>
        <time>2014-08-24T10:44:35.000Z</time>
      </trkpt>
      <trkpt lat="43.99728" lon="7.43655">
        <ele>1893.4000244141</ele>
        <time>2014-08-24T10:44:41.000Z</time>
      </trkpt>
      <trkpt lat="43.99733" lon="7.43656">
        <ele>1893.4000244141</ele>
        <time>2014-08-24T10:44:44.000Z</time>
      </trkpt>
      <trkpt lat="43.99735" lon="7.43659">
        <ele>1893.1999511719</ele>
        <time>2014-08-24T10:44:46.000Z</time>
      </trkpt>
      <trkpt lat="43.99736" lon="7.43662">
        <ele>1893.1999511719</ele>
        <time>2014-08-24T10:44:48.000Z</time>
      </trkpt>
      <trkpt lat="43.99737" lon="7.43667">
        <ele>1893</ele>
        <time>2014-08-24T10:44:50.000Z</time>
      </trkpt>
      <trkpt lat="43.99733" lon="7.4367">
        <ele>1893</ele>
        <time>2014-08-24T10:44:52.000Z</time>
      </trkpt>
      <trkpt lat="43.99731" lon="7.43674">
        <ele>1893.1999511719</ele>
        <time>2014-08-24T10:44:55.000Z</time>
      </trkpt>
      <trkpt lat="43.9973" lon="7.43676">
        <ele>1893.1999511719</ele>
        <time>2014-08-24T10:44:57.000Z</time>
      </trkpt>
      <trkpt lat="43.99728" lon="7.4368">
        <ele>1893.1999511719</ele>
        <time>2014-08-24T10:45:00.000Z</time>
      </trkpt>
      <trkpt lat="43.99731" lon="7.43686">
        <ele>1893.1999511719</ele>
        <time>2014-08-24T10:45:06.000Z</time>
      </trkpt>
      <trkpt lat="43.99729" lon="7.4368">
        <ele>1893.1999511719</ele>
        <time>2014-08-24T10:45:18.000Z</time>
      </trkpt>
      <trkpt lat="43.99727" lon="7.43678">
        <ele>1893.1999511719</ele>
        <time>2014-08-24T10:45:24.000Z</time>
      </trkpt>
      <trkpt lat="43.99727" lon="7.43674">
        <ele>1893.1999511719</ele>
        <time>2014-08-24T10:45:31.000Z</time>
      </trkpt>
      <trkpt lat="43.9973" lon="7.43669">
        <ele>1893</ele>
        <time>2014-08-24T10:45:36.000Z</time>
      </trkpt>
      <trkpt lat="43.99729" lon="7.43668">
        <ele>1893</ele>
        <time>2014-08-24T10:45:38.000Z</time>
      </trkpt>
      <trkpt lat="43.99728" lon="7.43661">
        <ele>1893.1999511719</ele>
        <time>2014-08-24T10:45:43.000Z</time>
      </trkpt>
      <trkpt lat="43.99728" lon="7.43659">
        <ele>1893.1999511719</ele>
        <time>2014-08-24T10:45:45.000Z</time>
      </trkpt>
      <trkpt lat="43.99727" lon="7.43651">
        <ele>1893.5999755859</ele>
        <time>2014-08-24T10:45:53.000Z</time>
      </trkpt>
      <trkpt lat="43.99726" lon="7.43651">
        <ele>1893.5999755859</ele>
        <time>2014-08-24T10:45:54.000Z</time>
      </trkpt>
      <trkpt lat="43.99724" lon="7.43646">
        <ele>1893.8000488281</ele>
        <time>2014-08-24T10:46:00.000Z</time>
      </trkpt>
      <trkpt lat="43.99719" lon="7.43636">
        <ele>1894</ele>
        <time>2014-08-24T10:46:07.000Z</time>
      </trkpt>
      <trkpt lat="43.99716" lon="7.4363">
        <ele>1894.1999511719</ele>
        <time>2014-08-24T10:46:14.000Z</time>
      </trkpt>
      <trkpt lat="43.99713" lon="7.43619">
        <ele>1894.5999755859</ele>
        <time>2014-08-24T10:46:22.000Z</time>
      </trkpt>
      <trkpt lat="43.99713" lon="7.43613">
        <ele>1895</ele>
        <time>2014-08-24T10:46:29.000Z</time>
      </trkpt>
      <trkpt lat="43.99713" lon="7.43606">
        <ele>1895.1999511719</ele>
        <time>2014-08-24T10:46:40.000Z</time>
      </trkpt>
      <trkpt lat="43.99713" lon="7.43604">
        <ele>1895.1999511719</ele>
        <time>2014-08-24T10:46:48.000Z</time>
      </trkpt>
      <trkpt lat="43.99712" lon="7.43605">
        <ele>1895.1999511719</ele>
        <time>2014-08-24T10:47:12.000Z</time>
      </trkpt>
      <trkpt lat="43.99711" lon="7.43607">
        <ele>1895.1999511719</ele>
        <time>2014-08-24T10:47:21.000Z</time>
      </trkpt>
      <trkpt lat="43.99711" lon="7.43593">
        <ele>1896</ele>
        <time>2014-08-24T10:47:40.000Z</time>
      </trkpt>
      <trkpt lat="43.99709" lon="7.43577">
        <ele>1897.4000244141</ele>
        <time>2014-08-24T10:47:45.000Z</time>
      </trkpt>
      <trkpt lat="43.99711" lon="7.43573">
        <ele>1897.8000488281</ele>
        <time>2014-08-24T10:47:46.000Z</time>
      </trkpt>
      <trkpt lat="43.99712" lon="7.43564">
        <ele>1898.8000488281</ele>
        <time>2014-08-24T10:47:50.000Z</time>
      </trkpt>
      <trkpt lat="43.99711" lon="7.4356">
        <ele>1899</ele>
        <time>2014-08-24T10:47:52.000Z</time>
      </trkpt>
      <trkpt lat="43.99711" lon="7.43556">
        <ele>1899.4000244141</ele>
        <time>2014-08-24T10:47:54.000Z</time>
      </trkpt>
      <trkpt lat="43.99714" lon="7.43553">
        <ele>1900</ele>
        <time>2014-08-24T10:47:57.000Z</time>
      </trkpt>
      <trkpt lat="43.99716" lon="7.43547">
        <ele>1900.5999755859</ele>
        <time>2014-08-24T10:48:00.000Z</time>
      </trkpt>
      <trkpt lat="43.99718" lon="7.43541">
        <ele>1901.1999511719</ele>
        <time>2014-08-24T10:48:03.000Z</time>
      </trkpt>
      <trkpt lat="43.99719" lon="7.43537">
        <ele>1901.5999755859</ele>
        <time>2014-08-24T10:48:08.000Z</time>
      </trkpt>
      <trkpt lat="43.9972" lon="7.43528">
        <ele>1902.5999755859</ele>
        <time>2014-08-24T10:48:30.000Z</time>
      </trkpt>
      <trkpt lat="43.99718" lon="7.43518">
        <ele>1903.5999755859</ele>
        <time>2014-08-24T10:48:35.000Z</time>
      </trkpt>
      <trkpt lat="43.99714" lon="7.43519">
        <ele>1903.1999511719</ele>
        <time>2014-08-24T10:48:39.000Z</time>
      </trkpt>
      <trkpt lat="43.99708" lon="7.43512">
        <ele>1903.5999755859</ele>
        <time>2014-08-24T10:48:45.000Z</time>
      </trkpt>
      <trkpt lat="43.99701" lon="7.43509">
        <ele>1903.4000244141</ele>
        <time>2014-08-24T10:48:51.000Z</time>
      </trkpt>
      <trkpt lat="43.99697" lon="7.43507">
        <ele>1903.5999755859</ele>
        <time>2014-08-24T10:48:56.000Z</time>
      </trkpt>
      <trkpt lat="43.99694" lon="7.43496">
        <ele>1904.4000244141</ele>
        <time>2014-08-24T10:49:02.000Z</time>
      </trkpt>
      <trkpt lat="43.99693" lon="7.43493">
        <ele>1904.8000488281</ele>
        <time>2014-08-24T10:49:04.000Z</time>
      </trkpt>
      <trkpt lat="43.99691" lon="7.43488">
        <ele>1905.5999755859</ele>
        <time>2014-08-24T10:49:10.000Z</time>
      </trkpt>
      <trkpt lat="43.99688" lon="7.43485">
        <ele>1906.5999755859</ele>
        <time>2014-08-24T10:49:14.000Z</time>
      </trkpt>
      <trkpt lat="43.99687" lon="7.43484">
        <ele>1906.8000488281</ele>
        <time>2014-08-24T10:49:15.000Z</time>
      </trkpt>
      <trkpt lat="43.99683" lon="7.43482">
        <ele>1908</ele>
        <time>2014-08-24T10:49:20.000Z</time>
      </trkpt>
      <trkpt lat="43.99681" lon="7.43477">
        <ele>1909</ele>
        <time>2014-08-24T10:49:25.000Z</time>
      </trkpt>
      <trkpt lat="43.9968" lon="7.43476">
        <ele>1909.4000244141</ele>
        <time>2014-08-24T10:49:28.000Z</time>
      </trkpt>
      <trkpt lat="43.9968" lon="7.43474">
        <ele>1909.8000488281</ele>
        <time>2014-08-24T10:49:29.000Z</time>
      </trkpt>
      <trkpt lat="43.99677" lon="7.4347">
        <ele>1910.8000488281</ele>
        <time>2014-08-24T10:49:34.000Z</time>
      </trkpt>
      <trkpt lat="43.99673" lon="7.43468">
        <ele>1911.8000488281</ele>
        <time>2014-08-24T10:49:41.000Z</time>
      </trkpt>
      <trkpt lat="43.99668" lon="7.43462">
        <ele>1913.8000488281</ele>
        <time>2014-08-24T10:50:01.000Z</time>
      </trkpt>
      <trkpt lat="43.99667" lon="7.43464">
        <ele>1914</ele>
        <time>2014-08-24T10:50:02.000Z</time>
      </trkpt>
      <trkpt lat="43.99663" lon="7.43462">
        <ele>1915</ele>
        <time>2014-08-24T10:50:08.000Z</time>
      </trkpt>
      <trkpt lat="43.9966" lon="7.43458">
        <ele>1916</ele>
        <time>2014-08-24T10:50:14.000Z</time>
      </trkpt>
      <trkpt lat="43.9966" lon="7.43452">
        <ele>1916.8000488281</ele>
        <time>2014-08-24T10:50:20.000Z</time>
      </trkpt>
      <trkpt lat="43.99659" lon="7.43446">
        <ele>1917.8000488281</ele>
        <time>2014-08-24T10:50:24.000Z</time>
      </trkpt>
      <trkpt lat="43.99659" lon="7.43445">
        <ele>1917.8000488281</ele>
        <time>2014-08-24T10:50:25.000Z</time>
      </trkpt>
      <trkpt lat="43.99658" lon="7.43434">
        <ele>1919.4000244141</ele>
        <time>2014-08-24T10:50:33.000Z</time>
      </trkpt>
      <trkpt lat="43.99657" lon="7.43432">
        <ele>1920</ele>
        <time>2014-08-24T10:50:39.000Z</time>
      </trkpt>
      <trkpt lat="43.99655" lon="7.43428">
        <ele>1920.8000488281</ele>
        <time>2014-08-24T10:50:48.000Z</time>
      </trkpt>
      <trkpt lat="43.99656" lon="7.43425">
        <ele>1921.1999511719</ele>
        <time>2014-08-24T10:50:54.000Z</time>
      </trkpt>
      <trkpt lat="43.99656" lon="7.43418">
        <ele>1921.8000488281</ele>
        <time>2014-08-24T10:51:04.000Z</time>
      </trkpt>
      <trkpt lat="43.99655" lon="7.43416">
        <ele>1922.1999511719</ele>
        <time>2014-08-24T10:51:10.000Z</time>
      </trkpt>
      <trkpt lat="43.99655" lon="7.43411">
        <ele>1923</ele>
        <time>2014-08-24T10:51:17.000Z</time>
      </trkpt>
      <trkpt lat="43.99655" lon="7.43408">
        <ele>1923.8000488281</ele>
        <time>2014-08-24T10:51:23.000Z</time>
      </trkpt>
      <trkpt lat="43.99654" lon="7.43404">
        <ele>1924.5999755859</ele>
        <time>2014-08-24T10:51:30.000Z</time>
      </trkpt>
      <trkpt lat="43.99653" lon="7.43401">
        <ele>1925.1999511719</ele>
        <time>2014-08-24T10:51:38.000Z</time>
      </trkpt>
      <trkpt lat="43.99652" lon="7.43399">
        <ele>1925.8000488281</ele>
        <time>2014-08-24T10:51:44.000Z</time>
      </trkpt>
      <trkpt lat="43.99651" lon="7.43396">
        <ele>1926.4000244141</ele>
        <time>2014-08-24T10:51:51.000Z</time>
      </trkpt>
      <trkpt lat="43.99652" lon="7.43392">
        <ele>1927</ele>
        <time>2014-08-24T10:52:00.000Z</time>
      </trkpt>
      <trkpt lat="43.99653" lon="7.43387">
        <ele>1927.5999755859</ele>
        <time>2014-08-24T10:52:08.000Z</time>
      </trkpt>
      <trkpt lat="43.99649" lon="7.4338">
        <ele>1929.5999755859</ele>
        <time>2014-08-24T10:52:24.000Z</time>
      </trkpt>
      <trkpt lat="43.99649" lon="7.4338">
        <ele>1929.8000488281</ele>
        <time>2014-08-24T10:52:31.000Z</time>
      </trkpt>
      <trkpt lat="43.99648" lon="7.43375">
        <ele>1930.8000488281</ele>
        <time>2014-08-24T10:52:39.000Z</time>
      </trkpt>
      <trkpt lat="43.99646" lon="7.43371">
        <ele>1931.8000488281</ele>
        <time>2014-08-24T10:52:46.000Z</time>
      </trkpt>
      <trkpt lat="43.99645" lon="7.4337">
        <ele>1932.1999511719</ele>
        <time>2014-08-24T10:52:52.000Z</time>
      </trkpt>
      <trkpt lat="43.99644" lon="7.43368">
        <ele>1932.8000488281</ele>
        <time>2014-08-24T10:53:02.000Z</time>
      </trkpt>
      <trkpt lat="43.99644" lon="7.43367">
        <ele>1933.1999511719</ele>
        <time>2014-08-24T10:53:08.000Z</time>
      </trkpt>
      <trkpt lat="43.99644" lon="7.43362">
        <ele>1934.4000244141</ele>
        <time>2014-08-24T10:53:14.000Z</time>
      </trkpt>
      <trkpt lat="43.99645" lon="7.43358">
        <ele>1935.4000244141</ele>
        <time>2014-08-24T10:53:24.000Z</time>
      </trkpt>
      <trkpt lat="43.99646" lon="7.43354">
        <ele>1936.1999511719</ele>
        <time>2014-08-24T10:53:31.000Z</time>
      </trkpt>
      <trkpt lat="43.99646" lon="7.43349">
        <ele>1937.8000488281</ele>
        <time>2014-08-24T10:53:41.000Z</time>
      </trkpt>
      <trkpt lat="43.99645" lon="7.43343">
        <ele>1939.4000244141</ele>
        <time>2014-08-24T10:53:55.000Z</time>
      </trkpt>
      <trkpt lat="43.99645" lon="7.43335">
        <ele>1941.1999511719</ele>
        <time>2014-08-24T10:54:06.000Z</time>
      </trkpt>
      <trkpt lat="43.99645" lon="7.43333">
        <ele>1942.1999511719</ele>
        <time>2014-08-24T10:54:12.000Z</time>
      </trkpt>
      <trkpt lat="43.99645" lon="7.43329">
        <ele>1943.1999511719</ele>
        <time>2014-08-24T10:54:24.000Z</time>
      </trkpt>
      <trkpt lat="43.99647" lon="7.43323">
        <ele>1945.1999511719</ele>
        <time>2014-08-24T10:54:47.000Z</time>
      </trkpt>
      <trkpt lat="43.99649" lon="7.4332">
        <ele>1946</ele>
        <time>2014-08-24T10:54:53.000Z</time>
      </trkpt>
      <trkpt lat="43.99649" lon="7.43319">
        <ele>1946.1999511719</ele>
        <time>2014-08-24T10:54:54.000Z</time>
      </trkpt>
      <trkpt lat="43.99651" lon="7.43316">
        <ele>1947.1999511719</ele>
        <time>2014-08-24T10:55:00.000Z</time>
      </trkpt>
      <trkpt lat="43.99652" lon="7.43315">
        <ele>1947.1999511719</ele>
        <time>2014-08-24T10:55:05.000Z</time>
      </trkpt>
      <trkpt lat="43.99653" lon="7.43311">
        <ele>1948.5999755859</ele>
        <time>2014-08-24T10:55:11.000Z</time>
      </trkpt>
      <trkpt lat="43.99654" lon="7.4331">
        <ele>1948.8000488281</ele>
        <time>2014-08-24T10:55:12.000Z</time>
      </trkpt>
      <trkpt lat="43.99655" lon="7.43308">
        <ele>1949.1999511719</ele>
        <time>2014-08-24T10:55:13.000Z</time>
      </trkpt>
      <trkpt lat="43.99657" lon="7.43306">
        <ele>1949.5999755859</ele>
        <time>2014-08-24T10:55:16.000Z</time>
      </trkpt>
      <trkpt lat="43.99661" lon="7.43301">
        <ele>1951</ele>
        <time>2014-08-24T10:55:22.000Z</time>
      </trkpt>
      <trkpt lat="43.99665" lon="7.43299">
        <ele>1951.1999511719</ele>
        <time>2014-08-24T10:55:27.000Z</time>
      </trkpt>
      <trkpt lat="43.99668" lon="7.43295">
        <ele>1952.1999511719</ele>
        <time>2014-08-24T10:55:32.000Z</time>
      </trkpt>
      <trkpt lat="43.9967" lon="7.4329">
        <ele>1953.5999755859</ele>
        <time>2014-08-24T10:55:38.000Z</time>
      </trkpt>
      <trkpt lat="43.99671" lon="7.43289">
        <ele>1954</ele>
        <time>2014-08-24T10:55:39.000Z</time>
      </trkpt>
      <trkpt lat="43.99673" lon="7.43288">
        <ele>1954.1999511719</ele>
        <time>2014-08-24T10:55:45.000Z</time>
      </trkpt>
      <trkpt lat="43.99673" lon="7.43287">
        <ele>1954.5999755859</ele>
        <time>2014-08-24T10:55:46.000Z</time>
      </trkpt>
      <trkpt lat="43.99674" lon="7.43284">
        <ele>1955.4000244141</ele>
        <time>2014-08-24T10:55:50.000Z</time>
      </trkpt>
      <trkpt lat="43.99675" lon="7.43281">
        <ele>1956.4000244141</ele>
        <time>2014-08-24T10:55:54.000Z</time>
      </trkpt>
      <trkpt lat="43.99678" lon="7.43275">
        <ele>1958.1999511719</ele>
        <time>2014-08-24T10:56:01.000Z</time>
      </trkpt>
      <trkpt lat="43.99681" lon="7.43272">
        <ele>1958.8000488281</ele>
        <time>2014-08-24T10:56:08.000Z</time>
      </trkpt>
      <trkpt lat="43.99681" lon="7.43271">
        <ele>1959.4000244141</ele>
        <time>2014-08-24T10:56:16.000Z</time>
      </trkpt>
      <trkpt lat="43.99678" lon="7.4327">
        <ele>1960.1999511719</ele>
        <time>2014-08-24T10:56:21.000Z</time>
      </trkpt>
      <trkpt lat="43.99677" lon="7.43268">
        <ele>1960.8000488281</ele>
        <time>2014-08-24T10:56:32.000Z</time>
      </trkpt>
      <trkpt lat="43.99676" lon="7.43269">
        <ele>1960.5999755859</ele>
        <time>2014-08-24T10:56:37.000Z</time>
      </trkpt>
      <trkpt lat="43.99674" lon="7.43268">
        <ele>1961.4000244141</ele>
        <time>2014-08-24T10:56:44.000Z</time>
      </trkpt>
      <trkpt lat="43.99671" lon="7.43262">
        <ele>1963.8000488281</ele>
        <time>2014-08-24T10:56:52.000Z</time>
      </trkpt>
      <trkpt lat="43.9967" lon="7.43257">
        <ele>1965.8000488281</ele>
        <time>2014-08-24T10:57:00.000Z</time>
      </trkpt>
      <trkpt lat="43.99669" lon="7.43254">
        <ele>1967</ele>
        <time>2014-08-24T10:57:04.000Z</time>
      </trkpt>
      <trkpt lat="43.99666" lon="7.43251">
        <ele>1968.4000244141</ele>
        <time>2014-08-24T10:57:09.000Z</time>
      </trkpt>
      <trkpt lat="43.99664" lon="7.4325">
        <ele>1969</ele>
        <time>2014-08-24T10:57:11.000Z</time>
      </trkpt>
      <trkpt lat="43.99663" lon="7.43253">
        <ele>1968</ele>
        <time>2014-08-24T10:57:17.000Z</time>
      </trkpt>
      <trkpt lat="43.99663" lon="7.4325">
        <ele>1969.1999511719</ele>
        <time>2014-08-24T10:57:33.000Z</time>
      </trkpt>
      <trkpt lat="43.9966" lon="7.43245">
        <ele>1971.1999511719</ele>
        <time>2014-08-24T10:57:39.000Z</time>
      </trkpt>
      <trkpt lat="43.99657" lon="7.43243">
        <ele>1972.5999755859</ele>
        <time>2014-08-24T10:57:47.000Z</time>
      </trkpt>
      <trkpt lat="43.99656" lon="7.43241">
        <ele>1974</ele>
        <time>2014-08-24T10:57:56.000Z</time>
      </trkpt>
      <trkpt lat="43.99656" lon="7.43238">
        <ele>1975</ele>
        <time>2014-08-24T10:58:10.000Z</time>
      </trkpt>
      <trkpt lat="43.99653" lon="7.43235">
        <ele>1976.8000488281</ele>
        <time>2014-08-24T10:58:16.000Z</time>
      </trkpt>
      <trkpt lat="43.99653" lon="7.43233">
        <ele>1977.4000244141</ele>
        <time>2014-08-24T10:58:23.000Z</time>
      </trkpt>
      <trkpt lat="43.99653" lon="7.4323">
        <ele>1979</ele>
        <time>2014-08-24T10:58:30.000Z</time>
      </trkpt>
      <trkpt lat="43.99653" lon="7.43229">
        <ele>1979.5999755859</ele>
        <time>2014-08-24T10:58:36.000Z</time>
      </trkpt>
      <trkpt lat="43.99652" lon="7.43225">
        <ele>1981.1999511719</ele>
        <time>2014-08-24T10:58:44.000Z</time>
      </trkpt>
      <trkpt lat="43.9965" lon="7.43216">
        <ele>1985.5999755859</ele>
        <time>2014-08-24T10:59:14.000Z</time>
      </trkpt>
      <trkpt lat="43.99651" lon="7.43211">
        <ele>1987.5999755859</ele>
        <time>2014-08-24T10:59:22.000Z</time>
      </trkpt>
      <trkpt lat="43.99651" lon="7.4321">
        <ele>1988.4000244141</ele>
        <time>2014-08-24T10:59:31.000Z</time>
      </trkpt>
      <trkpt lat="43.9965" lon="7.4321">
        <ele>1988.4000244141</ele>
        <time>2014-08-24T10:59:46.000Z</time>
      </trkpt>
      <trkpt lat="43.9965" lon="7.43206">
        <ele>1990</ele>
        <time>2014-08-24T10:59:54.000Z</time>
      </trkpt>
      <trkpt lat="43.99651" lon="7.43204">
        <ele>1990.5999755859</ele>
        <time>2014-08-24T10:59:59.000Z</time>
      </trkpt>
      <trkpt lat="43.99652" lon="7.43202">
        <ele>1991</ele>
        <time>2014-08-24T11:00:05.000Z</time>
      </trkpt>
      <trkpt lat="43.9965" lon="7.43203">
        <ele>1991</ele>
        <time>2014-08-24T11:00:13.000Z</time>
      </trkpt>
      <trkpt lat="43.99648" lon="7.43204">
        <ele>1991.1999511719</ele>
        <time>2014-08-24T11:00:21.000Z</time>
      </trkpt>
      <trkpt lat="43.99648" lon="7.432">
        <ele>1992.4000244141</ele>
        <time>2014-08-24T11:00:28.000Z</time>
      </trkpt>
      <trkpt lat="43.99653" lon="7.43199">
        <ele>1992</ele>
        <time>2014-08-24T11:00:34.000Z</time>
      </trkpt>
      <trkpt lat="43.99648" lon="7.43193">
        <ele>1994.8000488281</ele>
        <time>2014-08-24T11:00:46.000Z</time>
      </trkpt>
      <trkpt lat="43.99647" lon="7.43192">
        <ele>1995.5999755859</ele>
        <time>2014-08-24T11:01:04.000Z</time>
      </trkpt>
      <trkpt lat="43.99646" lon="7.43192">
        <ele>1996</ele>
        <time>2014-08-24T11:01:14.000Z</time>
      </trkpt>
      <trkpt lat="43.99647" lon="7.43188">
        <ele>1996.8000488281</ele>
        <time>2014-08-24T11:01:21.000Z</time>
      </trkpt>
      <trkpt lat="43.99647" lon="7.43187">
        <ele>1997.4000244141</ele>
        <time>2014-08-24T11:01:28.000Z</time>
      </trkpt>
      <trkpt lat="43.99644" lon="7.43181">
        <ele>2000.1999511719</ele>
        <time>2014-08-24T11:01:49.000Z</time>
      </trkpt>
      <trkpt lat="43.99644" lon="7.43179">
        <ele>2000.8000488281</ele>
        <time>2014-08-24T11:01:57.000Z</time>
      </trkpt>
      <trkpt lat="43.99644" lon="7.43177">
        <ele>2001.8000488281</ele>
        <time>2014-08-24T11:02:03.000Z</time>
      </trkpt>
      <trkpt lat="43.9965" lon="7.43172">
        <ele>2002</ele>
        <time>2014-08-24T11:02:21.000Z</time>
      </trkpt>
      <trkpt lat="43.9965" lon="7.43174">
        <ele>2001.4000244141</ele>
        <time>2014-08-24T11:02:25.000Z</time>
      </trkpt>
      <trkpt lat="43.99653" lon="7.4317">
        <ele>2002.4000244141</ele>
        <time>2014-08-24T11:02:35.000Z</time>
      </trkpt>
      <trkpt lat="43.99653" lon="7.43169">
        <ele>2002.5999755859</ele>
        <time>2014-08-24T11:02:39.000Z</time>
      </trkpt>
      <trkpt lat="43.99654" lon="7.43167">
        <ele>2003</ele>
        <time>2014-08-24T11:02:44.000Z</time>
      </trkpt>
      <trkpt lat="43.99657" lon="7.43161">
        <ele>2004.8000488281</ele>
        <time>2014-08-24T11:02:59.000Z</time>
      </trkpt>
      <trkpt lat="43.99657" lon="7.43158">
        <ele>2006</ele>
        <time>2014-08-24T11:03:04.000Z</time>
      </trkpt>
      <trkpt lat="43.99658" lon="7.43156">
        <ele>2006.4000244141</ele>
        <time>2014-08-24T11:03:14.000Z</time>
      </trkpt>
      <trkpt lat="43.99658" lon="7.43156">
        <ele>2006.1999511719</ele>
        <time>2014-08-24T11:03:23.000Z</time>
      </trkpt>
      <trkpt lat="43.99653" lon="7.43155">
        <ele>2007.8000488281</ele>
        <time>2014-08-24T11:03:38.000Z</time>
      </trkpt>
      <trkpt lat="43.9965" lon="7.43155">
        <ele>2008.8000488281</ele>
        <time>2014-08-24T11:03:53.000Z</time>
      </trkpt>
      <trkpt lat="43.99651" lon="7.43153">
        <ele>2009</ele>
        <time>2014-08-24T11:04:00.000Z</time>
      </trkpt>
      <trkpt lat="43.99654" lon="7.43157">
        <ele>2006.8000488281</ele>
        <time>2014-08-24T11:05:32.000Z</time>
      </trkpt>
      <trkpt lat="43.99654" lon="7.43157">
        <ele>2007</ele>
        <time>2014-08-24T11:06:12.000Z</time>
      </trkpt>
      <trkpt lat="43.99653" lon="7.43154">
        <ele>2008</ele>
        <time>2014-08-24T11:06:16.000Z</time>
      </trkpt>
      <trkpt lat="43.99656" lon="7.43166">
        <ele>2003.4000244141</ele>
        <time>2014-08-24T11:06:35.000Z</time>
      </trkpt>
      <trkpt lat="43.99655" lon="7.43165">
        <ele>2003.5999755859</ele>
        <time>2014-08-24T11:06:39.000Z</time>
      </trkpt>
      <trkpt lat="43.99655" lon="7.43163">
        <ele>2004.4000244141</ele>
        <time>2014-08-24T11:06:45.000Z</time>
      </trkpt>
      <trkpt lat="43.99652" lon="7.4316">
        <ele>2006.4000244141</ele>
        <time>2014-08-24T11:06:52.000Z</time>
      </trkpt>
      <trkpt lat="43.9965" lon="7.43161">
        <ele>2006.4000244141</ele>
        <time>2014-08-24T11:07:04.000Z</time>
      </trkpt>
      <trkpt lat="43.99645" lon="7.43163">
        <ele>2006.4000244141</ele>
        <time>2014-08-24T11:07:09.000Z</time>
      </trkpt>
      <trkpt lat="43.99637" lon="7.43168">
        <ele>2006.4000244141</ele>
        <time>2014-08-24T11:07:16.000Z</time>
      </trkpt>
      <trkpt lat="43.99629" lon="7.43173">
        <ele>2006</ele>
        <time>2014-08-24T11:07:24.000Z</time>
      </trkpt>
      <trkpt lat="43.99624" lon="7.43179">
        <ele>2005</ele>
        <time>2014-08-24T11:07:32.000Z</time>
      </trkpt>
      <trkpt lat="43.99619" lon="7.43181">
        <ele>2004.8000488281</ele>
        <time>2014-08-24T11:07:40.000Z</time>
      </trkpt>
      <trkpt lat="43.99615" lon="7.43189">
        <ele>2002</ele>
        <time>2014-08-24T11:07:50.000Z</time>
      </trkpt>
      <trkpt lat="43.99606" lon="7.4319">
        <ele>2002</ele>
        <time>2014-08-24T11:07:57.000Z</time>
      </trkpt>
      <trkpt lat="43.99599" lon="7.43191">
        <ele>2001</ele>
        <time>2014-08-24T11:08:02.000Z</time>
      </trkpt>
      <trkpt lat="43.99597" lon="7.43192">
        <ele>2000.1999511719</ele>
        <time>2014-08-24T11:08:05.000Z</time>
      </trkpt>
      <trkpt lat="43.99591" lon="7.43192">
        <ele>1999.8000488281</ele>
        <time>2014-08-24T11:08:10.000Z</time>
      </trkpt>
      <trkpt lat="43.9959" lon="7.43192">
        <ele>1999.8000488281</ele>
        <time>2014-08-24T11:08:11.000Z</time>
      </trkpt>
      <trkpt lat="43.99579" lon="7.4319">
        <ele>1999.4000244141</ele>
        <time>2014-08-24T11:08:22.000Z</time>
      </trkpt>
      <trkpt lat="43.99566" lon="7.43189">
        <ele>1999</ele>
        <time>2014-08-24T11:08:35.000Z</time>
      </trkpt>
      <trkpt lat="43.99555" lon="7.43184">
        <ele>2000.4000244141</ele>
        <time>2014-08-24T11:08:45.000Z</time>
      </trkpt>
      <trkpt lat="43.99544" lon="7.43181">
        <ele>2000.8000488281</ele>
        <time>2014-08-24T11:08:56.000Z</time>
      </trkpt>
      <trkpt lat="43.99531" lon="7.43177">
        <ele>2001.8000488281</ele>
        <time>2014-08-24T11:09:08.000Z</time>
      </trkpt>
      <trkpt lat="43.9952" lon="7.43175">
        <ele>2002.4000244141</ele>
        <time>2014-08-24T11:09:18.000Z</time>
      </trkpt>
      <trkpt lat="43.99516" lon="7.43174">
        <ele>2002.5999755859</ele>
        <time>2014-08-24T11:09:25.000Z</time>
      </trkpt>
      <trkpt lat="43.9951" lon="7.43174">
        <ele>2002.4000244141</ele>
        <time>2014-08-24T11:09:31.000Z</time>
      </trkpt>
      <trkpt lat="43.99503" lon="7.43176">
        <ele>2001.1999511719</ele>
        <time>2014-08-24T11:09:38.000Z</time>
      </trkpt>
      <trkpt lat="43.99493" lon="7.4318">
        <ele>1999.4000244141</ele>
        <time>2014-08-24T11:09:49.000Z</time>
      </trkpt>
      <trkpt lat="43.99485" lon="7.43182">
        <ele>1998.4000244141</ele>
        <time>2014-08-24T11:09:58.000Z</time>
      </trkpt>
      <trkpt lat="43.99484" lon="7.43184">
        <ele>1997.8000488281</ele>
        <time>2014-08-24T11:09:59.000Z</time>
      </trkpt>
      <trkpt lat="43.99476" lon="7.43189">
        <ele>1995.4000244141</ele>
        <time>2014-08-24T11:10:08.000Z</time>
      </trkpt>
      <trkpt lat="43.99467" lon="7.43192">
        <ele>1994.1999511719</ele>
        <time>2014-08-24T11:10:17.000Z</time>
      </trkpt>
      <trkpt lat="43.99455" lon="7.43197">
        <ele>1993.8000488281</ele>
        <time>2014-08-24T11:10:29.000Z</time>
      </trkpt>
      <trkpt lat="43.99447" lon="7.43199">
        <ele>1994</ele>
        <time>2014-08-24T11:10:37.000Z</time>
      </trkpt>
      <trkpt lat="43.99438" lon="7.432">
        <ele>1993.1999511719</ele>
        <time>2014-08-24T11:10:45.000Z</time>
      </trkpt>
      <trkpt lat="43.99428" lon="7.43203">
        <ele>1989.8000488281</ele>
        <time>2014-08-24T11:10:55.000Z</time>
      </trkpt>
      <trkpt lat="43.99423" lon="7.43204">
        <ele>1988</ele>
        <time>2014-08-24T11:11:02.000Z</time>
      </trkpt>
      <trkpt lat="43.99415" lon="7.43206">
        <ele>1985.5999755859</ele>
        <time>2014-08-24T11:11:09.000Z</time>
      </trkpt>
      <trkpt lat="43.99405" lon="7.43209">
        <ele>1982</ele>
        <time>2014-08-24T11:11:18.000Z</time>
      </trkpt>
      <trkpt lat="43.99404" lon="7.43208">
        <ele>1982</ele>
        <time>2014-08-24T11:11:19.000Z</time>
      </trkpt>
      <trkpt lat="43.99397" lon="7.43211">
        <ele>1981.5999755859</ele>
        <time>2014-08-24T11:11:24.000Z</time>
      </trkpt>
      <trkpt lat="43.99389" lon="7.43213">
        <ele>1982.1999511719</ele>
        <time>2014-08-24T11:11:31.000Z</time>
      </trkpt>
      <trkpt lat="43.99381" lon="7.43209">
        <ele>1982.4000244141</ele>
        <time>2014-08-24T11:11:38.000Z</time>
      </trkpt>
      <trkpt lat="43.99376" lon="7.43203">
        <ele>1982</ele>
        <time>2014-08-24T11:11:45.000Z</time>
      </trkpt>
      <trkpt lat="43.9937" lon="7.43192">
        <ele>1981</ele>
        <time>2014-08-24T11:11:53.000Z</time>
      </trkpt>
      <trkpt lat="43.99367" lon="7.43186">
        <ele>1980.5999755859</ele>
        <time>2014-08-24T11:11:58.000Z</time>
      </trkpt>
      <trkpt lat="43.99365" lon="7.43183">
        <ele>1980.4000244141</ele>
        <time>2014-08-24T11:12:00.000Z</time>
      </trkpt>
      <trkpt lat="43.99362" lon="7.43177">
        <ele>1980</ele>
        <time>2014-08-24T11:12:05.000Z</time>
      </trkpt>
      <trkpt lat="43.99358" lon="7.43165">
        <ele>1978.8000488281</ele>
        <time>2014-08-24T11:12:13.000Z</time>
      </trkpt>
      <trkpt lat="43.99353" lon="7.43153">
        <ele>1976</ele>
        <time>2014-08-24T11:12:22.000Z</time>
      </trkpt>
      <trkpt lat="43.99352" lon="7.43152">
        <ele>1975.4000244141</ele>
        <time>2014-08-24T11:12:23.000Z</time>
      </trkpt>
      <trkpt lat="43.9935" lon="7.43147">
        <ele>1974.4000244141</ele>
        <time>2014-08-24T11:12:27.000Z</time>
      </trkpt>
      <trkpt lat="43.99345" lon="7.43134">
        <ele>1971.8000488281</ele>
        <time>2014-08-24T11:12:35.000Z</time>
      </trkpt>
      <trkpt lat="43.99345" lon="7.43124">
        <ele>1971.5999755859</ele>
        <time>2014-08-24T11:12:42.000Z</time>
      </trkpt>
      <trkpt lat="43.99346" lon="7.43113">
        <ele>1972</ele>
        <time>2014-08-24T11:12:50.000Z</time>
      </trkpt>
      <trkpt lat="43.99345" lon="7.43101">
        <ele>1971.8000488281</ele>
        <time>2014-08-24T11:12:58.000Z</time>
      </trkpt>
      <trkpt lat="43.99346" lon="7.43084">
        <ele>1972</ele>
        <time>2014-08-24T11:13:09.000Z</time>
      </trkpt>
      <trkpt lat="43.99348" lon="7.43069">
        <ele>1971.4000244141</ele>
        <time>2014-08-24T11:13:18.000Z</time>
      </trkpt>
      <trkpt lat="43.99348" lon="7.43057">
        <ele>1971.4000244141</ele>
        <time>2014-08-24T11:13:25.000Z</time>
      </trkpt>
      <trkpt lat="43.99347" lon="7.4305">
        <ele>1970.5999755859</ele>
        <time>2014-08-24T11:13:30.000Z</time>
      </trkpt>
      <trkpt lat="43.99347" lon="7.43049">
        <ele>1970.1999511719</ele>
        <time>2014-08-24T11:13:31.000Z</time>
      </trkpt>
      <trkpt lat="43.99348" lon="7.43046">
        <ele>1970.5999755859</ele>
        <time>2014-08-24T11:13:34.000Z</time>
      </trkpt>
      <trkpt lat="43.99347" lon="7.43041">
        <ele>1970.4000244141</ele>
        <time>2014-08-24T11:13:38.000Z</time>
      </trkpt>
      <trkpt lat="43.99347" lon="7.43037">
        <ele>1970</ele>
        <time>2014-08-24T11:13:41.000Z</time>
      </trkpt>
      <trkpt lat="43.99347" lon="7.43029">
        <ele>1969.4000244141</ele>
        <time>2014-08-24T11:13:47.000Z</time>
      </trkpt>
      <trkpt lat="43.99347" lon="7.43027">
        <ele>1969.8000488281</ele>
        <time>2014-08-24T11:13:48.000Z</time>
      </trkpt>
      <trkpt lat="43.99348" lon="7.43018">
        <ele>1970</ele>
        <time>2014-08-24T11:13:53.000Z</time>
      </trkpt>
      <trkpt lat="43.99348" lon="7.43014">
        <ele>1970.4000244141</ele>
        <time>2014-08-24T11:13:56.000Z</time>
      </trkpt>
      <trkpt lat="43.99347" lon="7.43011">
        <ele>1969.1999511719</ele>
        <time>2014-08-24T11:13:59.000Z</time>
      </trkpt>
      <trkpt lat="43.99348" lon="7.42999">
        <ele>1970</ele>
        <time>2014-08-24T11:14:07.000Z</time>
      </trkpt>
      <trkpt lat="43.99349" lon="7.42996">
        <ele>1970.1999511719</ele>
        <time>2014-08-24T11:14:09.000Z</time>
      </trkpt>
      <trkpt lat="43.99348" lon="7.42989">
        <ele>1969.4000244141</ele>
        <time>2014-08-24T11:14:13.000Z</time>
      </trkpt>
      <trkpt lat="43.99347" lon="7.42968">
        <ele>1966</ele>
        <time>2014-08-24T11:14:25.000Z</time>
      </trkpt>
      <trkpt lat="43.99346" lon="7.42955">
        <ele>1963.1999511719</ele>
        <time>2014-08-24T11:14:33.000Z</time>
      </trkpt>
      <trkpt lat="43.99349" lon="7.42945">
        <ele>1963.5999755859</ele>
        <time>2014-08-24T11:14:40.000Z</time>
      </trkpt>
      <trkpt lat="43.99356" lon="7.42935">
        <ele>1966.4000244141</ele>
        <time>2014-08-24T11:14:48.000Z</time>
      </trkpt>
      <trkpt lat="43.99363" lon="7.42926">
        <ele>1968.5999755859</ele>
        <time>2014-08-24T11:14:56.000Z</time>
      </trkpt>
      <trkpt lat="43.99372" lon="7.42922">
        <ele>1971</ele>
        <time>2014-08-24T11:15:04.000Z</time>
      </trkpt>
      <trkpt lat="43.99377" lon="7.42918">
        <ele>1971.4000244141</ele>
        <time>2014-08-24T11:15:11.000Z</time>
      </trkpt>
      <trkpt lat="43.99384" lon="7.42918">
        <ele>1973.5999755859</ele>
        <time>2014-08-24T11:15:16.000Z</time>
      </trkpt>
      <trkpt lat="43.99388" lon="7.42919">
        <ele>1975</ele>
        <time>2014-08-24T11:15:18.000Z</time>
      </trkpt>
      <trkpt lat="43.99392" lon="7.4292">
        <ele>1976.5999755859</ele>
        <time>2014-08-24T11:15:25.000Z</time>
      </trkpt>
      <trkpt lat="43.99402" lon="7.4292">
        <ele>1979.5999755859</ele>
        <time>2014-08-24T11:15:32.000Z</time>
      </trkpt>
      <trkpt lat="43.99407" lon="7.42919">
        <ele>1980.5999755859</ele>
        <time>2014-08-24T11:15:36.000Z</time>
      </trkpt>
      <trkpt lat="43.99408" lon="7.42918">
        <ele>1980.8000488281</ele>
        <time>2014-08-24T11:15:37.000Z</time>
      </trkpt>
      <trkpt lat="43.99411" lon="7.42917">
        <ele>1981.4000244141</ele>
        <time>2014-08-24T11:15:40.000Z</time>
      </trkpt>
      <trkpt lat="43.99418" lon="7.42913">
        <ele>1982</ele>
        <time>2014-08-24T11:15:45.000Z</time>
      </trkpt>
      <trkpt lat="43.99422" lon="7.42903">
        <ele>1979.4000244141</ele>
        <time>2014-08-24T11:15:53.000Z</time>
      </trkpt>
      <trkpt lat="43.99428" lon="7.42893">
        <ele>1977.8000488281</ele>
        <time>2014-08-24T11:16:01.000Z</time>
      </trkpt>
      <trkpt lat="43.99434" lon="7.42881">
        <ele>1976.1999511719</ele>
        <time>2014-08-24T11:16:10.000Z</time>
      </trkpt>
      <trkpt lat="43.9944" lon="7.42869">
        <ele>1974.4000244141</ele>
        <time>2014-08-24T11:16:20.000Z</time>
      </trkpt>
      <trkpt lat="43.99441" lon="7.42862">
        <ele>1972.1999511719</ele>
        <time>2014-08-24T11:16:27.000Z</time>
      </trkpt>
      <trkpt lat="43.99444" lon="7.42857">
        <ele>1972.4000244141</ele>
        <time>2014-08-24T11:16:31.000Z</time>
      </trkpt>
      <trkpt lat="43.99448" lon="7.42852">
        <ele>1972.5999755859</ele>
        <time>2014-08-24T11:16:35.000Z</time>
      </trkpt>
      <trkpt lat="43.99452" lon="7.42845">
        <ele>1972.5999755859</ele>
        <time>2014-08-24T11:16:43.000Z</time>
      </trkpt>
      <trkpt lat="43.99453" lon="7.42841">
        <ele>1971.5999755859</ele>
        <time>2014-08-24T11:16:47.000Z</time>
      </trkpt>
      <trkpt lat="43.99453" lon="7.42841">
        <ele>1971.8000488281</ele>
        <time>2014-08-24T11:16:48.000Z</time>
      </trkpt>
      <trkpt lat="43.99461" lon="7.42828">
        <ele>1971</ele>
        <time>2014-08-24T11:16:58.000Z</time>
      </trkpt>
      <trkpt lat="43.99469" lon="7.42815">
        <ele>1970.5999755859</ele>
        <time>2014-08-24T11:17:09.000Z</time>
      </trkpt>
      <trkpt lat="43.99475" lon="7.42806">
        <ele>1970.5999755859</ele>
        <time>2014-08-24T11:17:17.000Z</time>
      </trkpt>
      <trkpt lat="43.99483" lon="7.42796">
        <ele>1970.8000488281</ele>
        <time>2014-08-24T11:17:26.000Z</time>
      </trkpt>
      <trkpt lat="43.99488" lon="7.42786">
        <ele>1970.4000244141</ele>
        <time>2014-08-24T11:17:35.000Z</time>
      </trkpt>
      <trkpt lat="43.99492" lon="7.42774">
        <ele>1969.4000244141</ele>
        <time>2014-08-24T11:17:43.000Z</time>
      </trkpt>
      <trkpt lat="43.99496" lon="7.42771">
        <ele>1970.5999755859</ele>
        <time>2014-08-24T11:17:48.000Z</time>
      </trkpt>
      <trkpt lat="43.99497" lon="7.42771">
        <ele>1970.8000488281</ele>
        <time>2014-08-24T11:17:53.000Z</time>
      </trkpt>
      <trkpt lat="43.99497" lon="7.42769">
        <ele>1970.1999511719</ele>
        <time>2014-08-24T11:17:59.000Z</time>
      </trkpt>
      <trkpt lat="43.99498" lon="7.42765">
        <ele>1969.8000488281</ele>
        <time>2014-08-24T11:18:02.000Z</time>
      </trkpt>
      <trkpt lat="43.99499" lon="7.42764">
        <ele>1969.8000488281</ele>
        <time>2014-08-24T11:18:03.000Z</time>
      </trkpt>
      <trkpt lat="43.99501" lon="7.42752">
        <ele>1967.8000488281</ele>
        <time>2014-08-24T11:18:12.000Z</time>
      </trkpt>
      <trkpt lat="43.99506" lon="7.42737">
        <ele>1965.1999511719</ele>
        <time>2014-08-24T11:18:22.000Z</time>
      </trkpt>
      <trkpt lat="43.99507" lon="7.4273">
        <ele>1964</ele>
        <time>2014-08-24T11:18:27.000Z</time>
      </trkpt>
      <trkpt lat="43.9951" lon="7.42722">
        <ele>1963.4000244141</ele>
        <time>2014-08-24T11:18:32.000Z</time>
      </trkpt>
      <trkpt lat="43.99516" lon="7.42711">
        <ele>1965</ele>
        <time>2014-08-24T11:18:38.000Z</time>
      </trkpt>
      <trkpt lat="43.99523" lon="7.42699">
        <ele>1967</ele>
        <time>2014-08-24T11:18:46.000Z</time>
      </trkpt>
      <trkpt lat="43.99527" lon="7.42691">
        <ele>1967.1999511719</ele>
        <time>2014-08-24T11:18:52.000Z</time>
      </trkpt>
      <trkpt lat="43.99534" lon="7.42679">
        <ele>1968.4000244141</ele>
        <time>2014-08-24T11:19:02.000Z</time>
      </trkpt>
      <trkpt lat="43.9954" lon="7.4267">
        <ele>1968.4000244141</ele>
        <time>2014-08-24T11:19:11.000Z</time>
      </trkpt>
      <trkpt lat="43.9955" lon="7.42658">
        <ele>1968.4000244141</ele>
        <time>2014-08-24T11:19:20.000Z</time>
      </trkpt>
      <trkpt lat="43.99561" lon="7.42643">
        <ele>1968.5999755859</ele>
        <time>2014-08-24T11:19:32.000Z</time>
      </trkpt>
      <trkpt lat="43.99565" lon="7.42634">
        <ele>1967</ele>
        <time>2014-08-24T11:19:41.000Z</time>
      </trkpt>
      <trkpt lat="43.99569" lon="7.4262">
        <ele>1964.8000488281</ele>
        <time>2014-08-24T11:19:52.000Z</time>
      </trkpt>
      <trkpt lat="43.99572" lon="7.42605">
        <ele>1962.8000488281</ele>
        <time>2014-08-24T11:20:02.000Z</time>
      </trkpt>
      <trkpt lat="43.99574" lon="7.42589">
        <ele>1960.1999511719</ele>
        <time>2014-08-24T11:20:12.000Z</time>
      </trkpt>
      <trkpt lat="43.99575" lon="7.4257">
        <ele>1956.5999755859</ele>
        <time>2014-08-24T11:20:23.000Z</time>
      </trkpt>
      <trkpt lat="43.99575" lon="7.4256">
        <ele>1954.4000244141</ele>
        <time>2014-08-24T11:20:30.000Z</time>
      </trkpt>
      <trkpt lat="43.99576" lon="7.42556">
        <ele>1954</ele>
        <time>2014-08-24T11:20:32.000Z</time>
      </trkpt>
      <trkpt lat="43.99577" lon="7.42546">
        <ele>1953</ele>
        <time>2014-08-24T11:20:37.000Z</time>
      </trkpt>
      <trkpt lat="43.99577" lon="7.42543">
        <ele>1953</ele>
        <time>2014-08-24T11:20:39.000Z</time>
      </trkpt>
      <trkpt lat="43.99576" lon="7.42525">
        <ele>1951.1999511719</ele>
        <time>2014-08-24T11:20:51.000Z</time>
      </trkpt>
      <trkpt lat="43.99576" lon="7.42511">
        <ele>1950.8000488281</ele>
        <time>2014-08-24T11:21:01.000Z</time>
      </trkpt>
      <trkpt lat="43.99579" lon="7.42495">
        <ele>1952.4000244141</ele>
        <time>2014-08-24T11:21:14.000Z</time>
      </trkpt>
      <trkpt lat="43.99578" lon="7.42484">
        <ele>1953</ele>
        <time>2014-08-24T11:21:37.000Z</time>
      </trkpt>
      <trkpt lat="43.99578" lon="7.4247">
        <ele>1953.8000488281</ele>
        <time>2014-08-24T11:21:46.000Z</time>
      </trkpt>
      <trkpt lat="43.99576" lon="7.4246">
        <ele>1953.4000244141</ele>
        <time>2014-08-24T11:21:53.000Z</time>
      </trkpt>
      <trkpt lat="43.99574" lon="7.42446">
        <ele>1952.1999511719</ele>
        <time>2014-08-24T11:22:04.000Z</time>
      </trkpt>
      <trkpt lat="43.99574" lon="7.42445">
        <ele>1952.1999511719</ele>
        <time>2014-08-24T11:22:05.000Z</time>
      </trkpt>
      <trkpt lat="43.99577" lon="7.42441">
        <ele>1954.4000244141</ele>
        <time>2014-08-24T11:22:10.000Z</time>
      </trkpt>
      <trkpt lat="43.99573" lon="7.42434">
        <ele>1952.1999511719</ele>
        <time>2014-08-24T11:22:19.000Z</time>
      </trkpt>
      <trkpt lat="43.99574" lon="7.42434">
        <ele>1952.4000244141</ele>
        <time>2014-08-24T11:22:25.000Z</time>
      </trkpt>
      <trkpt lat="43.99573" lon="7.4243">
        <ele>1952.4000244141</ele>
        <time>2014-08-24T11:22:32.000Z</time>
      </trkpt>
      <trkpt lat="43.9957" lon="7.4243">
        <ele>1950</ele>
        <time>2014-08-24T11:22:35.000Z</time>
      </trkpt>
      <trkpt lat="43.99567" lon="7.42422">
        <ele>1948.8000488281</ele>
        <time>2014-08-24T11:22:41.000Z</time>
      </trkpt>
      <trkpt lat="43.99566" lon="7.42402">
        <ele>1950.5999755859</ele>
        <time>2014-08-24T11:22:55.000Z</time>
      </trkpt>
      <trkpt lat="43.99561" lon="7.42391">
        <ele>1949.8000488281</ele>
        <time>2014-08-24T11:23:04.000Z</time>
      </trkpt>
      <trkpt lat="43.99552" lon="7.42382">
        <ele>1945.4000244141</ele>
        <time>2014-08-24T11:23:13.000Z</time>
      </trkpt>
      <trkpt lat="43.99545" lon="7.42369">
        <ele>1944</ele>
        <time>2014-08-24T11:23:23.000Z</time>
      </trkpt>
      <trkpt lat="43.99544" lon="7.42363">
        <ele>1944</ele>
        <time>2014-08-24T11:23:29.000Z</time>
      </trkpt>
      <trkpt lat="43.99541" lon="7.42359">
        <ele>1943.1999511719</ele>
        <time>2014-08-24T11:23:36.000Z</time>
      </trkpt>
      <trkpt lat="43.99542" lon="7.42358">
        <ele>1943.8000488281</ele>
        <time>2014-08-24T11:23:37.000Z</time>
      </trkpt>
      <trkpt lat="43.99542" lon="7.42354">
        <ele>1945</ele>
        <time>2014-08-24T11:23:39.000Z</time>
      </trkpt>
      <trkpt lat="43.99542" lon="7.42353">
        <ele>1945</ele>
        <time>2014-08-24T11:23:40.000Z</time>
      </trkpt>
      <trkpt lat="43.9954" lon="7.42341">
        <ele>1946.1999511719</ele>
        <time>2014-08-24T11:23:47.000Z</time>
      </trkpt>
      <trkpt lat="43.99541" lon="7.4234">
        <ele>1946.5999755859</ele>
        <time>2014-08-24T11:23:48.000Z</time>
      </trkpt>
      <trkpt lat="43.99537" lon="7.42334">
        <ele>1945.5999755859</ele>
        <time>2014-08-24T11:23:52.000Z</time>
      </trkpt>
      <trkpt lat="43.99537" lon="7.42333">
        <ele>1945.5999755859</ele>
        <time>2014-08-24T11:23:53.000Z</time>
      </trkpt>
      <trkpt lat="43.99531" lon="7.42328">
        <ele>1942.5999755859</ele>
        <time>2014-08-24T11:23:58.000Z</time>
      </trkpt>
      <trkpt lat="43.99531" lon="7.42326">
        <ele>1942.4000244141</ele>
        <time>2014-08-24T11:23:59.000Z</time>
      </trkpt>
      <trkpt lat="43.99528" lon="7.42319">
        <ele>1941.8000488281</ele>
        <time>2014-08-24T11:24:04.000Z</time>
      </trkpt>
      <trkpt lat="43.99526" lon="7.42308">
        <ele>1942</ele>
        <time>2014-08-24T11:24:11.000Z</time>
      </trkpt>
      <trkpt lat="43.99522" lon="7.42295">
        <ele>1941</ele>
        <time>2014-08-24T11:24:21.000Z</time>
      </trkpt>
      <trkpt lat="43.99514" lon="7.42282">
        <ele>1938.4000244141</ele>
        <time>2014-08-24T11:24:31.000Z</time>
      </trkpt>
      <trkpt lat="43.99504" lon="7.42275">
        <ele>1932.8000488281</ele>
        <time>2014-08-24T11:24:39.000Z</time>
      </trkpt>
      <trkpt lat="43.99499" lon="7.42264">
        <ele>1930.8000488281</ele>
        <time>2014-08-24T11:24:46.000Z</time>
      </trkpt>
      <trkpt lat="43.99491" lon="7.42248">
        <ele>1928</ele>
        <time>2014-08-24T11:24:57.000Z</time>
      </trkpt>
      <trkpt lat="43.99488" lon="7.42231">
        <ele>1928</ele>
        <time>2014-08-24T11:25:07.000Z</time>
      </trkpt>
      <trkpt lat="43.99486" lon="7.42208">
        <ele>1929.4000244141</ele>
        <time>2014-08-24T11:25:20.000Z</time>
      </trkpt>
      <trkpt lat="43.99487" lon="7.42195">
        <ele>1929.1999511719</ele>
        <time>2014-08-24T11:25:29.000Z</time>
      </trkpt>
      <trkpt lat="43.99488" lon="7.42181">
        <ele>1929.5999755859</ele>
        <time>2014-08-24T11:25:38.000Z</time>
      </trkpt>
      <trkpt lat="43.99492" lon="7.42163">
        <ele>1930.1999511719</ele>
        <time>2014-08-24T11:25:49.000Z</time>
      </trkpt>
      <trkpt lat="43.99493" lon="7.4215">
        <ele>1928.5999755859</ele>
        <time>2014-08-24T11:25:57.000Z</time>
      </trkpt>
      <trkpt lat="43.99496" lon="7.42134">
        <ele>1927.1999511719</ele>
        <time>2014-08-24T11:26:07.000Z</time>
      </trkpt>
      <trkpt lat="43.99502" lon="7.42116">
        <ele>1926</ele>
        <time>2014-08-24T11:26:16.000Z</time>
      </trkpt>
      <trkpt lat="43.99513" lon="7.42098">
        <ele>1927</ele>
        <time>2014-08-24T11:26:21.000Z</time>
      </trkpt>
      <trkpt lat="43.99523" lon="7.42078">
        <ele>1926.5999755859</ele>
        <time>2014-08-24T11:26:26.000Z</time>
      </trkpt>
      <trkpt lat="43.99527" lon="7.42074">
        <ele>1927</ele>
        <time>2014-08-24T11:26:27.000Z</time>
      </trkpt>
      <trkpt lat="43.99535" lon="7.42051">
        <ele>1922.5999755859</ele>
        <time>2014-08-24T11:26:32.000Z</time>
      </trkpt>
      <trkpt lat="43.99535" lon="7.42044">
        <ele>1920.5999755859</ele>
        <time>2014-08-24T11:26:33.000Z</time>
      </trkpt>
      <trkpt lat="43.9954" lon="7.42023">
        <ele>1915</ele>
        <time>2014-08-24T11:26:37.000Z</time>
      </trkpt>
      <trkpt lat="43.99548" lon="7.41999">
        <ele>1912.5999755859</ele>
        <time>2014-08-24T11:26:41.000Z</time>
      </trkpt>
      <trkpt lat="43.9955" lon="7.41987">
        <ele>1910</ele>
        <time>2014-08-24T11:26:43.000Z</time>
      </trkpt>
      <trkpt lat="43.99552" lon="7.41981">
        <ele>1909.4000244141</ele>
        <time>2014-08-24T11:26:44.000Z</time>
      </trkpt>
      <trkpt lat="43.99557" lon="7.4197">
        <ele>1908.4000244141</ele>
        <time>2014-08-24T11:26:46.000Z</time>
      </trkpt>
      <trkpt lat="43.99562" lon="7.41954">
        <ele>1906.5999755859</ele>
        <time>2014-08-24T11:26:49.000Z</time>
      </trkpt>
      <trkpt lat="43.99574" lon="7.4193">
        <ele>1907.4000244141</ele>
        <time>2014-08-24T11:26:54.000Z</time>
      </trkpt>
      <trkpt lat="43.99576" lon="7.41925">
        <ele>1907</ele>
        <time>2014-08-24T11:26:55.000Z</time>
      </trkpt>
      <trkpt lat="43.99585" lon="7.41903">
        <ele>1906.5999755859</ele>
        <time>2014-08-24T11:26:59.000Z</time>
      </trkpt>
      <trkpt lat="43.99586" lon="7.41897">
        <ele>1905.8000488281</ele>
        <time>2014-08-24T11:27:00.000Z</time>
      </trkpt>
      <trkpt lat="43.99596" lon="7.41878">
        <ele>1907.8000488281</ele>
        <time>2014-08-24T11:27:04.000Z</time>
      </trkpt>
      <trkpt lat="43.99599" lon="7.41863">
        <ele>1905.4000244141</ele>
        <time>2014-08-24T11:27:07.000Z</time>
      </trkpt>
      <trkpt lat="43.99601" lon="7.41851">
        <ele>1904.1999511719</ele>
        <time>2014-08-24T11:27:09.000Z</time>
      </trkpt>
      <trkpt lat="43.99606" lon="7.41823">
        <ele>1901.1999511719</ele>
        <time>2014-08-24T11:27:14.000Z</time>
      </trkpt>
      <trkpt lat="43.99607" lon="7.41816">
        <ele>1901</ele>
        <time>2014-08-24T11:27:15.000Z</time>
      </trkpt>
      <trkpt lat="43.9961" lon="7.4179">
        <ele>1899.1999511719</ele>
        <time>2014-08-24T11:27:20.000Z</time>
      </trkpt>
      <trkpt lat="43.99612" lon="7.41778">
        <ele>1898.4000244141</ele>
        <time>2014-08-24T11:27:22.000Z</time>
      </trkpt>
      <trkpt lat="43.99616" lon="7.41753">
        <ele>1897.5999755859</ele>
        <time>2014-08-24T11:27:27.000Z</time>
      </trkpt>
      <trkpt lat="43.99617" lon="7.41728">
        <ele>1897.8000488281</ele>
        <time>2014-08-24T11:27:32.000Z</time>
      </trkpt>
      <trkpt lat="43.99617" lon="7.41723">
        <ele>1897.5999755859</ele>
        <time>2014-08-24T11:27:33.000Z</time>
      </trkpt>
      <trkpt lat="43.99614" lon="7.41697">
        <ele>1895</ele>
        <time>2014-08-24T11:27:38.000Z</time>
      </trkpt>
      <trkpt lat="43.99614" lon="7.41692">
        <ele>1895</ele>
        <time>2014-08-24T11:27:39.000Z</time>
      </trkpt>
      <trkpt lat="43.99608" lon="7.41669">
        <ele>1890.5999755859</ele>
        <time>2014-08-24T11:27:44.000Z</time>
      </trkpt>
      <trkpt lat="43.99599" lon="7.41643">
        <ele>1887.1999511719</ele>
        <time>2014-08-24T11:27:50.000Z</time>
      </trkpt>
      <trkpt lat="43.99596" lon="7.41638">
        <ele>1886</ele>
        <time>2014-08-24T11:27:51.000Z</time>
      </trkpt>
      <trkpt lat="43.99592" lon="7.4162">
        <ele>1885.5999755859</ele>
        <time>2014-08-24T11:27:55.000Z</time>
      </trkpt>
      <trkpt lat="43.99589" lon="7.41615">
        <ele>1884.4000244141</ele>
        <time>2014-08-24T11:27:56.000Z</time>
      </trkpt>
      <trkpt lat="43.99581" lon="7.41589">
        <ele>1881.4000244141</ele>
        <time>2014-08-24T11:28:02.000Z</time>
      </trkpt>
      <trkpt lat="43.99573" lon="7.41564">
        <ele>1877</ele>
        <time>2014-08-24T11:28:07.000Z</time>
      </trkpt>
      <trkpt lat="43.99573" lon="7.41558">
        <ele>1876.5999755859</ele>
        <time>2014-08-24T11:28:08.000Z</time>
      </trkpt>
      <trkpt lat="43.99574" lon="7.41539">
        <ele>1877</ele>
        <time>2014-08-24T11:28:11.000Z</time>
      </trkpt>
      <trkpt lat="43.99574" lon="7.41524">
        <ele>1877.4000244141</ele>
        <time>2014-08-24T11:28:14.000Z</time>
      </trkpt>
      <trkpt lat="43.99576" lon="7.41513">
        <ele>1878.1999511719</ele>
        <time>2014-08-24T11:28:16.000Z</time>
      </trkpt>
      <trkpt lat="43.99578" lon="7.41498">
        <ele>1879.8000488281</ele>
        <time>2014-08-24T11:28:19.000Z</time>
      </trkpt>
      <trkpt lat="43.99579" lon="7.41482">
        <ele>1880.1999511719</ele>
        <time>2014-08-24T11:28:22.000Z</time>
      </trkpt>
      <trkpt lat="43.99581" lon="7.41471">
        <ele>1880.8000488281</ele>
        <time>2014-08-24T11:28:24.000Z</time>
      </trkpt>
      <trkpt lat="43.99581" lon="7.41446">
        <ele>1879.5999755859</ele>
        <time>2014-08-24T11:28:29.000Z</time>
      </trkpt>
      <trkpt lat="43.9958" lon="7.41423">
        <ele>1877.5999755859</ele>
        <time>2014-08-24T11:28:34.000Z</time>
      </trkpt>
      <trkpt lat="43.99576" lon="7.41404">
        <ele>1876.1999511719</ele>
        <time>2014-08-24T11:28:39.000Z</time>
      </trkpt>
      <trkpt lat="43.9957" lon="7.41382">
        <ele>1876.1999511719</ele>
        <time>2014-08-24T11:28:45.000Z</time>
      </trkpt>
      <trkpt lat="43.99565" lon="7.41362">
        <ele>1873.5999755859</ele>
        <time>2014-08-24T11:28:50.000Z</time>
      </trkpt>
      <trkpt lat="43.99561" lon="7.41344">
        <ele>1870.4000244141</ele>
        <time>2014-08-24T11:28:55.000Z</time>
      </trkpt>
      <trkpt lat="43.99556" lon="7.41329">
        <ele>1868</ele>
        <time>2014-08-24T11:29:00.000Z</time>
      </trkpt>
      <trkpt lat="43.99554" lon="7.41323">
        <ele>1867.8000488281</ele>
        <time>2014-08-24T11:29:05.000Z</time>
      </trkpt>
      <trkpt lat="43.99555" lon="7.41327">
        <ele>1867.5999755859</ele>
        <time>2014-08-24T11:29:09.000Z</time>
      </trkpt>
      <trkpt lat="43.99555" lon="7.41328">
        <ele>1867.8000488281</ele>
        <time>2014-08-24T11:29:10.000Z</time>
      </trkpt>
      <trkpt lat="43.9956" lon="7.41334">
        <ele>1868.8000488281</ele>
        <time>2014-08-24T11:29:16.000Z</time>
      </trkpt>
      <trkpt lat="43.99564" lon="7.4135">
        <ele>1872.1999511719</ele>
        <time>2014-08-24T11:29:23.000Z</time>
      </trkpt>
      <trkpt lat="43.9957" lon="7.41367">
        <ele>1875.8000488281</ele>
        <time>2014-08-24T11:29:30.000Z</time>
      </trkpt>
      <trkpt lat="43.9957" lon="7.41378">
        <ele>1877</ele>
        <time>2014-08-24T11:29:35.000Z</time>
      </trkpt>
      <trkpt lat="43.99573" lon="7.41396">
        <ele>1875.8000488281</ele>
        <time>2014-08-24T11:29:43.000Z</time>
      </trkpt>
      <trkpt lat="43.99578" lon="7.41411">
        <ele>1876.4000244141</ele>
        <time>2014-08-24T11:29:50.000Z</time>
      </trkpt>
      <trkpt lat="43.9958" lon="7.41424">
        <ele>1877.5999755859</ele>
        <time>2014-08-24T11:29:56.000Z</time>
      </trkpt>
      <trkpt lat="43.99583" lon="7.41444">
        <ele>1880.4000244141</ele>
        <time>2014-08-24T11:30:04.000Z</time>
      </trkpt>
      <trkpt lat="43.99583" lon="7.41464">
        <ele>1881.8000488281</ele>
        <time>2014-08-24T11:30:11.000Z</time>
      </trkpt>
      <trkpt lat="43.99581" lon="7.41475">
        <ele>1881.1999511719</ele>
        <time>2014-08-24T11:30:17.000Z</time>
      </trkpt>
      <trkpt lat="43.9958" lon="7.4149">
        <ele>1880.8000488281</ele>
        <time>2014-08-24T11:30:24.000Z</time>
      </trkpt>
      <trkpt lat="43.99578" lon="7.41503">
        <ele>1879.4000244141</ele>
        <time>2014-08-24T11:30:30.000Z</time>
      </trkpt>
      <trkpt lat="43.99577" lon="7.41516">
        <ele>1879</ele>
        <time>2014-08-24T11:30:36.000Z</time>
      </trkpt>
      <trkpt lat="43.99576" lon="7.41531">
        <ele>1878.1999511719</ele>
        <time>2014-08-24T11:30:43.000Z</time>
      </trkpt>
      <trkpt lat="43.99575" lon="7.41541">
        <ele>1878</ele>
        <time>2014-08-24T11:30:48.000Z</time>
      </trkpt>
      <trkpt lat="43.99576" lon="7.41555">
        <ele>1878.4000244141</ele>
        <time>2014-08-24T11:30:55.000Z</time>
      </trkpt>
      <trkpt lat="43.99576" lon="7.41568">
        <ele>1879</ele>
        <time>2014-08-24T11:31:02.000Z</time>
      </trkpt>
      <trkpt lat="43.99587" lon="7.416">
        <ele>1884.4000244141</ele>
        <time>2014-08-24T11:31:19.000Z</time>
      </trkpt>
      <trkpt lat="43.99595" lon="7.41608">
        <ele>1888.5999755859</ele>
        <time>2014-08-24T11:31:24.000Z</time>
      </trkpt>
      <trkpt lat="43.996" lon="7.41621">
        <ele>1890.1999511719</ele>
        <time>2014-08-24T11:31:31.000Z</time>
      </trkpt>
      <trkpt lat="43.99608" lon="7.41631">
        <ele>1894</ele>
        <time>2014-08-24T11:31:38.000Z</time>
      </trkpt>
      <trkpt lat="43.99609" lon="7.41649">
        <ele>1893</ele>
        <time>2014-08-24T11:31:44.000Z</time>
      </trkpt>
      <trkpt lat="43.99611" lon="7.41662">
        <ele>1892.8000488281</ele>
        <time>2014-08-24T11:31:50.000Z</time>
      </trkpt>
      <trkpt lat="43.9961" lon="7.41668">
        <ele>1892.4000244141</ele>
        <time>2014-08-24T11:31:56.000Z</time>
      </trkpt>
      <trkpt lat="43.9961" lon="7.41669">
        <ele>1892.1999511719</ele>
        <time>2014-08-24T11:31:57.000Z</time>
      </trkpt>
      <trkpt lat="43.99613" lon="7.41671">
        <ele>1894.4000244141</ele>
        <time>2014-08-24T11:32:01.000Z</time>
      </trkpt>
      <trkpt lat="43.99614" lon="7.41675">
        <ele>1894.8000488281</ele>
        <time>2014-08-24T11:32:05.000Z</time>
      </trkpt>
      <trkpt lat="43.99615" lon="7.41676">
        <ele>1895.4000244141</ele>
        <time>2014-08-24T11:32:09.000Z</time>
      </trkpt>
      <trkpt lat="43.99612" lon="7.41677">
        <ele>1893.8000488281</ele>
        <time>2014-08-24T11:32:10.000Z</time>
      </trkpt>
      <trkpt lat="43.99611" lon="7.41676">
        <ele>1893.1999511719</ele>
        <time>2014-08-24T11:32:12.000Z</time>
      </trkpt>
      <trkpt lat="43.99611" lon="7.41675">
        <ele>1893.1999511719</ele>
        <time>2014-08-24T11:32:13.000Z</time>
      </trkpt>
      <trkpt lat="43.9961" lon="7.4166">
        <ele>1892.4000244141</ele>
        <time>2014-08-24T11:32:22.000Z</time>
      </trkpt>
      <trkpt lat="43.99609" lon="7.41645">
        <ele>1893.1999511719</ele>
        <time>2014-08-24T11:32:31.000Z</time>
      </trkpt>
      <trkpt lat="43.99606" lon="7.41633">
        <ele>1892.5999755859</ele>
        <time>2014-08-24T11:32:39.000Z</time>
      </trkpt>
      <trkpt lat="43.99603" lon="7.41623">
        <ele>1892</ele>
        <time>2014-08-24T11:32:46.000Z</time>
      </trkpt>
      <trkpt lat="43.99598" lon="7.41606">
        <ele>1890.5999755859</ele>
        <time>2014-08-24T11:32:58.000Z</time>
      </trkpt>
      <trkpt lat="43.99593" lon="7.41594">
        <ele>1888.8000488281</ele>
        <time>2014-08-24T11:33:06.000Z</time>
      </trkpt>
      <trkpt lat="43.99586" lon="7.41576">
        <ele>1885.1999511719</ele>
        <time>2014-08-24T11:33:18.000Z</time>
      </trkpt>
      <trkpt lat="43.99581" lon="7.41564">
        <ele>1881.5999755859</ele>
        <time>2014-08-24T11:33:28.000Z</time>
      </trkpt>
      <trkpt lat="43.99579" lon="7.41554">
        <ele>1880.1999511719</ele>
        <time>2014-08-24T11:33:35.000Z</time>
      </trkpt>
      <trkpt lat="43.99577" lon="7.41545">
        <ele>1878.8000488281</ele>
        <time>2014-08-24T11:33:42.000Z</time>
      </trkpt>
      <trkpt lat="43.99576" lon="7.41529">
        <ele>1878.8000488281</ele>
        <time>2014-08-24T11:33:52.000Z</time>
      </trkpt>
      <trkpt lat="43.99577" lon="7.41515">
        <ele>1879.1999511719</ele>
        <time>2014-08-24T11:34:00.000Z</time>
      </trkpt>
      <trkpt lat="43.99578" lon="7.41505">
        <ele>1879.5999755859</ele>
        <time>2014-08-24T11:34:06.000Z</time>
      </trkpt>
      <trkpt lat="43.99581" lon="7.41489">
        <ele>1881.5999755859</ele>
        <time>2014-08-24T11:34:16.000Z</time>
      </trkpt>
      <trkpt lat="43.9958" lon="7.41475">
        <ele>1880.5999755859</ele>
        <time>2014-08-24T11:34:24.000Z</time>
      </trkpt>
      <trkpt lat="43.99581" lon="7.4146">
        <ele>1880.5999755859</ele>
        <time>2014-08-24T11:34:34.000Z</time>
      </trkpt>
      <trkpt lat="43.99584" lon="7.41444">
        <ele>1881</ele>
        <time>2014-08-24T11:34:43.000Z</time>
      </trkpt>
      <trkpt lat="43.99583" lon="7.41422">
        <ele>1879</ele>
        <time>2014-08-24T11:34:57.000Z</time>
      </trkpt>
      <trkpt lat="43.99579" lon="7.41409">
        <ele>1877.1999511719</ele>
        <time>2014-08-24T11:35:07.000Z</time>
      </trkpt>
      <trkpt lat="43.99572" lon="7.41395">
        <ele>1875.5999755859</ele>
        <time>2014-08-24T11:35:19.000Z</time>
      </trkpt>
      <trkpt lat="43.99572" lon="7.41376">
        <ele>1877.8000488281</ele>
        <time>2014-08-24T11:35:29.000Z</time>
      </trkpt>
      <trkpt lat="43.99572" lon="7.41361">
        <ele>1875.8000488281</ele>
        <time>2014-08-24T11:35:38.000Z</time>
      </trkpt>
      <trkpt lat="43.99569" lon="7.41347">
        <ele>1873.5999755859</ele>
        <time>2014-08-24T11:35:48.000Z</time>
      </trkpt>
      <trkpt lat="43.99567" lon="7.41341">
        <ele>1872.1999511719</ele>
        <time>2014-08-24T11:35:54.000Z</time>
      </trkpt>
      <trkpt lat="43.99561" lon="7.41328">
        <ele>1869.5999755859</ele>
        <time>2014-08-24T11:36:07.000Z</time>
      </trkpt>
      <trkpt lat="43.9956" lon="7.41329">
        <ele>1869</ele>
        <time>2014-08-24T11:36:14.000Z</time>
      </trkpt>
      <trkpt lat="43.99559" lon="7.41327">
        <ele>1869.1999511719</ele>
        <time>2014-08-24T11:36:51.000Z</time>
      </trkpt>
      <trkpt lat="43.99557" lon="7.4133">
        <ele>1868</ele>
        <time>2014-08-24T11:36:54.000Z</time>
      </trkpt>
      <trkpt lat="43.99553" lon="7.41328">
        <ele>1867</ele>
        <time>2014-08-24T11:37:03.000Z</time>
      </trkpt>
      <trkpt lat="43.99552" lon="7.41328">
        <ele>1866.5999755859</ele>
        <time>2014-08-24T11:37:08.000Z</time>
      </trkpt>
      <trkpt lat="43.99554" lon="7.41323">
        <ele>1867.8000488281</ele>
        <time>2014-08-24T11:40:43.000Z</time>
      </trkpt>
      <trkpt lat="43.99549" lon="7.41314">
        <ele>1867.5999755859</ele>
        <time>2014-08-24T11:40:53.000Z</time>
      </trkpt>
      <trkpt lat="43.99544" lon="7.41304">
        <ele>1867</ele>
        <time>2014-08-24T11:41:02.000Z</time>
      </trkpt>
      <trkpt lat="43.99538" lon="7.41293">
        <ele>1866.5999755859</ele>
        <time>2014-08-24T11:41:14.000Z</time>
      </trkpt>
      <trkpt lat="43.99536" lon="7.41288">
        <ele>1866.5999755859</ele>
        <time>2014-08-24T11:41:21.000Z</time>
      </trkpt>
      <trkpt lat="43.99532" lon="7.41276">
        <ele>1866.8000488281</ele>
        <time>2014-08-24T11:41:30.000Z</time>
      </trkpt>
      <trkpt lat="43.99527" lon="7.41256">
        <ele>1867.8000488281</ele>
        <time>2014-08-24T11:41:44.000Z</time>
      </trkpt>
      <trkpt lat="43.99526" lon="7.41253">
        <ele>1867.8000488281</ele>
        <time>2014-08-24T11:41:46.000Z</time>
      </trkpt>
      <trkpt lat="43.99525" lon="7.41251">
        <ele>1867.8000488281</ele>
        <time>2014-08-24T11:41:48.000Z</time>
      </trkpt>
      <trkpt lat="43.99525" lon="7.41247">
        <ele>1868.1999511719</ele>
        <time>2014-08-24T11:41:51.000Z</time>
      </trkpt>
      <trkpt lat="43.99521" lon="7.4123">
        <ele>1869.8000488281</ele>
        <time>2014-08-24T11:42:02.000Z</time>
      </trkpt>
      <trkpt lat="43.99518" lon="7.41215">
        <ele>1870.5999755859</ele>
        <time>2014-08-24T11:42:11.000Z</time>
      </trkpt>
      <trkpt lat="43.99515" lon="7.41205">
        <ele>1871</ele>
        <time>2014-08-24T11:42:18.000Z</time>
      </trkpt>
      <trkpt lat="43.9951" lon="7.41196">
        <ele>1870.4000244141</ele>
        <time>2014-08-24T11:42:25.000Z</time>
      </trkpt>
      <trkpt lat="43.99506" lon="7.41188">
        <ele>1870.4000244141</ele>
        <time>2014-08-24T11:42:31.000Z</time>
      </trkpt>
      <trkpt lat="43.99501" lon="7.41178">
        <ele>1869.8000488281</ele>
        <time>2014-08-24T11:42:39.000Z</time>
      </trkpt>
      <trkpt lat="43.99499" lon="7.41176">
        <ele>1869.1999511719</ele>
        <time>2014-08-24T11:42:42.000Z</time>
      </trkpt>
      <trkpt lat="43.99497" lon="7.41173">
        <ele>1869</ele>
        <time>2014-08-24T11:42:45.000Z</time>
      </trkpt>
      <trkpt lat="43.99489" lon="7.41155">
        <ele>1870.5999755859</ele>
        <time>2014-08-24T11:42:58.000Z</time>
      </trkpt>
      <trkpt lat="43.99481" lon="7.41141">
        <ele>1872</ele>
        <time>2014-08-24T11:43:09.000Z</time>
      </trkpt>
      <trkpt lat="43.99473" lon="7.41129">
        <ele>1872.5999755859</ele>
        <time>2014-08-24T11:43:20.000Z</time>
      </trkpt>
      <trkpt lat="43.99465" lon="7.41121">
        <ele>1872</ele>
        <time>2014-08-24T11:43:29.000Z</time>
      </trkpt>
      <trkpt lat="43.99457" lon="7.41115">
        <ele>1870.8000488281</ele>
        <time>2014-08-24T11:43:37.000Z</time>
      </trkpt>
      <trkpt lat="43.99448" lon="7.4111">
        <ele>1869</ele>
        <time>2014-08-24T11:43:46.000Z</time>
      </trkpt>
      <trkpt lat="43.99443" lon="7.41108">
        <ele>1867.4000244141</ele>
        <time>2014-08-24T11:43:51.000Z</time>
      </trkpt>
      <trkpt lat="43.99441" lon="7.41107">
        <ele>1867.1999511719</ele>
        <time>2014-08-24T11:43:53.000Z</time>
      </trkpt>
      <trkpt lat="43.99439" lon="7.41105">
        <ele>1867.4000244141</ele>
        <time>2014-08-24T11:43:55.000Z</time>
      </trkpt>
      <trkpt lat="43.99433" lon="7.41099">
        <ele>1868.4000244141</ele>
        <time>2014-08-24T11:44:01.000Z</time>
      </trkpt>
      <trkpt lat="43.99423" lon="7.41095">
        <ele>1868</ele>
        <time>2014-08-24T11:44:10.000Z</time>
      </trkpt>
      <trkpt lat="43.99415" lon="7.41092">
        <ele>1867.4000244141</ele>
        <time>2014-08-24T11:44:18.000Z</time>
      </trkpt>
      <trkpt lat="43.99406" lon="7.41085">
        <ele>1868.1999511719</ele>
        <time>2014-08-24T11:44:26.000Z</time>
      </trkpt>
      <trkpt lat="43.99398" lon="7.4108">
        <ele>1868.4000244141</ele>
        <time>2014-08-24T11:44:34.000Z</time>
      </trkpt>
      <trkpt lat="43.99387" lon="7.41076">
        <ele>1868</ele>
        <time>2014-08-24T11:44:44.000Z</time>
      </trkpt>
      <trkpt lat="43.99378" lon="7.41072">
        <ele>1868</ele>
        <time>2014-08-24T11:44:52.000Z</time>
      </trkpt>
      <trkpt lat="43.99368" lon="7.41071">
        <ele>1866.5999755859</ele>
        <time>2014-08-24T11:45:00.000Z</time>
      </trkpt>
      <trkpt lat="43.99359" lon="7.41072">
        <ele>1864.5999755859</ele>
        <time>2014-08-24T11:45:08.000Z</time>
      </trkpt>
      <trkpt lat="43.9935" lon="7.41069">
        <ele>1862</ele>
        <time>2014-08-24T11:45:16.000Z</time>
      </trkpt>
      <trkpt lat="43.99347" lon="7.41069">
        <ele>1860.8000488281</ele>
        <time>2014-08-24T11:45:19.000Z</time>
      </trkpt>
      <trkpt lat="43.99342" lon="7.41069">
        <ele>1859.4000244141</ele>
        <time>2014-08-24T11:45:23.000Z</time>
      </trkpt>
      <trkpt lat="43.99335" lon="7.41067">
        <ele>1857.5999755859</ele>
        <time>2014-08-24T11:45:29.000Z</time>
      </trkpt>
      <trkpt lat="43.99333" lon="7.41067">
        <ele>1857.4000244141</ele>
        <time>2014-08-24T11:45:30.000Z</time>
      </trkpt>
      <trkpt lat="43.99322" lon="7.41068">
        <ele>1854</ele>
        <time>2014-08-24T11:45:39.000Z</time>
      </trkpt>
      <trkpt lat="43.99314" lon="7.4106">
        <ele>1854</ele>
        <time>2014-08-24T11:45:46.000Z</time>
      </trkpt>
      <trkpt lat="43.99303" lon="7.4106">
        <ele>1851</ele>
        <time>2014-08-24T11:45:56.000Z</time>
      </trkpt>
      <trkpt lat="43.99292" lon="7.41057">
        <ele>1849</ele>
        <time>2014-08-24T11:46:05.000Z</time>
      </trkpt>
      <trkpt lat="43.99287" lon="7.41056">
        <ele>1847.8000488281</ele>
        <time>2014-08-24T11:46:10.000Z</time>
      </trkpt>
      <trkpt lat="43.99286" lon="7.41055">
        <ele>1847.5999755859</ele>
        <time>2014-08-24T11:46:12.000Z</time>
      </trkpt>
      <trkpt lat="43.99277" lon="7.4105">
        <ele>1846.8000488281</ele>
        <time>2014-08-24T11:46:21.000Z</time>
      </trkpt>
      <trkpt lat="43.9927" lon="7.41044">
        <ele>1845.5999755859</ele>
        <time>2014-08-24T11:46:29.000Z</time>
      </trkpt>
      <trkpt lat="43.99265" lon="7.41033">
        <ele>1846</ele>
        <time>2014-08-24T11:46:37.000Z</time>
      </trkpt>
      <trkpt lat="43.99257" lon="7.4102">
        <ele>1845.4000244141</ele>
        <time>2014-08-24T11:46:48.000Z</time>
      </trkpt>
      <trkpt lat="43.99249" lon="7.41009">
        <ele>1844.5999755859</ele>
        <time>2014-08-24T11:46:59.000Z</time>
      </trkpt>
      <trkpt lat="43.99243" lon="7.41">
        <ele>1844</ele>
        <time>2014-08-24T11:47:08.000Z</time>
      </trkpt>
      <trkpt lat="43.99238" lon="7.40988">
        <ele>1845.4000244141</ele>
        <time>2014-08-24T11:47:16.000Z</time>
      </trkpt>
      <trkpt lat="43.99233" lon="7.40981">
        <ele>1845.5999755859</ele>
        <time>2014-08-24T11:47:22.000Z</time>
      </trkpt>
      <trkpt lat="43.99233" lon="7.4098">
        <ele>1845.8000488281</ele>
        <time>2014-08-24T11:47:23.000Z</time>
      </trkpt>
      <trkpt lat="43.99226" lon="7.4097">
        <ele>1846.1999511719</ele>
        <time>2014-08-24T11:47:33.000Z</time>
      </trkpt>
      <trkpt lat="43.99221" lon="7.40962">
        <ele>1845.8000488281</ele>
        <time>2014-08-24T11:47:41.000Z</time>
      </trkpt>
      <trkpt lat="43.99213" lon="7.4095">
        <ele>1846.1999511719</ele>
        <time>2014-08-24T11:47:53.000Z</time>
      </trkpt>
      <trkpt lat="43.99205" lon="7.40943">
        <ele>1845</ele>
        <time>2014-08-24T11:48:01.000Z</time>
      </trkpt>
      <trkpt lat="43.99198" lon="7.40937">
        <ele>1843.5999755859</ele>
        <time>2014-08-24T11:48:09.000Z</time>
      </trkpt>
      <trkpt lat="43.99192" lon="7.40929">
        <ele>1843</ele>
        <time>2014-08-24T11:48:17.000Z</time>
      </trkpt>
      <trkpt lat="43.99184" lon="7.40921">
        <ele>1842.5999755859</ele>
        <time>2014-08-24T11:48:27.000Z</time>
      </trkpt>
      <trkpt lat="43.99176" lon="7.40912">
        <ele>1842.8000488281</ele>
        <time>2014-08-24T11:48:36.000Z</time>
      </trkpt>
      <trkpt lat="43.99168" lon="7.40902">
        <ele>1842.4000244141</ele>
        <time>2014-08-24T11:48:46.000Z</time>
      </trkpt>
      <trkpt lat="43.99156" lon="7.40892">
        <ele>1841.1999511719</ele>
        <time>2014-08-24T11:48:58.000Z</time>
      </trkpt>
      <trkpt lat="43.99147" lon="7.40885">
        <ele>1839.8000488281</ele>
        <time>2014-08-24T11:49:07.000Z</time>
      </trkpt>
      <trkpt lat="43.99137" lon="7.40877">
        <ele>1838.4000244141</ele>
        <time>2014-08-24T11:49:17.000Z</time>
      </trkpt>
      <trkpt lat="43.99127" lon="7.40867">
        <ele>1837.5999755859</ele>
        <time>2014-08-24T11:49:28.000Z</time>
      </trkpt>
      <trkpt lat="43.99119" lon="7.40859">
        <ele>1836.8000488281</ele>
        <time>2014-08-24T11:49:37.000Z</time>
      </trkpt>
      <trkpt lat="43.99112" lon="7.40852">
        <ele>1836.4000244141</ele>
        <time>2014-08-24T11:49:45.000Z</time>
      </trkpt>
      <trkpt lat="43.99111" lon="7.40853">
        <ele>1835.8000488281</ele>
        <time>2014-08-24T11:49:46.000Z</time>
      </trkpt>
      <trkpt lat="43.99106" lon="7.40848">
        <ele>1835.5999755859</ele>
        <time>2014-08-24T11:49:51.000Z</time>
      </trkpt>
      <trkpt lat="43.99097" lon="7.40839">
        <ele>1835.1999511719</ele>
        <time>2014-08-24T11:50:00.000Z</time>
      </trkpt>
      <trkpt lat="43.9909" lon="7.40832">
        <ele>1834.5999755859</ele>
        <time>2014-08-24T11:50:10.000Z</time>
      </trkpt>
      <trkpt lat="43.99082" lon="7.40826">
        <ele>1833</ele>
        <time>2014-08-24T11:50:19.000Z</time>
      </trkpt>
      <trkpt lat="43.99082" lon="7.40823">
        <ele>1833.5999755859</ele>
        <time>2014-08-24T11:50:25.000Z</time>
      </trkpt>
      <trkpt lat="43.99081" lon="7.40815">
        <ele>1834.5999755859</ele>
        <time>2014-08-24T11:50:42.000Z</time>
      </trkpt>
      <trkpt lat="43.99077" lon="7.4081">
        <ele>1834.1999511719</ele>
        <time>2014-08-24T11:50:51.000Z</time>
      </trkpt>
      <trkpt lat="43.99072" lon="7.40803">
        <ele>1833.4000244141</ele>
        <time>2014-08-24T11:50:59.000Z</time>
      </trkpt>
      <trkpt lat="43.99065" lon="7.40794">
        <ele>1833</ele>
        <time>2014-08-24T11:51:06.000Z</time>
      </trkpt>
      <trkpt lat="43.99058" lon="7.40786">
        <ele>1831.8000488281</ele>
        <time>2014-08-24T11:51:14.000Z</time>
      </trkpt>
      <trkpt lat="43.99055" lon="7.4078">
        <ele>1831.4000244141</ele>
        <time>2014-08-24T11:51:20.000Z</time>
      </trkpt>
      <trkpt lat="43.99053" lon="7.40779">
        <ele>1830.8000488281</ele>
        <time>2014-08-24T11:51:23.000Z</time>
      </trkpt>
      <trkpt lat="43.9905" lon="7.40776">
        <ele>1830.1999511719</ele>
        <time>2014-08-24T11:51:27.000Z</time>
      </trkpt>
      <trkpt lat="43.99045" lon="7.40765">
        <ele>1830.1999511719</ele>
        <time>2014-08-24T11:51:33.000Z</time>
      </trkpt>
      <trkpt lat="43.99041" lon="7.40756">
        <ele>1829.8000488281</ele>
        <time>2014-08-24T11:51:38.000Z</time>
      </trkpt>
      <trkpt lat="43.9904" lon="7.40751">
        <ele>1829.8000488281</ele>
        <time>2014-08-24T11:51:40.000Z</time>
      </trkpt>
      <trkpt lat="43.99035" lon="7.40736">
        <ele>1828.8000488281</ele>
        <time>2014-08-24T11:51:48.000Z</time>
      </trkpt>
      <trkpt lat="43.99028" lon="7.40722">
        <ele>1827</ele>
        <time>2014-08-24T11:51:55.000Z</time>
      </trkpt>
      <trkpt lat="43.99025" lon="7.40711">
        <ele>1826.4000244141</ele>
        <time>2014-08-24T11:52:02.000Z</time>
      </trkpt>
      <trkpt lat="43.99021" lon="7.407">
        <ele>1825.8000488281</ele>
        <time>2014-08-24T11:52:08.000Z</time>
      </trkpt>
      <trkpt lat="43.99014" lon="7.40691">
        <ele>1824.1999511719</ele>
        <time>2014-08-24T11:52:14.000Z</time>
      </trkpt>
      <trkpt lat="43.99009" lon="7.40683">
        <ele>1823.1999511719</ele>
        <time>2014-08-24T11:52:21.000Z</time>
      </trkpt>
      <trkpt lat="43.99007" lon="7.40681">
        <ele>1822.8000488281</ele>
        <time>2014-08-24T11:52:23.000Z</time>
      </trkpt>
      <trkpt lat="43.99003" lon="7.40675">
        <ele>1822</ele>
        <time>2014-08-24T11:52:28.000Z</time>
      </trkpt>
      <trkpt lat="43.98997" lon="7.40667">
        <ele>1820.5999755859</ele>
        <time>2014-08-24T11:52:34.000Z</time>
      </trkpt>
      <trkpt lat="43.98992" lon="7.40658">
        <ele>1820.1999511719</ele>
        <time>2014-08-24T11:52:40.000Z</time>
      </trkpt>
      <trkpt lat="43.98985" lon="7.40651">
        <ele>1819.1999511719</ele>
        <time>2014-08-24T11:52:47.000Z</time>
      </trkpt>
      <trkpt lat="43.98979" lon="7.40643">
        <ele>1818.5999755859</ele>
        <time>2014-08-24T11:52:53.000Z</time>
      </trkpt>
      <trkpt lat="43.98971" lon="7.40635">
        <ele>1817.5999755859</ele>
        <time>2014-08-24T11:53:00.000Z</time>
      </trkpt>
      <trkpt lat="43.98965" lon="7.40627">
        <ele>1817</ele>
        <time>2014-08-24T11:53:07.000Z</time>
      </trkpt>
      <trkpt lat="43.98959" lon="7.40618">
        <ele>1816.4000244141</ele>
        <time>2014-08-24T11:53:14.000Z</time>
      </trkpt>
      <trkpt lat="43.98955" lon="7.40607">
        <ele>1816.5999755859</ele>
        <time>2014-08-24T11:53:20.000Z</time>
      </trkpt>
      <trkpt lat="43.98955" lon="7.40597">
        <ele>1817.5999755859</ele>
        <time>2014-08-24T11:53:26.000Z</time>
      </trkpt>
      <trkpt lat="43.98955" lon="7.40596">
        <ele>1817.5999755859</ele>
        <time>2014-08-24T11:53:27.000Z</time>
      </trkpt>
      <trkpt lat="43.98952" lon="7.4059">
        <ele>1817.1999511719</ele>
        <time>2014-08-24T11:53:31.000Z</time>
      </trkpt>
      <trkpt lat="43.98951" lon="7.40586">
        <ele>1816.5999755859</ele>
        <time>2014-08-24T11:53:33.000Z</time>
      </trkpt>
      <trkpt lat="43.9895" lon="7.40581">
        <ele>1816</ele>
        <time>2014-08-24T11:53:36.000Z</time>
      </trkpt>
      <trkpt lat="43.98949" lon="7.40579">
        <ele>1815.8000488281</ele>
        <time>2014-08-24T11:53:37.000Z</time>
      </trkpt>
      <trkpt lat="43.98951" lon="7.40567">
        <ele>1814.5999755859</ele>
        <time>2014-08-24T11:53:42.000Z</time>
      </trkpt>
      <trkpt lat="43.98949" lon="7.40552">
        <ele>1813</ele>
        <time>2014-08-24T11:53:50.000Z</time>
      </trkpt>
      <trkpt lat="43.98943" lon="7.40543">
        <ele>1811.8000488281</ele>
        <time>2014-08-24T11:53:55.000Z</time>
      </trkpt>
      <trkpt lat="43.98942" lon="7.40542">
        <ele>1811.5999755859</ele>
        <time>2014-08-24T11:53:56.000Z</time>
      </trkpt>
      <trkpt lat="43.98941" lon="7.40537">
        <ele>1811</ele>
        <time>2014-08-24T11:54:00.000Z</time>
      </trkpt>
      <trkpt lat="43.98941" lon="7.40533">
        <ele>1810.5999755859</ele>
        <time>2014-08-24T11:54:03.000Z</time>
      </trkpt>
      <trkpt lat="43.98942" lon="7.4053">
        <ele>1810.4000244141</ele>
        <time>2014-08-24T11:54:06.000Z</time>
      </trkpt>
      <trkpt lat="43.98941" lon="7.40529">
        <ele>1810.1999511719</ele>
        <time>2014-08-24T11:54:14.000Z</time>
      </trkpt>
      <trkpt lat="43.98941" lon="7.40528">
        <ele>1810</ele>
        <time>2014-08-24T11:54:15.000Z</time>
      </trkpt>
      <trkpt lat="43.98939" lon="7.4052">
        <ele>1809</ele>
        <time>2014-08-24T11:54:21.000Z</time>
      </trkpt>
      <trkpt lat="43.9894" lon="7.40513">
        <ele>1808.4000244141</ele>
        <time>2014-08-24T11:54:27.000Z</time>
      </trkpt>
      <trkpt lat="43.9894" lon="7.4051">
        <ele>1808</ele>
        <time>2014-08-24T11:54:29.000Z</time>
      </trkpt>
      <trkpt lat="43.98941" lon="7.40506">
        <ele>1807.8000488281</ele>
        <time>2014-08-24T11:54:32.000Z</time>
      </trkpt>
      <trkpt lat="43.9894" lon="7.40506">
        <ele>1807.5999755859</ele>
        <time>2014-08-24T11:54:33.000Z</time>
      </trkpt>
      <trkpt lat="43.98938" lon="7.40496">
        <ele>1806.1999511719</ele>
        <time>2014-08-24T11:54:39.000Z</time>
      </trkpt>
      <trkpt lat="43.98935" lon="7.40486">
        <ele>1803.5999755859</ele>
        <time>2014-08-24T11:54:45.000Z</time>
      </trkpt>
      <trkpt lat="43.98935" lon="7.40476">
        <ele>1801.4000244141</ele>
        <time>2014-08-24T11:54:52.000Z</time>
      </trkpt>
      <trkpt lat="43.98931" lon="7.40465">
        <ele>1798.8000488281</ele>
        <time>2014-08-24T11:54:59.000Z</time>
      </trkpt>
      <trkpt lat="43.9893" lon="7.40464">
        <ele>1798.4000244141</ele>
        <time>2014-08-24T11:55:00.000Z</time>
      </trkpt>
      <trkpt lat="43.98928" lon="7.40458">
        <ele>1796.8000488281</ele>
        <time>2014-08-24T11:55:04.000Z</time>
      </trkpt>
      <trkpt lat="43.98925" lon="7.4045">
        <ele>1794.8000488281</ele>
        <time>2014-08-24T11:55:09.000Z</time>
      </trkpt>
      <trkpt lat="43.98924" lon="7.40434">
        <ele>1791</ele>
        <time>2014-08-24T11:55:16.000Z</time>
      </trkpt>
      <trkpt lat="43.98925" lon="7.40426">
        <ele>1789.1999511719</ele>
        <time>2014-08-24T11:55:19.000Z</time>
      </trkpt>
      <trkpt lat="43.98924" lon="7.40422">
        <ele>1788.1999511719</ele>
        <time>2014-08-24T11:55:21.000Z</time>
      </trkpt>
      <trkpt lat="43.98926" lon="7.4041">
        <ele>1786</ele>
        <time>2014-08-24T11:55:27.000Z</time>
      </trkpt>
      <trkpt lat="43.98926" lon="7.40409">
        <ele>1785.5999755859</ele>
        <time>2014-08-24T11:55:28.000Z</time>
      </trkpt>
      <trkpt lat="43.98924" lon="7.404">
        <ele>1783.8000488281</ele>
        <time>2014-08-24T11:55:34.000Z</time>
      </trkpt>
      <trkpt lat="43.9892" lon="7.40391">
        <ele>1781.8000488281</ele>
        <time>2014-08-24T11:55:40.000Z</time>
      </trkpt>
      <trkpt lat="43.98919" lon="7.40385">
        <ele>1780.5999755859</ele>
        <time>2014-08-24T11:55:46.000Z</time>
      </trkpt>
      <trkpt lat="43.98916" lon="7.40378">
        <ele>1779.1999511719</ele>
        <time>2014-08-24T11:55:51.000Z</time>
      </trkpt>
      <trkpt lat="43.98917" lon="7.40377">
        <ele>1778.8000488281</ele>
        <time>2014-08-24T11:55:52.000Z</time>
      </trkpt>
      <trkpt lat="43.98918" lon="7.40373">
        <ele>1778.1999511719</ele>
        <time>2014-08-24T11:55:55.000Z</time>
      </trkpt>
      <trkpt lat="43.98919" lon="7.4037">
        <ele>1777.5999755859</ele>
        <time>2014-08-24T11:55:57.000Z</time>
      </trkpt>
      <trkpt lat="43.98918" lon="7.40368">
        <ele>1777.4000244141</ele>
        <time>2014-08-24T11:55:58.000Z</time>
      </trkpt>
      <trkpt lat="43.98918" lon="7.40362">
        <ele>1776</ele>
        <time>2014-08-24T11:56:01.000Z</time>
      </trkpt>
      <trkpt lat="43.98919" lon="7.40351">
        <ele>1774.1999511719</ele>
        <time>2014-08-24T11:56:05.000Z</time>
      </trkpt>
      <trkpt lat="43.98921" lon="7.40334">
        <ele>1771</ele>
        <time>2014-08-24T11:56:11.000Z</time>
      </trkpt>
      <trkpt lat="43.98921" lon="7.40317">
        <ele>1767.4000244141</ele>
        <time>2014-08-24T11:56:17.000Z</time>
      </trkpt>
      <trkpt lat="43.98917" lon="7.40301">
        <ele>1764</ele>
        <time>2014-08-24T11:56:22.000Z</time>
      </trkpt>
      <trkpt lat="43.98914" lon="7.40276">
        <ele>1760</ele>
        <time>2014-08-24T11:56:28.000Z</time>
      </trkpt>
      <trkpt lat="43.98913" lon="7.40252">
        <ele>1756.4000244141</ele>
        <time>2014-08-24T11:56:34.000Z</time>
      </trkpt>
      <trkpt lat="43.98911" lon="7.40241">
        <ele>1754.8000488281</ele>
        <time>2014-08-24T11:56:39.000Z</time>
      </trkpt>
      <trkpt lat="43.9891" lon="7.40236">
        <ele>1754</ele>
        <time>2014-08-24T11:56:44.000Z</time>
      </trkpt>
      <trkpt lat="43.9891" lon="7.40235">
        <ele>1753.8000488281</ele>
        <time>2014-08-24T11:56:45.000Z</time>
      </trkpt>
      <trkpt lat="43.98909" lon="7.40227">
        <ele>1752.8000488281</ele>
        <time>2014-08-24T11:56:49.000Z</time>
      </trkpt>
      <trkpt lat="43.98908" lon="7.40222">
        <ele>1752</ele>
        <time>2014-08-24T11:56:52.000Z</time>
      </trkpt>
      <trkpt lat="43.98908" lon="7.40211">
        <ele>1750.5999755859</ele>
        <time>2014-08-24T11:56:58.000Z</time>
      </trkpt>
      <trkpt lat="43.98909" lon="7.40209">
        <ele>1750.8000488281</ele>
        <time>2014-08-24T11:57:00.000Z</time>
      </trkpt>
      <trkpt lat="43.98909" lon="7.40205">
        <ele>1750.1999511719</ele>
        <time>2014-08-24T11:57:03.000Z</time>
      </trkpt>
      <trkpt lat="43.98906" lon="7.402">
        <ele>1749.4000244141</ele>
        <time>2014-08-24T11:57:07.000Z</time>
      </trkpt>
      <trkpt lat="43.98901" lon="7.4019">
        <ele>1747.5999755859</ele>
        <time>2014-08-24T11:57:14.000Z</time>
      </trkpt>
      <trkpt lat="43.98896" lon="7.40184">
        <ele>1746.1999511719</ele>
        <time>2014-08-24T11:57:21.000Z</time>
      </trkpt>
      <trkpt lat="43.98896" lon="7.40184">
        <ele>1746.1999511719</ele>
        <time>2014-08-24T11:57:26.000Z</time>
      </trkpt>
      <trkpt lat="43.98895" lon="7.40182">
        <ele>1745.8000488281</ele>
        <time>2014-08-24T11:57:35.000Z</time>
      </trkpt>
      <trkpt lat="43.98893" lon="7.4018">
        <ele>1745.1999511719</ele>
        <time>2014-08-24T11:57:38.000Z</time>
      </trkpt>
      <trkpt lat="43.98892" lon="7.40178">
        <ele>1745</ele>
        <time>2014-08-24T11:57:39.000Z</time>
      </trkpt>
      <trkpt lat="43.9889" lon="7.40172">
        <ele>1744</ele>
        <time>2014-08-24T11:57:42.000Z</time>
      </trkpt>
      <trkpt lat="43.98886" lon="7.40167">
        <ele>1742.8000488281</ele>
        <time>2014-08-24T11:57:46.000Z</time>
      </trkpt>
      <trkpt lat="43.98884" lon="7.40163">
        <ele>1742.4000244141</ele>
        <time>2014-08-24T11:57:48.000Z</time>
      </trkpt>
      <trkpt lat="43.98881" lon="7.4015">
        <ele>1742</ele>
        <time>2014-08-24T11:57:56.000Z</time>
      </trkpt>
      <trkpt lat="43.98878" lon="7.40139">
        <ele>1741.5999755859</ele>
        <time>2014-08-24T11:58:03.000Z</time>
      </trkpt>
      <trkpt lat="43.98877" lon="7.40137">
        <ele>1741.5999755859</ele>
        <time>2014-08-24T11:58:05.000Z</time>
      </trkpt>
      <trkpt lat="43.98877" lon="7.40138">
        <ele>1741.5999755859</ele>
        <time>2014-08-24T11:58:08.000Z</time>
      </trkpt>
      <trkpt lat="43.98876" lon="7.40143">
        <ele>1741.4000244141</ele>
        <time>2014-08-24T11:58:21.000Z</time>
      </trkpt>
      <trkpt lat="43.98877" lon="7.40135">
        <ele>1741.5999755859</ele>
        <time>2014-08-24T11:58:28.000Z</time>
      </trkpt>
      <trkpt lat="43.98872" lon="7.40123">
        <ele>1740.8000488281</ele>
        <time>2014-08-24T11:58:36.000Z</time>
      </trkpt>
      <trkpt lat="43.9887" lon="7.4012">
        <ele>1740.4000244141</ele>
        <time>2014-08-24T11:58:40.000Z</time>
      </trkpt>
      <trkpt lat="43.98867" lon="7.40122">
        <ele>1740</ele>
        <time>2014-08-24T11:58:43.000Z</time>
      </trkpt>
      <trkpt lat="43.98865" lon="7.40123">
        <ele>1739.8000488281</ele>
        <time>2014-08-24T11:58:50.000Z</time>
      </trkpt>
      <trkpt lat="43.98865" lon="7.40125">
        <ele>1739.5999755859</ele>
        <time>2014-08-24T11:59:27.000Z</time>
      </trkpt>
    </trkseg>
  </trk>
</gpx>